[[{"header":{"parameterUnit":"m.s-1","parameterCategory":1,"la1":30.6,"la2":28.766,"lo1":-90.7593,"lo2":-88.6598,"dy":0.0162,"dx":0.0183,"nx":116,"ny":114,"refTime":"2023-08-18T06:00:00:Z","depth":0,"parameterNumber":2,"parameterNumberName":"U-component_of_WINDS"},"data":[0.0,0.0,0.0,0.0,0.0,0.0,0.0,0.0,0.0,0.0,0.0,0.0,0.0,0.0,0.0,0.0,0.0,0.0,0.0,0.0,0.0,0.0,0.0,0.0,0.0,0.0,0.0,0.0,0.0,0.0,0.0,0.0,0.0,0.0,0.0,0.0,0.0,0.0,0.0,0.0,0.0,0.0,0.0,0.0,0.0,0.0,0.0,0.0,0.0,0.0,0.0,0.0,0.0,0.0,0.0,0.0,0.0,0.0,0.0,0.0,0.0,0.0,0.0,0.0,0.0,0.0,0.0,0.0,0.0,0.0,0.0,0.0,0.0,0.0,0.0,0.0,0.0,0.0,0.0,0.0,0.0,0.0,0.0,0.0,0.0,0.0,0.0,0.0,0.0,0.0,0.0,0.0,0.0,0.0,0.0,0.0,0.0,0.0,0.0,0.0,0.0,0.0,0.0,0.0,0.0,0.0,0.0,0.0,0.0,0.0,0.0,0.0,0.0,0.0,0.0,0.0,0.0,0.0,0.0,0.0,0.0,0.0,0.0,0.0,0.0,0.0,0.0,0.0,0.0,0.0,0.0,0.0,0.0,0.0,0.0,0.0,0.0,0.0,0.0,0.0,0.0,0.0,0.0,0.0,0.0,0.0,0.0,0.0,0.0,0.0,0.0,0.0,0.0,0.0,0.0,0.0,0.0,0.0,0.0,0.0,0.0,0.0,0.0,0.0,0.0,0.0,0.0,0.0,0.0,0.0,0.0,0.0,0.0,0.0,0.0,0.0,0.0,0.0,0.0,0.0,0.0,0.0,0.0,0.0,0.0,0.0,0.0,0.0,0.0,0.0,0.0,0.0,0.0,0.0,0.0,0.0,0.0,0.0,0.0,0.0,0.0,0.0,0.0,0.0,0.0,0.0,0.0,0.0,0.0,0.0,0.0,0.0,0.0,0.0,0.0,0.0,0.0,0.0,0.0,0.0,0.0,0.0,0.0,0.0,0.0,0.0,0.0,0.0,0.0,0.0,0.0,0.0,0.0,0.0,0.0,0.0,0.0,0.0,0.0,0.0,0.0,0.0,0.0,0.0,0.0,0.0,0.0,0.0,0.0,0.0,0.0,0.0,0.0,0.0,0.0,0.0,0.0,0.0,0.0,0.0,0.0,0.0,0.0,0.0,0.0,0.0,0.0,0.0,0.0,0.0,0.0,0.0,0.0,0.0,0.0,0.0,0.0,0.0,0.0,0.0,0.0,0.0,0.0,0.0,0.0,0.0,0.0,0.0,0.0,0.0,0.0,0.0,0.0,0.0,0.0,0.0,0.0,0.0,0.0,0.0,0.0,0.0,0.0,0.0,0.0,0.0,0.0,0.0,0.0,0.0,0.0,0.0,0.0,0.0,0.0,0.0,0.0,0.0,0.0,0.0,0.0,0.0,0.0,0.0,0.0,0.0,0.0,0.0,0.0,0.0,0.0,0.0,0.0,0.0,0.0,0.0,0.0,0.0,0.0,0.0,0.0,0.0,0.0,0.0,0.0,0.0,0.0,0.0,0.0,0.0,0.0,0.0,0.0,0.0,0.0,0.0,0.0,0.0,0.0,0.0,0.0,0.0,0.0,0.0,0.0,0.0,0.0,0.0,0.0,0.0,0.0,0.0,0.0,0.0,0.0,0.0,0.0,0.0,0.0,0.0,0.0,0.0,0.0,0.0,0.0,0.0,0.0,0.0,0.0,0.0,0.0,0.0,0.0,0.0,0.0,0.0,0.0,0.0,0.0,0.0,0.0,0.0,0.0,0.0,0.0,0.0,0.0,0.0,0.0,0.0,0.0,0.0,0.0,0.0,0.0,0.0,0.0,0.0,0.0,0.0,0.0,0.0,0.0,0.0,0.0,0.0,0.0,0.0,0.0,0.0,0.0,0.0,0.0,0.0,0.0,0.0,0.0,0.0,0.0,0.0,0.0,0.0,0.0,0.0,0.0,0.0,0.0,0.0,0.0,0.0,0.0,0.0,0.0,0.0,0.0,0.0,0.0,0.0,0.0,0.0,0.0,0.0,0.0,0.0,0.0,0.0,0.0,0.0,0.0,0.0,0.0,0.0,0.0,0.0,0.0,0.0,0.0,0.0,0.0,0.0,0.0,0.0,0.0,0.0,0.0,0.0,0.0,0.0,0.0,0.0,0.0,0.0,0.0,0.0,0.0,0.0,0.0,0.0,0.0,0.0,0.0,0.0,0.0,0.0,0.0,0.0,0.0,0.0,0.0,0.0,0.0,0.0,0.0,0.0,0.0,0.0,0.0,0.0,0.0,0.0,0.0,0.0,0.0,0.0,0.0,0.0,0.0,0.0,0.0,0.0,0.0,0.0,0.0,0.0,0.0,0.0,0.0,0.0,0.0,0.0,0.0,0.0,0.0,0.0,0.0,0.0,0.0,0.0,0.0,0.0,0.0,0.0,0.0,0.0,0.0,0.0,0.0,0.0,0.0,0.0,0.0,0.0,0.0,0.0,0.0,0.0,0.0,0.0,0.0,0.0,0.0,0.0,0.0,0.0,0.0,0.0,0.0,0.0,0.0,0.0,0.0,0.0,0.0,0.0,0.0,0.0,0.0,0.0,0.0,0.0,0.0,0.0,0.0,0.0,0.0,0.0,0.0,0.0,0.0,0.0,0.0,0.0,0.0,0.0,0.0,0.0,0.0,0.0,0.0,0.0,0.0,0.0,0.0,0.0,0.0,0.0,0.0,0.0,0.0,0.0,0.0,0.0,0.0,0.0,0.0,0.0,0.0,0.0,0.0,0.0,0.0,0.0,0.0,0.0,0.0,0.0,0.0,0.0,0.0,0.0,0.0,0.0,0.0,0.0,0.0,0.0,0.0,0.0,0.0,0.0,0.0,0.0,0.0,0.0,0.0,0.0,0.0,0.0,0.0,0.0,0.0,0.0,0.0,0.0,0.0,0.0,0.0,0.0,0.0,0.0,0.0,0.0,0.0,0.0,0.0,0.0,0.0,0.0,0.0,0.0,0.0,0.0,0.0,0.0,0.0,0.0,0.0,0.0,0.0,0.0,0.0,0.0,0.0,0.0,0.0,0.0,0.0,0.0,0.0,0.0,0.0,0.0,0.0,0.0,0.0,0.0,0.0,0.0,0.0,0.0,0.0,0.0,0.0,0.0,0.0,0.0,0.0,0.0,0.0,0.0,0.0,0.0,0.0,0.0,0.0,0.0,0.0,0.0,0.0,0.0,0.0,0.0,0.0,0.0,0.0,0.0,0.0,0.0,0.0,0.0,0.0,0.0,0.0,0.0,0.0,0.0,0.0,0.0,0.0,0.0,0.0,0.0,0.0,0.0,0.0,0.0,0.0,0.0,0.0,0.0,0.0,0.0,0.0,0.0,0.0,0.0,0.0,0.0,0.0,0.0,0.0,0.0,0.0,0.0,0.0,0.0,0.0,0.0,0.0,0.0,0.0,0.0,0.0,0.0,0.0,0.0,0.0,0.0,0.0,0.0,0.0,0.0,0.0,0.0,0.0,0.0,0.0,0.0,0.0,0.0,0.0,0.0,0.0,0.0,0.0,0.0,0.0,0.0,0.0,0.0,0.0,0.0,0.0,0.0,0.0,0.0,0.0,0.0,0.0,0.0,0.0,0.0,0.0,0.0,0.0,0.0,0.0,0.0,0.0,0.0,0.0,0.0,0.0,0.0,0.0,0.0,0.0,0.0,0.0,0.0,0.0,0.0,0.0,0.0,0.0,0.0,0.0,0.0,0.0,0.0,0.0,0.0,0.0,0.0,0.0,0.0,0.0,0.0,0.0,0.0,0.0,0.0,0.0,0.0,0.0,0.0,0.0,0.0,0.0,0.0,0.0,0.0,0.0,0.0,0.0,0.0,0.0,0.0,0.0,0.0,0.0,0.0,0.0,0.0,0.0,0.0,0.0,0.0,0.0,0.0,0.0,0.0,0.0,0.0,0.0,0.0,0.0,0.0,0.0,0.0,0.0,0.0,0.0,0.0,0.0,0.0,0.0,0.0,0.0,0.0,0.0,0.0,0.0,0.0,0.0,0.0,0.0,0.0,0.0,0.0,0.0,0.0,0.0,0.0,0.0,0.0,0.0,0.0,0.0,0.0,0.0,0.0,0.0,0.0,0.0,0.0,0.0,0.0,0.0,0.0,0.0,0.0,0.0,0.0,0.0,0.0,0.0,0.0,0.0,0.0,0.0,0.0,0.0,0.0,0.0,0.0,0.0,0.0,0.0,0.0,0.0,0.0,0.0,0.0,0.0,0.0,0.0,0.0,0.0,0.0,0.0,0.0,0.0,0.0,0.0,0.0,0.0,0.0,0.0,0.0,0.0,0.0,0.0,0.0,0.0,0.0,0.0,0.0,0.0,0.0,0.0,0.0,0.0,0.0,0.0,0.0,0.0,0.0,0.0,0.0,0.0,0.0,0.0,0.0,0.0,0.0,0.0,0.0,0.0,0.0,0.0,0.0,0.0,0.0,0.0,0.0,0.0,0.0,0.0,0.0,0.0,0.0,0.0,0.0,0.0,0.0,0.0,0.0,0.0,0.0,0.0,0.0,0.0,0.0,0.0,0.0,0.0,0.0,0.0,0.0,0.0,0.0,0.0,0.0,0.0,0.0,0.0,0.0,0.0,0.0,0.0,0.0,0.0,0.0,0.0,0.0,0.0,0.0,0.0,0.0,0.0,0.0,0.0,0.0,0.0,0.0,0.0,0.0,0.0,0.0,0.0,0.0,0.0,0.0,0.0,0.0,0.0,0.0,0.0,0.0,0.0,0.0,0.0,0.0,0.0,0.0,0.0,0.0,0.0,0.0,0.0,0.0,0.0,0.0,0.0,0.0,0.0,0.0,0.0,0.0,0.0,0.0,0.0,0.0,0.0,0.0,0.0,0.0,0.0,0.0,0.0,0.0,0.0,0.0,0.0,0.0,0.0,0.0,0.0,0.0,0.0,0.0,0.0,0.0,0.0,0.0,0.0,0.0,0.0,0.0,0.0,0.0,0.0,0.0,0.0,0.0,0.0,0.0,0.0,0.0,0.0,0.0,0.0,0.0,0.0,0.0,0.0,0.0,0.0,0.0,0.0,0.0,0.0,0.0,0.0,0.0,0.0,0.0,0.0,0.0,0.0,0.0,0.0,0.0,0.0,0.0,0.0,0.0,0.0,0.0,0.0,0.0,0.0,0.0,0.0,0.0,0.0,0.0,0.0,0.0,0.0,0.0,0.0,0.0,0.0,0.0,0.0,0.0,0.0,0.0,0.0,0.0,0.0,0.0,0.0,0.0,0.0,0.0,0.0,0.0,0.0,0.0,0.0,0.0,0.0,0.0,0.0,0.0,0.0,0.0,0.0,0.0,0.0,0.0,0.0,0.0,0.0,0.0,0.0,0.0,0.0,0.0,0.0,0.0,0.0,0.0,0.0,0.0,0.0,0.0,0.0,0.0,0.0,0.0,0.0,0.0,0.0,0.0,0.0,0.0,0.0,0.0,0.0,0.0,0.0,0.0,0.0,0.0,0.0,0.0,0.0,0.0,0.0,0.0,0.0,0.0,0.0,0.0,0.0,0.0,0.0,0.0,0.0,0.0,0.0,0.0,0.0,0.0,0.0,0.0,0.0,0.0,0.0,0.0,0.0,0.0,0.0,0.0,0.0,0.0,0.0,0.0,0.0,0.0,0.0,0.0,0.0,0.0,0.0,0.0,0.0,0.0,0.0,0.0,0.0,0.0,0.0,0.0,0.0,0.0,0.0,0.0,0.0,0.0,0.0,0.0,0.0,0.0,0.0,0.0,0.0,0.0,0.0,0.0,0.0,0.0,0.0,0.0,0.0,0.0,0.0,0.0,0.0,0.0,0.0,0.0,0.0,0.0,0.0,0.0,0.0,0.0,0.0,0.0,0.0,0.0,0.0,0.0,0.0,0.0,0.0,0.0,0.0,0.0,0.0,0.0,0.0,0.0,0.0,0.0,0.0,0.0,0.0,0.0,0.0,0.0,0.0,0.0,0.0,0.0,0.0,0.0,0.0,0.0,0.0,0.0,0.0,0.0,0.0,0.0,0.0,0.0,0.0,0.0,0.0,0.0,0.0,0.0,0.0,0.0,1.9512,0.0,0.0,0.0,0.0,0.0,0.0,0.0,0.0,0.0,0.0,0.0,0.0,0.0,0.0,0.0,0.0,0.0,0.0,0.0,0.0,0.0,0.0,0.0,0.0,0.0,0.0,0.0,0.0,0.0,0.0,0.0,0.0,0.0,0.0,0.0,0.0,0.0,0.0,0.0,2.6809,2.5828,2.5192,2.6367,2.8225,3.0471,0.0,0.0,0.0,0.0,0.0,0.0,0.0,0.0,0.0,0.0,0.0,0.0,0.0,0.0,0.0,0.0,0.0,0.0,0.0,0.0,0.0,0.0,0.0,0.0,0.0,0.0,0.0,0.0,0.0,0.0,0.0,0.0,0.0,0.0,0.0,0.0,0.0,0.0,0.0,0.0,0.0,0.0,0.0,0.0,0.0,0.0,0.0,0.0,0.0,0.0,0.0,0.0,0.0,0.0,0.0,0.0,0.0,0.0,0.0,0.0,0.0,0.0,0.0,0.0,0.0,0.0,0.0,0.0,0.0,0.0,0.0,1.6584,0.0,0.0,0.0,0.0,0.0,0.0,0.0,0.0,0.0,0.0,0.0,0.0,0.0,0.0,0.0,0.0,0.0,0.0,0.0,0.0,0.0,0.0,0.0,0.0,0.0,0.0,0.0,0.0,0.0,0.0,0.0,0.0,0.0,0.0,0.0,2.7867,2.7033,2.6604,2.4658,2.24,1.9866,1.9524,2.1021,2.4038,2.6316,0.0,0.0,0.0,0.0,0.0,0.0,0.0,0.0,0.0,0.0,0.0,0.0,0.0,0.0,0.0,0.0,0.0,0.0,0.0,0.0,0.0,0.0,0.0,0.0,0.0,0.0,0.0,0.0,0.0,0.0,0.0,0.0,0.0,0.0,0.0,0.0,0.0,0.0,0.0,0.0,0.0,0.0,0.0,0.0,0.0,0.0,0.0,0.0,0.0,0.0,0.0,0.0,0.0,0.0,0.0,0.0,0.0,0.0,0.0,0.0,0.0,0.0,0.0,0.2135,0.1645,0.0868,-0.0194,-0.029,0.0673,0.6823,1.0184,1.1254,0.0,0.0,0.0,0.0,0.0,0.0,0.0,0.0,0.0,0.0,0.0,0.0,0.0,0.0,0.0,0.0,0.0,0.0,0.0,0.0,0.0,0.0,3.161,3.1495,3.1879,3.1204,3.0925,0.0,0.0,0.0,0.0,0.0,0.0,0.0,2.6519,2.546,2.3509,2.0292,1.6796,1.3146,1.1403,0.9731,0.8564,1.739,2.2482,2.4337,0.0,0.0,0.0,0.0,0.0,0.0,0.0,0.0,0.0,0.0,0.0,0.0,0.0,0.0,0.0,0.0,0.0,0.0,0.0,0.0,0.0,0.0,0.0,0.0,0.0,0.0,0.0,0.0,0.0,0.0,0.0,0.0,0.0,0.0,0.0,0.0,0.0,0.0,0.0,0.0,0.0,2.1443,2.1205,0.0,0.0,0.0,0.0,0.0,0.0,0.0,0.0,0.0,0.0,0.0,0.0,0.0,0.0,0.0738,-0.0185,-0.1115,-0.2133,-0.3071,-0.3994,-0.489,-0.5937,-0.6765,-0.7363,-0.5522,0.0,0.3789,0.4636,0.0,0.0,0.0,0.0,0.0,0.0,0.0,0.0,0.0,0.0,0.0,0.0,0.0,0.0,0.0,0.0,0.0,0.0,0.0,0.0,0.0,3.1043,3.0984,3.1146,3.0478,3.0129,3.0358,0.0,0.0,0.0,0.0,2.6557,2.6327,2.459,2.2094,1.8768,1.5831,1.2619,0.9029,0.4798,0.1793,0.0064,0.2273,0.594,1.0615,1.2497,0.0,0.0,0.0,0.0,0.0,0.0,0.0,0.0,0.0,0.0,0.0,0.0,0.0,0.0,0.0,0.0,0.0,0.0,0.0,0.0,0.0,0.0,0.0,0.0,0.0,0.0,0.0,0.0,0.0,0.0,0.0,0.0,0.0,0.0,0.0,0.0,0.0,0.0,0.0,1.9277,1.8124,1.7063,1.5074,1.3276,0.0,0.0,0.0,0.0,0.0,0.0,0.0,0.0,0.0,-0.3815,-0.4232,-0.5248,-0.6748,-0.7135,-0.7822,-0.8804,-1.0595,-1.1912,-1.2735,-1.4566,-1.5606,-1.5964,-1.5553,-1.3765,-1.0588,-0.4331,-0.2049,-0.2409,0.0,0.0,0.0,0.0,0.0897,0.1676,0.0,0.0,0.0,0.0,0.0,0.0,0.0,0.0,0.0,0.0,0.0,0.0,3.0642,3.0447,3.0387,3.0568,2.9794,2.9421,2.9623,2.826,0.0,0.0,0.0,2.5264,2.5097,2.188,1.8276,1.4358,1.1271,0.7812,0.3852,-0.2044,-0.5728,-0.7597,-1.1262,-0.8485,-0.0835,0.1688,0.2753,0.3249,0.0,0.0,0.0,0.0,0.0,0.0,0.0,0.0,0.0,0.0,0.0,0.0,0.0,0.0,0.0,0.0,0.0,0.0,0.0,0.0,0.0,0.0,0.0,0.0,0.0,0.0,0.0,0.0,0.0,0.0,0.0,0.0,0.0,0.0,0.0,0.0,0.0,1.538,1.3993,1.2603,1.0582,0.8493,0.0,0.0,0.0,0.0,0.0,0.0,-0.5507,-0.7274,-0.8873,-1.0284,-1.026,-1.1337,-1.3649,-1.3642,-1.4449,-1.5991,-1.7725,-1.9009,-1.9863,-2.1613,-2.2443,-2.2544,-2.2321,-2.2269,-2.1746,-1.3336,-1.0262,-1.0737,-0.9874,-0.9464,-0.9371,-0.8512,-0.824,-0.8146,0.0,0.0,0.0,0.0,0.0,0.0,0.0,0.0,0.0,0.0,0.0,3.028,3.0582,3.0007,2.9931,3.0507,2.9345,2.8826,2.9546,2.826,2.7191,2.6463,2.5697,2.4241,2.1975,1.7994,1.4248,1.0936,0.6675,0.1556,-0.444,-0.9839,-1.3834,-1.6549,-1.9504,-1.4868,-0.4756,-0.3778,-0.1122,0.2729,0.6294,0.0,0.0,0.0,0.0,0.0,0.0,0.0,0.0,0.0,0.0,0.0,0.0,0.0,0.0,0.0,0.0,0.0,0.0,0.0,0.0,0.0,0.0,0.0,0.0,0.0,0.0,0.0,0.0,0.0,0.0,0.0,0.0,0.0,0.0,0.0,0.0,0.0,0.0,0.8146,0.5235,0.0,0.0,0.0,0.0,-0.477,-0.7107,-0.9185,-1.1107,-1.2656,-1.36,-1.3671,-1.3684,-1.5169,-1.8402,-1.847,-2.0041,-2.3175,-2.3309,-2.3819,-2.464,-2.4782,-2.5026,-2.5347,-2.4518,-2.4403,-2.461,-2.1852,-2.0743,-2.0719,-2.0221,-2.0033,-1.9989,-1.9487,-1.9452,-1.9564,0.0,0.0,0.0,0.0,0.0,0.0,0.0,0.0,0.0,3.045,3.0266,2.9988,2.9651,2.9637,2.9484,2.9268,2.8376,2.7999,2.826,2.6588,2.5524,2.524,2.3293,2.074,1.7553,1.4842,1.1438,0.7454,0.2415,-0.3003,-0.8815,-1.5056,-1.9302,-2.1738,-2.3403,-2.114,-1.5898,-1.3646,-1.1897,-1.0218,-0.6054,-0.2034,0.0,0.0,0.0,0.0,0.0,0.0,0.0,0.0,0.0,0.0,0.0,0.0,0.0,0.0,0.0,0.0,0.0,0.0,0.0,0.0,0.0,0.0,0.0,0.0,0.0,0.0,0.0,0.0,0.0,0.0,0.0,0.0,0.0,0.0,0.0,0.0,0.0,0.4599,0.2128,0.0,-0.133,-0.3896,-0.6361,-0.8265,-1.068,-1.3314,-1.6113,-1.7318,-1.8896,-2.0986,-2.103,-2.1739,-2.3142,-2.3168,-2.3637,-2.4545,-2.6027,-2.6892,-2.7227,-2.8312,-2.8882,-2.8955,-2.8237,-2.7995,-2.8076,-2.724,-2.5384,-2.2987,-2.2395,-2.2155,-2.2127,-2.1969,-2.1951,-2.2009,0.0,0.0,0.0,0.0,0.0,0.0,0.0,0.0,0.0,2.9856,2.9837,2.9602,2.9162,2.9058,2.8903,2.8556,2.767,2.7206,2.721,2.5573,2.4422,2.3958,2.1129,1.8104,1.5021,1.2242,0.8696,0.4278,-0.1895,-0.7502,-1.2577,-1.9093,-2.2901,-2.4316,-2.4867,-2.3658,-2.0997,-1.7909,-1.6262,-1.5456,-1.1702,-0.7805,-0.3707,0.0,0.0,0.0,0.0,0.0,0.0,0.0,0.0,0.0,0.0,0.0,0.0,0.0,0.0,0.0,0.0,0.0,0.0,0.0,0.0,0.0,0.0,0.0,0.0,0.0,0.0,0.0,0.0,0.0,0.0,0.0,0.0,0.0,0.0,0.0,0.4526,0.1956,-0.0178,-0.2225,-0.4351,-0.6987,-0.9425,-1.1315,-1.4352,-1.7106,-1.9584,-2.1316,-2.3139,-2.5125,-2.5213,-2.5619,-2.6543,-2.6542,-2.6816,-2.7364,-2.8863,-2.9472,-2.9293,-3.0387,-3.0675,-3.0303,-2.9563,-2.9191,-2.9032,-2.8534,-2.6734,-2.4376,-2.4837,-2.5039,-2.5002,-2.4838,-2.4893,-2.5039,0.0,0.0,0.0,0.0,0.0,0.0,0.0,2.9296,2.947,2.954,2.9289,2.9099,2.9099,2.8403,2.8117,2.8427,2.7297,2.654,2.6661,2.5348,2.389,2.2525,1.9309,1.6626,1.4566,1.0264,0.5938,0.1579,-0.6149,-1.1946,-1.601,-2.1967,-2.469,-2.4563,-2.4047,-2.2115,-1.9109,-1.5881,-1.3516,-1.1605,-0.9639,-0.7021,-0.42,0.0,0.0,0.0,0.0,0.0,0.0,0.0,0.0,0.0,0.0,0.0,0.0,0.0,0.0,0.0,0.0,0.0,0.0,0.0,0.0,0.0,0.0,0.0,0.0,0.0,0.0,0.0,0.0,0.0,0.0,0.0,0.0,0.0,0.5257,0.4016,0.2323,0.0089,-0.1787,-0.4099,-0.6913,-0.907,-1.1305,-1.382,-1.7791,-2.0534,-2.1527,-2.4619,-2.6156,-2.5774,-2.5755,-2.6613,-2.8415,-2.8403,-2.9539,-3.1762,-3.1747,-3.1375,-3.0793,-3.0764,-3.0153,-2.9032,-2.8238,-2.7669,-2.718,-2.5726,-2.5097,-2.5378,-2.7996,-2.9059,-2.901,-2.8529,-2.8657,-2.9136,0.0,0.0,0.0,0.0,0.0,0.0,0.0,2.883,2.8817,2.8844,2.9035,2.8908,2.8406,2.8157,2.7868,2.7484,2.685,2.635,2.5955,2.4256,2.1945,1.8972,1.7534,1.5469,1.2318,0.8341,0.3849,-0.1049,-0.8914,-1.5266,-2.0061,-2.4068,-2.6052,-2.6128,-2.3444,-2.0466,-1.7435,-1.4946,-1.2178,-0.9352,-0.8333,-0.6587,-0.4469,0.0,0.0,0.0,0.0,0.0,0.0,0.0,0.0,0.0,0.0,0.0,0.0,0.0,0.0,0.0,0.0,0.0,0.0,0.0,0.0,0.0,0.0,0.0,0.0,0.0,0.0,0.0,0.0,0.0,0.0,0.0,0.0,0.331,0.2594,0.1609,-0.0089,-0.2764,-0.419,-0.6048,-0.886,-1.0588,-1.2324,-1.4328,-1.7892,-2.1089,-2.3677,-2.6041,-2.79,-2.9193,-2.923,-2.9211,-2.912,-2.8654,-2.8571,-2.8915,-2.8479,-2.8183,-2.8019,-2.7886,-2.7357,-2.6518,-2.6206,-2.5636,-2.4921,-2.3967,-2.352,-2.3666,-2.4956,-2.5517,-2.546,-2.5344,-2.5402,-2.5517,0.0,0.0,0.0,0.0,0.0,0.0,0.0,2.9149,2.8872,2.8627,2.878,2.8716,2.8145,2.8052,2.7696,2.6905,2.6578,2.6009,2.5165,2.3399,2.1311,1.902,1.7658,1.5659,1.2781,0.8341,0.3578,-0.148,-1.0794,-1.7265,-2.0966,-2.4959,-2.626,-2.503,-2.1264,-1.782,-1.4771,-1.212,-0.9311,-0.6458,-0.5053,-0.4184,-0.3578,-0.1877,-0.0535,0.1151,0.5564,1.0491,1.5746,2.1408,0.0,0.0,0.0,0.0,0.0,0.0,0.0,0.0,0.0,0.0,0.0,0.0,0.0,0.0,0.0,0.0,0.0,0.0,0.0,0.0,0.0,0.0,0.0,0.0,0.3129,0.1971,0.0538,0.0268,-0.0981,-0.3922,-0.5298,-0.7094,-1.0123,-1.174,-1.328,-1.5042,-1.9121,-2.2459,-2.4587,-2.7373,-2.934,-3.0264,-3.0143,-2.9803,-2.9127,-2.8453,-2.8039,-2.7778,-2.7189,-2.6769,-2.6404,-2.6086,-2.5523,0.0,-2.407,-2.3276,-2.254,-2.1722,-2.1198,0.0,0.0,0.0,0.0,0.0,-2.3572,-2.3847,0.0,0.0,0.0,0.0,0.0,0.0,0.0,3.01,2.9383,2.8784,2.8651,2.8471,2.821,2.8145,2.7736,2.6918,2.655,2.5815,2.4595,2.297,2.1742,2.1105,1.908,1.6905,1.4814,0.9464,0.4342,-0.0693,-1.1858,-1.8154,-1.9888,-2.4951,-2.561,-2.2407,-1.844,-1.4775,-1.1376,-0.8406,-0.5553,-0.2926,-0.0888,-0.0802,-0.1698,0.089,0.2748,0.4389,0.7998,1.2074,1.6493,2.0884,0.0,0.0,0.0,0.0,0.0,0.0,0.0,0.0,0.0,0.0,0.0,0.0,0.0,0.0,0.0,0.0,0.0,0.0,0.0,0.0,0.0,0.0,0.0,0.0,0.1611,0.0805,-0.0805,-0.0534,-0.1243,-0.4172,-0.5645,-0.7766,-1.0985,-1.2536,-1.4093,-1.5731,-2.0548,-2.3724,-2.4499,0.0,0.0,0.0,0.0,-2.8891,-2.8407,-2.7696,-2.7335,-2.7262,-2.6671,-2.5993,-2.5252,-2.4697,-2.4091,-2.3364,-2.2058,-2.1026,-2.0298,-1.9374,-1.858,-1.8128,-2.0357,-2.1251,-2.1275,-2.1637,-2.2237,-2.2863,0.0,0.0,0.0,0.0,0.0,0.0,0.0,3.0779,3.0121,2.9415,2.8881,2.8587,2.8522,2.8276,2.8013,2.7881,2.7498,2.6575,2.4915,2.397,2.2935,2.1779,2.0542,1.8521,1.565,1.0406,0.4915,-0.0693,-1.1527,-1.7581,-1.9126,-2.4449,-2.4755,-2.0642,-1.715,-1.2713,-0.7851,-0.6103,-0.2712,0.1583,0.2204,0.2123,0.1774,0.3869,0.6356,0.9185,1.3509,1.6632,1.9864,2.7842,2.9913,2.9674,3.2691,3.2331,0.0,0.0,0.0,0.0,0.0,0.0,0.0,0.0,0.0,0.0,0.0,0.0,0.0,0.0,0.0,0.0,0.0,0.0,0.0,0.2327,0.0268,-0.1335,-0.0964,-0.2698,-0.4426,-0.5806,-0.6968,-0.8781,-1.1739,-1.2791,-1.3975,-1.5527,-1.8921,-2.167,-2.3461,-2.5729,0.0,-2.8256,-2.7742,-2.7132,-2.6479,-2.5374,-2.4537,-2.3893,0.0,0.0,-2.2048,-2.2309,-2.205,-2.1386,-2.0925,-2.0226,-1.9456,-1.7999,-1.696,-1.6362,-1.8136,-1.8862,-1.8853,-1.8915,-1.9116,-1.918,0.0,0.0,0.0,0.0,0.0,0.0,0.0,3.215,3.1147,3.0192,2.9491,2.8944,2.8651,2.8471,2.8262,2.8,2.7328,2.662,2.5864,2.5148,2.4554,2.4143,2.2747,2.0827,1.8572,1.394,0.8593,0.2392,-0.863,-1.4852,-1.6509,-2.1839,-2.161,-1.6393,-1.231,-0.7631,-0.2766,-0.0606,0.2344,0.567,0.745,0.8446,0.8937,0.9039,1.0543,1.3352,1.8981,2.2309,2.5062,3.2342,3.4202,3.379,3.5741,3.4638,3.1683,0.0,0.0,0.0,0.0,0.0,0.0,0.0,0.0,0.0,0.0,0.0,0.0,0.0,0.0,0.3826,0.0,0.0,0.0446,0.0626,-0.0887,-0.2281,-0.286,-0.4324,-0.5616,-0.6421,-0.7796,-0.9632,-1.1944,-1.2886,-1.3954,-1.5315,-1.9081,-2.1839,-2.3087,-2.5785,-2.7491,-2.7871,-2.7151,-2.6453,-2.5893,-2.4694,-2.393,-2.3551,-2.2592,-2.1916,-2.1565,-2.1172,-2.0621,-1.9846,-1.9455,-1.8424,-1.7,-1.5569,-1.4703,-1.4403,-1.52,-1.622,-1.7133,-1.6859,-1.6854,-1.704,0.0,0.0,0.0,0.0,0.0,0.0,0.0,0.0,3.2402,3.1131,3.0324,2.9659,2.9022,2.8958,2.8817,2.8338,2.7327,2.6804,2.7063,2.6295,2.6022,2.6557,2.4874,2.3274,2.1914,1.8082,1.3313,0.764,-0.2748,-0.8315,-0.9381,-1.441,-1.3774,-0.8326,-0.4276,-0.0253,0.3768,0.6108,0.8353,1.0653,1.2991,1.5145,1.6748,1.5582,1.6031,1.806,2.4201,2.7728,3.0365,3.5363,3.7053,3.713,3.7641,3.5793,3.2911,2.9933,2.6155,0.0,0.0,0.0,0.0,0.0,0.0,0.0,0.0,0.0,0.4739,0.3491,0.2677,0.1962,0.1254,0.0089,-0.0713,-0.0712,-0.1753,-0.3023,-0.4274,-0.529,-0.6157,-0.6718,-0.8392,-1.0113,-1.1884,-1.279,-1.381,-1.5196,-1.9333,-2.2184,-2.3015,-2.6227,-2.7981,-2.7917,-2.696,-2.6201,-2.5715,-2.4523,-2.3826,-2.3695,-2.247,-2.1854,-2.1667,-2.0333,-1.9354,-1.8736,-1.7804,-1.6192,-1.4212,-1.3091,-1.2592,-1.2439,-1.2439,-1.3376,-1.4835,-1.4887,-1.5072,-1.5227,0.0,0.0,0.0,0.0,0.0,0.0,0.0,0.0,0.0,3.2437,3.1716,3.1011,3.0341,3.0283,3.0269,3.0208,2.8643,2.7906,2.842,2.7419,2.6896,2.7082,2.6283,2.5305,2.4225,2.0831,1.7827,1.5115,0.8272,0.5852,0.75,0.3447,0.3624,0.7368,0.8141,0.9997,1.2674,1.2643,1.4634,1.7847,1.7535,1.9345,2.2555,2.3757,2.4266,2.4843,2.8781,3.1576,3.3877,3.7,3.8165,3.8205,3.7637,3.6584,3.4727,3.0379,2.6733,2.2891,1.714,1.2373,0.8757,0.7544,0.7285,0.7024,0.0,0.0,0.3401,0.4022,0.2594,0.1254,0.1076,-0.0537,-0.1424,0.0263,-0.2347,-0.402,-0.2627,-0.51,-0.7209,-0.7378,-0.8516,-0.9954,-1.1602,-1.2445,-1.3578,-1.5321,-1.8099,-2.0752,-2.3145,-2.5234,-2.6824,-2.7844,-2.6747,-2.5807,-2.5133,-2.3813,-2.2932,-2.2286,-2.1553,-2.0933,-2.0291,-1.889,-1.8162,-1.8017,-1.6062,-1.406,-1.2037,-1.1903,-1.1366,-1.0679,-1.0679,-1.0565,-1.0541,-1.2486,-1.3236,-1.3221,0.0,0.0,0.0,0.0,0.0,0.0,0.0,0.0,0.0,0.0,3.2749,3.1808,3.1166,3.0742,3.0524,3.0524,2.9842,2.9456,2.9737,2.9303,2.9066,2.9129,2.8643,2.7943,2.7026,2.4969,2.2661,2.0228,1.3933,1.159,1.2893,0.9311,0.9868,1.3984,1.5636,1.7754,2.0023,2.0478,2.1711,2.3473,2.4097,2.5456,2.7323,2.9291,3.0561,3.1451,3.2688,3.4084,0.0,3.8155,3.9204,3.9381,3.9076,3.8098,3.6622,3.436,3.0578,2.5702,1.9363,1.4852,1.1483,0.9761,0.9026,0.8341,0.6851,0.5877,0.5343,0.5166,0.2945,0.1431,0.2504,0.0088,-0.1489,0.0,-0.1612,-0.3483,-0.3812,-0.5108,-0.6376,-0.7395,-0.8389,-0.9539,-1.1037,-1.2131,-1.3426,-1.4863,-1.7699,-2.0559,-2.3164,-2.5078,-2.664,-2.7878,-2.6732,-2.5548,-2.4372,-2.3122,-2.2175,-2.1491,-2.0386,-1.9738,-1.941,-1.8017,-1.6678,-1.5432,-1.375,-1.2098,-1.0473,-1.0115,-0.9739,-0.9432,-0.9432,-0.9286,-0.921,-1.0479,-1.0789,-1.0496,0.0,0.0,0.0,0.0,0.0,0.0,0.0,0.0,0.0,0.0,0.0,3.2991,3.2122,3.1424,3.1072,3.0999,3.0689,3.0584,3.0763,3.0584,3.0524,3.0524,3.0269,2.9907,2.9425,2.8483,2.7197,2.5584,2.1032,1.948,2.0796,1.8147,1.8866,2.2485,2.4036,2.5626,2.7066,2.7488,2.7979,2.8635,2.9709,3.0647,3.155,3.3252,3.4932,3.6374,3.5682,3.6127,3.7265,3.8992,3.9867,4.0188,4.0108,3.9219,3.8061,3.7369,3.2871,2.7032,2.1778,1.802,1.5083,1.2946,1.2146,1.1256,0.9198,0.8368,0.7785,0.6913,0.4698,0.3197,0.4009,0.1488,-0.0345,0.0858,-0.0498,-0.2099,-0.3278,-0.3934,-0.4743,-0.5976,-0.7057,-0.8138,-0.9427,-1.1298,-1.2997,-1.4148,-1.7221,-2.0189,-2.2779,-2.4949,-2.664,-2.7878,-2.6732,-2.5479,-2.4244,-2.2797,-2.1865,-2.1376,-1.9781,-1.8916,-1.8696,-1.6651,-1.4593,-1.2556,-1.1569,-1.0323,-0.8978,-0.8304,-0.7851,-0.7621,-0.746,-0.7383,-0.7383,-0.7816,-0.8291,-0.8775,0.0,0.0,0.0,0.0,0.0,0.0,0.0,0.0,0.0,0.0,0.0,0.0,0.0,0.0,3.2402,3.2333,3.1218,3.0763,3.1422,3.0881,3.0524,3.0524,3.0524,3.0644,3.0955,3.0749,3.114,3.2017,3.1673,3.3006,3.5822,3.4929,3.5227,3.6423,3.5211,3.4421,3.3916,3.2782,3.2815,3.3524,3.3203,3.3964,3.537,3.5711,3.708,3.8652,3.7526,3.7922,3.9077,3.9485,3.9996,4.0419,4.0116,3.9528,3.8783,3.7839,3.2007,2.541,2.3671,2.0946,1.8248,1.6639,1.6415,1.5903,1.33,1.1506,1.0167,0.9502,0.8356,0.6957,0.5323,0.3832,0.2815,0.2694,0.0984,0.008,0.0939,-0.101,-0.256,-0.2637,-0.4108,-0.5428,0.0,-0.9632,-1.2144,-1.3164,-1.6418,-1.9382,-2.1816,-2.4594,-2.664,-2.7878,-2.6732,-2.5739,-2.4951,-2.305,-2.2113,-2.2039,-1.9966,-1.8685,-1.8024,-1.4537,-1.1765,-0.9718,-0.9718,-0.8827,-0.748,-0.6615,-0.5844,-0.5002,-0.4219,-0.3986,-0.3984,-0.3986,-0.5992,-0.8703,0.0,0.0,0.0,0.0,0.0,0.0,0.0,0.0,0.0,0.0,0.0,0.0,0.0,0.0,0.0,0.0,3.2646,3.2334,3.2135,3.2226,3.229,3.229,3.2617,3.2886,3.3008,3.2961,3.3419,3.4492,3.4459,3.5437,3.734,3.7359,3.7871,3.8752,3.8573,3.8325,3.8035,3.7376,3.7042,3.6978,3.6885,3.7128,3.7608,3.8211,3.8804,3.9362,0.0,3.9624,4.0051,4.0165,4.0474,4.0797,4.0599,4.0281,3.9675,3.8082,3.5699,3.2897,2.9664,2.6803,2.4217,2.1968,2.0155,1.8646,1.7755,1.6158,1.4746,1.4501,1.2344,1.0439,1.0474,0.7907,0.5909,0.6223,0.4581,0.3051,0.2563,0.1396,0.0388,-0.0155,-0.1546,0.0,0.0,0.0,0.0,-1.1403,-1.3632,-1.6084,-1.8718,-2.1685,-2.3874,-2.508,-2.6114,-2.5683,-2.3612,-2.2566,-2.1158,-1.9323,-1.6725,-1.511,-1.4332,-1.2191,-1.037,-0.8732,-0.7546,-0.6256,-0.4905,-0.3496,-0.2719,-0.2489,-0.2178,-0.2101,-0.2101,-0.2101,-0.2795,-0.3874,0.0,0.0,0.0,0.0,0.0,0.0,0.0,0.0,0.0,0.0,0.0,0.0,0.0,0.0,0.0,0.0,0.0,3.3519,3.3084,3.334,3.3511,3.3511,3.3818,3.3986,3.3986,3.4185,3.4719,3.5559,3.5752,3.651,3.7774,3.8193,3.8826,3.9577,4.0023,4.0232,4.0207,3.9965,3.9616,3.9251,3.9369,3.9339,3.9297,3.9851,4.0032,0.0,4.0372,4.0524,4.0588,4.0622,4.0752,4.0879,4.0878,4.0744,4.0324,3.8931,3.8178,3.7228,3.4501,3.2175,3.0099,2.8074,2.5794,2.3884,2.3264,2.151,1.9969,1.9374,1.7354,1.5488,1.488,1.2571,1.0483,0.9807,0.822,0.6684,0.5838,0.4854,0.394,0.309,0.1927,0.0771,0.0,0.0,0.0,-0.9055,-1.1403,-1.3776,-1.6232,-1.8935,-2.1405,-2.3621,-2.4863,-2.4631,-2.2849,-2.2006,-1.991,-1.6444,-1.325,-1.1144,-1.0074,-0.8178,-0.6598,-0.5396,-0.4072,-0.3003,-0.2094,-0.0698,-0.0078,-0.0078,0.0233,0.0311,0.0311,0.0311,0.0311,-0.0,0.0,0.0,0.0,0.0,0.0,0.0,0.0,0.0,0.0,0.0,0.0,0.0,0.0,0.0,0.0,0.0,0.0,0.0,3.4288,3.4166,3.4084,3.4084,3.4102,3.4086,3.4086,3.4625,3.5128,3.5593,3.6079,3.6838,3.7739,3.8186,3.8776,3.9482,4.0023,4.0358,4.0583,4.0661,4.0594,4.0449,4.0615,4.059,4.0437,4.062,4.0683,4.0701,4.0701,4.0691,4.0719,4.0848,4.0815,4.0737,4.0933,4.0896,4.0725,4.0323,3.9315,3.824,3.783,3.6783,3.5498,3.4483,3.3003,3.1306,2.951,2.7487,2.5537,2.3985,2.3267,2.194,0.0,0.0,1.6181,1.3474,1.184,1.0863,1.0677,0.9255,0.7988,0.0,0.0,0.0,0.0,0.0,0.0,-0.5613,0.0,-1.216,-1.4015,-1.6166,-1.9102,-2.2944,-2.2316,-2.2183,-2.2681,-2.1205,-1.7969,-1.3014,-0.9443,-0.6922,-0.5307,-0.2536,-0.0848,-0.0077,0.054,0.0846,0.0924,0.1855,0.2246,0.2325,0.3108,0.3422,0.3422,0.3501,0.3501,0.3112,0.0,0.0,0.0,0.0,0.0,0.0,0.0,0.0,0.0,0.0,0.0,0.0,0.0,0.0,0.0,0.0,0.0,0.0,3.515,3.5337,3.5514,3.5514,3.5274,3.5178,3.5178,3.5661,3.6122,3.6545,3.6999,3.7487,3.8072,3.8186,3.856,3.9133,3.9357,3.9808,4.038,4.0493,4.0615,4.0707,4.0705,4.0696,4.0696,4.0643,4.0634,4.0621,4.0621,4.0626,4.0645,4.0719,4.0788,4.0852,4.0843,4.0827,4.0742,4.0442,4.0181,3.9884,3.9499,3.8737,3.7931,3.7459,3.5668,3.388,3.3373,3.1295,2.929,2.8552,2.7077,2.5564,0.0,0.0,0.0,1.8714,1.6844,0.0,1.4447,1.3035,0.0,1.1814,0.0,0.9553,0.8551,0.7668,0.0,0.0,-0.1346,-0.5012,-0.6006,-1.0303,-1.3265,-1.4427,-1.1551,-1.3696,-2.1361,-1.6999,-1.1281,-0.448,-0.1934,-0.0548,-0.0079,0.1485,0.2343,0.2579,0.377,0.428,0.4358,0.5848,0.6481,0.6558,0.7303,0.7677,0.7765,0.8637,0.8909,0.8779,0.0,0.0,0.0,0.0,0.0,0.0,0.0,0.0,0.0,0.0,0.0,0.0,0.0,0.0,0.0,0.0,0.0,0.0,0.0,3.6736,3.6848,3.6848,3.638,3.6129,3.6129,3.6059,3.6199,3.6638,3.7055,3.7469,3.7898,3.8204,3.8523,3.8886,3.9034,3.9438,4.0001,4.0095,4.0273,0.0,0.0,4.0505,4.052,4.0449,4.0414,4.0386,4.0386,4.0336,4.0317,0.0,0.0,4.0743,4.0649,4.0657,4.0676,4.054,4.0545,4.0545,4.0264,3.9872,3.9464,3.9038,3.7908,3.668,3.6048,3.4592,3.3129,3.2305,3.1049,2.9697,2.8374,2.6507,0.0,0.0,0.0,0.0,1.835,1.7213,1.6201,0.0,1.4721,0.0,1.297,1.2206,1.1695,0.0,0.5186,0.1399,0.1477,-0.1426,-0.3304,-0.3838,-0.161,-0.2906,-0.8077,-0.3423,0.113,0.5264,0.6865,0.7846,0.8394,0.8996,0.952,1.0064,0.0,1.0775,1.0855,1.1774,1.2197,1.2197,1.2378,1.2459,1.256,1.2893,1.3037,1.2989,0.0,0.0,0.0,0.0,0.0,0.0,0.0,0.0,0.0,0.0,0.0,0.0,0.0,0.0,0.0,0.0,0.0,0.0,0.0,0.0,0.0,3.8058,3.733,3.6874,3.6772,3.6158,3.6017,3.6367,3.6781,3.7208,3.7596,3.8201,3.8523,3.867,3.8857,3.9163,3.9575,3.9626,3.9823,4.0101,4.0137,4.017,4.017,0.0,0.0,4.0061,4.0041,3.9958,3.987,0.0,4.023,4.0496,4.0406,4.0454,4.053,4.0515,4.053,4.0515,4.0386,4.037,4.0266,3.9705,3.9537,3.9186,3.7863,3.7202,3.6531,3.5233,3.4609,3.3632,3.1475,3.0223,2.8756,2.6496,0.0,2.3334,2.2353,2.1539,2.0578,1.9292,1.8564,1.7875,1.7138,1.6624,1.6573,1.7102,1.1669,0.831,0.8462,0.8152,0.8144,0.8424,0.7165,0.817,1.1643,1.3203,1.4548,1.5559,1.6213,1.7045,1.8072,1.7852,1.8321,1.9183,0.0,0.0,1.8222,1.8222,1.8161,1.8048,1.7694,1.7559,1.7622,1.7187,1.7011,1.7002,0.0,0.0,0.0,0.0,0.0,0.0,0.0,0.0,0.0,0.0,3.61,3.61,0.0,0.0,0.0,0.0,0.0,0.0,0.0,0.0,0.0,0.0,3.8108,3.7415,3.6789,3.7011,3.6972,3.6799,3.7208,3.7632,3.8088,3.8207,3.8336,3.8523,3.8585,3.8894,3.9427,3.9458,3.9683,4.0081,4.0,4.0021,4.0101,0.0,0.0,0.0,3.9739,3.967,3.9623,3.9427,3.9735,4.0195,4.0158,4.0177,4.0158,4.006,4.01,4.0195,4.0158,4.0264,4.031,3.9986,3.9745,3.9453,3.8976,3.8352,0.0,0.0,3.6059,3.543,3.4121,3.2676,3.1347,3.0288,2.8583,2.719,2.6538,2.573,2.4922,0.0,2.3035,2.2098,2.1391,0.0,0.0,0.0,0.0,1.9624,1.4665,1.3707,1.6138,2.2449,1.32,1.4961,2.9232,1.984,1.8326,2.4798,2.4436,2.4359,2.457,2.4082,2.3809,2.3567,2.3278,0.0,2.1869,2.1869,2.1613,2.1197,2.1763,2.2243,2.2674,2.3073,2.3194,2.3171,0.0,0.0,0.0,0.0,0.0,0.0,0.0,3.5733,3.5733,3.5733,3.5733,3.5797,3.5831,3.5973,3.6258,0.0,0.0,0.0,0.0,0.0,0.0,0.0,0.0,0.0,0.0,3.7767,3.7398,3.6844,0.0,3.7674,3.7541,3.7985,3.8241,3.8336,3.8336,3.8572,3.8923,3.9082,3.9331,3.9632,3.9708,3.9777,0.0,0.0,0.0,0.0,0.0,0.0,3.9219,3.9091,3.9234,3.9494,3.9595,3.9728,3.9832,3.9762,3.9785,3.9854,3.9958,3.9982,3.9925,3.9652,3.9376,3.9115,3.884,0.0,0.0,0.0,3.6985,3.6429,3.5476,3.4023,0.0,3.1935,3.0683,2.9493,2.8743,2.8326,0.0,2.7238,2.61,2.5192,0.0,0.0,0.0,0.0,0.0,2.6099,2.273,2.3888,2.664,3.1015,2.6539,2.8079,3.6476,3.0806,2.9806,3.3515,3.2002,3.1637,3.2224,3.0331,2.9699,3.0032,2.8788,0.0,2.7897,2.7636,2.7398,2.7143,2.7239,2.7248,2.7283,2.7247,2.7243,2.7229,0.0,0.0,0.0,0.0,0.0,0.0,0.0,3.5504,3.5504,3.5504,3.5504,3.5554,3.5638,3.5782,3.607,0.0,0.0,0.0,0.0,0.0,0.0,0.0,0.0,0.0,0.0,0.0,0.0,3.7131,3.787,0.0,0.0,0.0,0.0,0.0,0.0,3.8322,3.851,3.8927,3.9209,0.0,0.0,3.9937,0.0,0.0,0.0,0.0,0.0,0.0,3.8803,3.8743,3.8773,3.8844,3.8943,3.9208,3.9452,3.9452,3.9477,3.9551,3.9712,3.9689,3.9551,3.9227,3.9036,3.8789,3.846,3.8382,0.0,3.7897,3.7542,3.7058,3.619,3.4888,3.3705,0.0,3.1987,3.1043,3.0377,3.0257,3.0061,0.0,2.851,0.0,2.7659,0.0,0.0,0.0,0.0,0.0,2.9817,3.2491,3.4667,3.5962,3.7489,3.8603,3.9323,3.9512,3.9654,3.9712,3.7727,3.7308,3.8181,3.5638,3.4905,3.5635,3.3884,0.0,0.0,3.2934,3.2656,3.2484,3.2013,3.168,3.141,3.0827,3.0554,3.0582,0.0,0.0,0.0,0.0,0.0,0.0,0.0,3.5504,3.5504,3.5504,3.5504,3.5504,3.5504,3.5504,3.5831,0.0,0.0,0.0,0.0,0.0,0.0,0.0,0.0,0.0,0.0,0.0,0.0,3.8151,0.0,0.0,0.0,0.0,0.0,0.0,0.0,0.0,3.8546,3.9296,0.0,0.0,0.0,0.0,0.0,0.0,0.0,0.0,0.0,0.0,3.851,0.0,0.0,3.851,3.8336,3.859,3.895,3.895,0.0,0.0,3.9264,3.9477,3.958,3.9137,3.9082,3.9036,3.8541,0.0,3.8285,3.7897,3.7774,3.7469,3.6539,3.5436,3.4541,0.0,0.0,3.2216,3.2145,3.2145,3.1921,3.1349,0.0,0.0,2.9435,0.0,0.0,0.0,0.0,0.0,3.3301,3.4085,3.53,3.7004,3.7588,3.8562,3.9996,3.9961,4.0148,4.049,3.9672,3.9366,3.9508,3.8608,3.8071,3.7808,3.738,0.0,0.0,3.5557,3.5104,3.4585,3.4374,3.4535,3.4877,3.4329,3.4055,3.4052,0.0,0.0,0.0,0.0,0.0,0.0,3.5504,3.5504,3.5504,3.5504,3.5504,3.5504,3.5504,3.5504,3.5619,3.5879,0.0,0.0,0.0,0.0,0.0,0.0,0.0,0.0,0.0,0.0,0.0,3.8611,3.917,0.0,0.0,0.0,0.0,0.0,0.0,0.0,0.0,0.0,0.0,0.0,0.0,0.0,0.0,0.0,0.0,0.0,0.0,0.0,3.8943,0.0,0.0,0.0,3.8225,3.834,0.0,0.0,3.8725,3.8796,3.8979,3.8998,3.8933,3.8737,3.8664,3.8541,3.8322,0.0,3.8223,3.807,3.7596,3.7132,3.6781,3.5664,3.4624,0.0,0.0,0.0,3.2453,3.2398,3.2342,3.2048,3.1454,0.0,0.0,0.0,0.0,0.0,0.0,0.0,3.5973,3.6364,3.722,3.8608,3.8803,3.9362,4.0318,4.0354,4.0515,4.0838,4.0526,4.0408,4.0409,3.9772,3.9361,3.9139,3.8297,0.0,0.0,3.7128,3.6872,3.6767,3.6527,3.6523,3.6549,3.6162,3.6022,3.6028,0.0,0.0,0.0,0.0,0.0,3.5504,3.5504,3.5504,3.5504,3.5504,3.5504,3.5504,3.5504,3.5504,3.5504,3.5504,3.5943,0.0,0.0,0.0,0.0,0.0,0.0,0.0,0.0,0.0,3.9546,3.8992,3.9552,3.9744,0.0,0.0,0.0,0.0,0.0,0.0,0.0,0.0,0.0,0.0,0.0,0.0,0.0,0.0,0.0,0.0,0.0,0.0,0.0,0.0,0.0,0.0,0.0,3.8192,3.8225,0.0,3.8446,3.8541,3.8725,3.8695,3.8603,3.8541,3.8401,3.8274,0.0,0.0,3.8192,3.8192,3.7613,3.7055,3.6939,3.5708,3.4592,3.407,3.3407,3.2841,3.2437,3.2398,3.2398,0.0,0.0,0.0,0.0,0.0,0.0,0.0,0.0,0.0,0.0,3.8013,3.8554,3.9377,3.9599,3.9927,4.0404,4.0607,4.0771,4.0976,4.0915,4.0914,4.0914,4.0374,4.0096,4.0022,0.0,0.0,0.0,3.8467,3.837,3.8456,3.8248,3.8068,3.7927,3.7721,3.7623,3.7623,0.0,0.0,0.0,0.0,0.0,0.0,3.5504,3.5504,3.5504,3.5504,3.5504,3.5504,3.5504,3.5504,3.5504,3.5504,3.5504,0.0,0.0,0.0,0.0,0.0,0.0,0.0,0.0,0.0,3.9625,3.9484,4.007,4.048,4.059,4.0717,4.0864,4.0967,0.0,0.0,0.0,0.0,0.0,0.0,0.0,0.0,0.0,0.0,0.0,0.0,0.0,0.0,0.0,0.0,0.0,0.0,0.0,3.8192,3.8192,3.8192,3.8336,3.851,3.8491,3.8713,3.8833,3.8572,3.851,3.8446,3.8241,3.8192,3.8192,3.8192,3.7845,3.7395,3.6978,3.5718,3.4543,3.407,3.3108,0.0,3.2398,3.2398,3.2398,0.0,0.0,0.0,0.0,0.0,0.0,0.0,0.0,0.0,0.0,3.864,3.891,3.891,3.9538,4.0005,4.0211,4.0649,4.0897,4.0901,4.0906,4.0933,4.0996,4.0568,4.043,0.0,0.0,0.0,0.0,3.9662,3.9577,3.9554,3.9293,3.9183,3.9183,3.9183,3.9152,3.9121,0.0,0.0,0.0,0.0,0.0,0.0,0.0,3.5504,3.5504,3.5504,3.5504,3.5504,3.5504,3.5504,3.5504,3.5504,3.5504,0.0,0.0,0.0,0.0,0.0,0.0,0.0,0.0,0.0,3.9098,3.9501,3.9764,4.0087,4.0497,4.0804,4.12,4.1706,4.1848,0.0,0.0,0.0,0.0,0.0,0.0,0.0,0.0,0.0,0.0,0.0,0.0,0.0,0.0,0.0,0.0,0.0,0.0,0.0,0.0,3.8192,3.8241,3.8289,3.8289,3.8372,3.8387,3.834,3.8289,3.8274,3.8207,3.8192,3.8106,3.781,3.7395,3.6978,3.6557,3.5864,3.5052,3.4119,3.3732,3.3214,0.0,0.0,0.0,3.2398,0.0,0.0,0.0,0.0,0.0,0.0,0.0,0.0,0.0,3.8725,3.9054,3.9354,3.9594,3.9854,4.0195,4.0348,4.0574,4.0892,4.0897,4.093,4.0996,4.0876,0.0,0.0,0.0,0.0,0.0,3.9927,3.9908,4.0062,3.9789,3.9789,3.9929,3.9747,3.9665,3.9665,0.0,0.0,0.0,0.0,0.0,0.0,0.0,3.5504,3.5504,3.5504,3.5504,3.5504,3.5504,3.5504,3.5504,3.5504,3.5504,0.0,0.0,0.0,0.0,0.0,0.0,0.0,0.0,3.8294,3.8645,3.9061,3.9345,3.9713,4.0087,4.0497,4.0938,4.142,4.2008,4.2315,0.0,0.0,0.0,0.0,0.0,0.0,4.2786,0.0,0.0,0.0,0.0,0.0,0.0,0.0,0.0,0.0,0.0,0.0,0.0,0.0,3.8038,3.8106,3.8192,3.8192,3.8192,3.8192,3.8192,0.0,3.8192,3.8192,3.8054,3.7596,3.717,3.6741,3.6326,3.5677,3.5008,3.4102,3.3799,3.3423,0.0,0.0,0.0,0.0,0.0,0.0,0.0,0.0,0.0,0.0,0.0,0.0,0.0,3.8803,3.9138,3.9596,3.9656,3.9826,4.008,4.0233,4.046,4.0764,4.0855,4.0908,4.0959,4.0991,0.0,0.0,0.0,0.0,0.0,4.0372,4.0425,4.0543,4.0372,4.0425,4.0543,4.0372,4.03,4.0264,0.0,0.0,0.0,0.0,0.0,0.0,0.0,3.5504,3.5504,3.5504,3.5504,3.5504,3.5504,3.5504,3.5504,3.5504,0.0,0.0,0.0,0.0,0.0,0.0,0.0,0.0,3.731,3.7879,3.8222,3.8278,3.8898,3.9325,3.9501,3.9969,4.0235,4.04,4.1276,4.1666,4.1753,0.0,0.0,0.0,0.0,0.0,0.0,0.0,0.0,0.0,0.0,0.0,0.0,0.0,0.0,0.0,0.0,0.0,0.0,0.0,0.0,0.0,0.0,3.8192,3.8192,3.814,3.814,3.8106,3.8106,3.8072,0.0,3.7469,3.7076,3.6661,3.6139,3.5316,3.4546,3.3984,3.3403,0.0,0.0,0.0,0.0,0.0,0.0,0.0,0.0,0.0,0.0,0.0,0.0,0.0,0.0,3.891,3.9138,3.9596,3.9777,3.9892,3.9935,4.0286,4.0489,4.0519,4.0777,4.09,4.0912,4.0983,0.0,0.0,0.0,0.0,0.0,4.1001,4.1001,4.1001,4.1001,4.1001,4.1001,4.1001,4.0963,4.0905,0.0,0.0,0.0,0.0,0.0,0.0,0.0,0.0,0.0,0.0,3.5504,3.5504,3.5504,3.5504,3.5504,0.0,0.0,0.0,0.0,0.0,0.0,0.0,0.0,0.0,3.66,3.6768,3.7294,3.8278,3.8463,3.8827,3.9379,3.9764,4.0087,4.0285,4.0784,4.1248,4.1709,4.1839,0.0,0.0,0.0,0.0,0.0,0.0,0.0,0.0,4.1609,4.1039,0.0,0.0,0.0,0.0,0.0,0.0,0.0,0.0,3.7613,3.7703,3.7739,0.0,3.7881,3.7578,3.7432,3.7281,0.0,3.6886,3.6768,3.6381,3.619,3.5994,3.5577,3.5321,3.4818,3.3818,3.3547,3.3355,0.0,0.0,0.0,0.0,0.0,0.0,0.0,0.0,0.0,0.0,0.0,0.0,0.0,3.891,3.9138,3.9596,3.965,3.9823,4.0139,4.0233,4.0406,4.0733,4.0855,4.0938,4.0977,4.1052,0.0,0.0,0.0,0.0,4.0996,4.0996,4.0996,4.0996,4.0996,4.0996,4.0996,4.0996,4.0996,4.0976,0.0,0.0,0.0,0.0,0.0,0.0,0.0,0.0,0.0,0.0,0.0,0.0,0.0,0.0,0.0,0.0,0.0,0.0,0.0,0.0,0.0,0.0,0.0,3.5683,3.5973,3.6258,3.689,3.7879,3.8165,3.8645,3.9325,3.9537,3.9661,3.9817,4.0187,4.0659,4.1094,4.1248,4.1338,4.1445,4.1648,0.0,0.0,0.0,0.0,0.0,4.123,4.0896,0.0,3.8734,3.8098,3.7698,0.0,0.0,0.0,0.0,3.6917,3.6939,3.6939,3.7243,3.7485,3.7246,3.6999,3.6764,3.6551,3.6493,3.6388,3.5977,0.0,3.5749,3.5274,3.4977,3.4496,3.3665,3.3303,0.0,0.0,0.0,0.0,0.0,0.0,0.0,0.0,0.0,0.0,0.0,0.0,0.0,0.0,3.891,3.9138,3.9596,3.9602,3.9703,3.9935,4.012,4.0304,4.0539,4.0758,4.0868,4.0919,4.1013,4.1038,0.0,0.0,0.0,4.1085,4.1085,4.1085,4.1085,4.1085,4.1085,4.1085,4.1085,4.1085,4.1085,0.0,0.0,0.0,0.0,0.0,0.0,0.0,0.0,0.0,0.0,0.0,0.0,0.0,0.0,0.0,0.0,0.0,0.0,0.0,0.0,0.0,0.0,0.0,3.5504,3.5504,3.6022,3.66,3.7251,3.7879,3.8479,3.9148,3.9272,3.9272,3.9325,3.9642,4.002,4.0319,4.0563,4.0563,4.0449,4.0827,0.0,0.0,0.0,0.0,0.0,0.0,0.0,0.0,3.8297,3.779,3.7708,3.5942,0.0,0.0,0.0,0.0,0.0,3.613,3.6498,3.6856,3.6878,3.6603,3.6305,3.6264,3.6264,3.6155,0.0,0.0,3.5571,3.5024,3.4513,0.0,0.0,0.0,0.0,0.0,0.0,0.0,0.0,0.0,0.0,0.0,0.0,0.0,0.0,0.0,0.0,0.0,3.891,3.9138,3.9596,3.9602,3.9602,3.9602,4.0,4.0233,4.0304,4.0646,4.081,4.0822,4.0935,4.1,0.0,0.0,0.0,4.1191,4.1191,4.1191,4.1191,4.1191,4.1191,4.1191,4.1191,4.1191,4.1191,0.0,0.0,0.0,0.0,0.0,0.0,0.0,0.0,0.0,0.0,0.0,0.0,0.0,0.0,0.0,0.0,0.0,0.0,0.0,0.0,0.0,3.5504,3.5504,3.5504,3.5504,3.5554,3.591,3.6538,3.7191,3.7822,3.8463,3.9023,3.9272,3.9272,3.9379,3.9625,3.9986,4.0037,4.0204,4.04,4.0497,0.0,0.0,0.0,0.0,0.0,0.0,0.0,0.0,3.7735,3.7253,3.7036,3.5803,0.0,0.0,0.0,0.0,0.0,3.595,3.5837,3.5705,3.589,3.5715,3.5481,3.5224,3.5148,3.5148,0.0,0.0,0.0,0.0,3.4201,3.3764,0.0,0.0,0.0,0.0,0.0,0.0,0.0,0.0,0.0,0.0,0.0,0.0,0.0,0.0,0.0,0.0,3.891,3.9138,3.9596,3.9602,3.9602,3.9602,4.0,4.0372,4.072,4.0836,4.0868,4.09,4.0955,4.1023,0.0,0.0,4.1152,4.1191,4.1191,4.1191,4.1191,4.1191,4.1191,4.1191,4.1191,4.1191,4.1191,0.0,0.0,0.0,0.0,0.0,0.0,0.0,0.0,0.0,0.0,0.0,0.0,0.0,0.0,0.0,0.0,0.0,0.0,0.0,0.0,3.5504,3.5504,3.5504,3.5504,3.5504,3.5504,3.5797,3.643,3.7071,3.7706,3.8278,3.8969,3.9272,3.9272,3.9272,3.9379,3.959,3.959,3.9661,3.9799,0.0,0.0,0.0,0.0,0.0,0.0,0.0,0.0,0.0,0.0,3.7102,3.6854,3.5538,0.0,0.0,0.0,0.0,0.0,3.5362,3.5241,3.5148,3.527,3.5195,3.5071,3.4947,3.4899,3.4899,0.0,0.0,0.0,0.0,0.0,3.3214,0.0,0.0,0.0,0.0,0.0,0.0,0.0,0.0,0.0,0.0,0.0,0.0,0.0,0.0,0.0,0.0,0.0,3.9138,3.9596,3.9602,3.965,3.9754,4.006,4.0286,4.0473,4.0725,4.0848,4.0848,4.0919,4.0955,4.1007,0.0,4.1113,4.1152,4.1191,4.1191,4.1191,4.1191,4.1191,4.1191,4.1191,4.1191,4.1191,0.0,0.0,0.0,0.0,0.0,0.0,0.0,0.0,0.0,0.0,0.0,0.0,0.0,0.0,0.0,0.0,0.0,0.0,0.0,0.0,3.5504,3.5504,3.5504,3.5504,3.5504,3.5504,3.5733,3.6196,3.6845,3.7531,3.8278,3.8969,3.9272,3.9272,3.9272,3.9272,3.9272,3.9272,3.9272,3.9272,0.0,0.0,0.0,0.0,0.0,0.0,0.0,0.0,0.0,0.0,0.0,0.0,0.0,0.0,0.0,3.4899,3.4899,3.4899,3.4899,3.4899,3.4899,3.4899,3.4899,3.4899,3.4899,3.4804,0.0,0.0,0.0,0.0,0.0,3.3475,0.0,0.0,0.0,0.0,0.0,0.0,0.0,0.0,0.0,0.0,0.0,0.0,0.0,0.0,0.0,0.0,0.0,0.0,3.9147,3.9596,3.9602,3.9679,3.9826,4.002,4.0177,4.0269,4.0631,4.079,4.079,4.0848,4.09,4.0912,4.1011,4.106,4.1087,4.1126,4.115,4.1172,4.1172,4.1191,4.1191,4.1191,4.1191,4.1191,0.0,0.0,0.0,0.0,0.0,0.0,0.0,0.0,0.0,0.0,0.0,0.0,0.0,0.0,0.0,0.0,0.0,0.0,0.0,0.0,3.5504,3.5504,3.5504,3.5504,3.5504,3.5504,3.5504,3.5554,3.6196,3.7131,3.8278,3.8969,3.9272,3.9272,3.9272,3.9272,3.9272,3.9272,3.9272,3.9272,3.9272,0.0,0.0,0.0,0.0,0.0,0.0,0.0,0.0,0.0,0.0,0.0,0.0,0.0,3.4899,3.4899,3.4899,3.4899,3.4899,3.4899,3.4899,3.4899,3.4899,3.4899,3.4899,3.4497,0.0,3.4151,0.0,0.0,0.0,0.0,0.0,0.0,0.0,0.0,0.0,0.0,0.0,0.0,0.0,0.0,0.0,0.0,0.0,0.0,0.0,0.0,0.0,0.0,0.0,3.9577,3.9602,3.962,3.9626,3.9823,4.012,4.0473,4.0706,4.079,4.079,4.079,4.0829,4.09,4.0916,4.0946,4.1006,4.1006,4.1042,4.1113,4.1113,4.1152,4.1191,4.1191,4.1191,4.1191,0.0,0.0,0.0,0.0,0.0,0.0,0.0,0.0,0.0,0.0,0.0,0.0,0.0,0.0,0.0,0.0,0.0,0.0,0.0,3.5504,3.5504,3.5504,3.5504,3.5504,3.5504,3.5504,3.5504,3.5504,3.6554,3.7472,3.8278,3.8969,3.9272,3.9272,3.9272,3.9272,3.9272,3.9272,3.9272,3.9272,3.9272,3.9272,0.0,0.0,0.0,0.0,0.0,0.0,0.0,0.0,3.7102,3.6854,3.5363,3.4899,3.4899,3.4899,3.4899,3.4899,3.4899,3.4659,3.4399,3.4399,3.4118,0.0,0.0,3.3968,3.3527,3.3527,3.3355,0.0,0.0,0.0,0.0,0.0,0.0,0.0,0.0,0.0,0.0,0.0,0.0,0.0,0.0,0.0,0.0,0.0,0.0,0.0,0.0,0.0,0.0,3.9596,3.9602,3.9602,3.9602,3.98,4.004,4.0321,4.0523,4.0673,4.079,4.079,4.081,4.0829,4.0868,4.0909,4.0946,4.0985,4.1014,4.1038,4.1084,4.1113,4.1133,4.1172,4.1191,4.1191,0.0,0.0,0.0,0.0,0.0,0.0,0.0,0.0,0.0,0.0,0.0,0.0,0.0,0.0,0.0,0.0,0.0,0.0,3.4935,3.5001,3.5133,3.5359,3.5439,3.5504,3.5504,3.5504,3.5504,3.5504,3.6554,3.7413,3.8051,3.8662,3.9094,3.9272,3.9272,3.9272,3.9272,3.9272,3.9272,3.9272,3.9272,3.9272,0.0,0.0,0.0,0.0,0.0,0.0,0.0,0.0,3.7102,3.6854,3.5363,3.4899,3.4899,3.4899,3.4899,3.4899,3.4899,3.4497,3.4101,3.4101,0.0,0.0,3.3455,3.323,3.2949,3.2949,3.2788,0.0,0.0,0.0,0.0,0.0,0.0,0.0,0.0,0.0,0.0,0.0,0.0,0.0,0.0,0.0,0.0,0.0,0.0,0.0,0.0,0.0,0.0,0.0,3.9552,3.9602,3.9602,3.975,3.9956,4.0214,4.0339,4.0534,4.079,4.079,4.079,4.079,4.0848,4.0868,4.0868,4.0919,4.0958,4.0994,4.1039,4.1069,4.1064,4.1123,4.1142,4.1142,0.0,0.0,0.0,0.0,0.0,0.0,0.0,0.0,0.0,0.0,0.0,0.0,0.0,0.0,0.0,0.0,0.0,0.0,3.3713,3.3891,3.4327,3.5148,3.5359,3.5504,3.5504,3.5504,3.5504,3.5504,3.6085,3.6723,3.7413,3.7994,3.8662,3.9272,3.9272,3.9272,3.9272,3.9272,3.9272,3.9272,3.9272,3.9272,3.9272,0.0,0.0,0.0,0.0,0.0,0.0,0.0,3.7102,3.6854,3.5363,3.4899,3.4899,3.4899,3.4899,3.4899,3.4899,3.4497,3.4101,0.0,0.0,0.0,3.2398,3.2398,3.2398,3.2398,3.191,3.1482,3.1482,0.0,0.0,0.0,0.0,0.0,0.0,0.0,0.0,0.0,0.0,0.0,0.0,0.0,0.0,0.0,0.0,0.0,0.0,0.0,0.0,0.0,3.9458,3.9602,3.9602,3.9602,3.98,4.0196,4.0196,4.0406,4.079,4.079,4.079,4.079,4.079,4.079,4.079,4.079,4.0829,4.0919,4.0977,4.0995,4.1007,4.1007,4.1007,4.1007,0.0,0.0,0.0,0.0,0.0,0.0,0.0,0.0,0.0,0.0,0.0,0.0,0.0,0.0,0.0,0.0,0.0,0.0,3.2975,3.2961,3.3394,3.4153,3.4288,3.4572,3.5082,3.5213,3.5359,3.5504,3.6085,3.6492,3.6723,3.7354,3.801,3.859,3.859,3.8843,3.9272,3.9272,3.9272,3.9272,3.9272,3.9023,3.859,0.0,0.0,0.0,0.0,0.0,0.0,0.0,0.0,0.0,3.5363,3.4899,3.4899,3.4899,3.4899,3.4804,3.4448,3.3917,0.0,3.298,0.0,0.0,0.0,3.1739,0.0,0.0,3.164,3.1482,3.1482,0.0,0.0,0.0,0.0,0.0,0.0,0.0,0.0,0.0,0.0,0.0,0.0,0.0,0.0,0.0,0.0,0.0,0.0,0.0,0.0,0.0,3.9527,3.9602,3.9602,3.9602,3.975,3.9979,4.0139,4.0406,4.079,4.079,4.079,4.079,4.079,4.079,4.079,4.079,4.081,4.0829,4.09,4.0936,4.0945,4.0983,4.1003,4.1003,0.0,0.0,0.0,0.0,0.0,0.0,0.0,0.0,0.0,0.0,2.9934,0.0,0.0,0.0,0.0,0.0,0.0,0.0,0.0,3.2033,3.2393,3.3199,3.3575,3.4153,3.4868,3.5001,3.5148,3.5359,3.5846,3.6148,3.643,3.6829,3.737,3.7937,3.8165,3.8535,3.8898,3.9202,3.9148,3.8882,3.8851,3.8308,3.7544,0.0,0.0,0.0,0.0,0.0,0.0,0.0,0.0,0.0,3.5363,3.4899,3.4851,3.4643,3.4739,3.4739,3.3968,3.3475,0.0,3.2547,3.1966,3.1482,3.1482,0.0,0.0,0.0,0.0,3.1482,0.0,0.0,0.0,0.0,0.0,0.0,0.0,0.0,0.0,0.0,0.0,0.0,0.0,0.0,0.0,0.0,0.0,0.0,0.0,0.0,0.0,0.0,3.9476,3.9571,3.9571,3.9596,3.9703,3.9914,4.002,4.0286,4.0673,4.0746,4.079,4.079,4.079,4.079,4.079,4.079,4.079,4.079,4.0829,4.0848,4.0868,4.0919,4.0938,4.0958,0.0,0.0,0.0,0.0,0.0,0.0,0.0,0.0,0.0,0.0,2.9792,2.9792,0.0,0.0,0.0,0.0,0.0,0.0,0.0,0.0,3.1389,3.2177,3.3129,3.4002,3.4787,3.4787,3.4935,3.5213,3.5359,3.5797,3.6321,3.6321,3.6662,3.731,3.7879,3.8165,3.8278,3.8778,3.8674,3.8132,3.7974,3.7232,3.621,3.6059,0.0,0.0,0.0,0.0,0.0,0.0,0.0,0.0,3.5446,3.4901,3.4739,3.425,3.4448,3.4578,3.3459,3.3145,0.0,3.2437,3.191,0.0,3.1482,3.1482,3.1482,3.1482,0.0,0.0,0.0,0.0,0.0,0.0,0.0,0.0,0.0,0.0,0.0,0.0,0.0,0.0,0.0,0.0,0.0,0.0,0.0,0.0,0.0,0.0,0.0,3.9017,3.9346,3.9495,3.9495,3.9546,3.9679,0.0,3.9892,4.01,4.0473,4.0673,4.0778,4.079,4.079,4.079,4.079,4.079,4.079,4.079,4.079,4.079,4.079,4.079,4.0829,4.09,0.0,0.0,0.0,0.0,0.0,0.0,0.0,0.0,0.0,0.0,0.0,0.0,0.0,0.0,0.0,0.0,0.0,0.0,0.0,0.0,3.0419,3.118,3.1988,3.2861,3.3796,3.3796,3.4288,3.5213,3.5228,3.5424,3.5668,3.5668,3.6022,3.66,3.6784,3.7131,3.7557,3.7189,3.6949,3.6772,3.6198,3.5505,3.486,3.482,3.4794,0.0,0.0,0.0,0.0,0.0,0.0,0.0,3.5877,3.5071,3.425,3.4151,3.4201,3.4034,3.2857,3.2586,0.0,0.0,3.1582,3.1482,3.1482,3.1482,3.1482,3.1482,0.0,0.0,0.0,0.0,0.0,0.0,0.0,0.0,0.0,0.0,0.0,0.0,0.0,0.0,0.0,0.0,0.0,0.0,0.0,0.0,0.0,0.0,0.0,3.9156,3.9328,3.9418,3.9418,3.9444,3.9451,0.0,3.9832,4.0022,4.012,4.0422,4.0646,4.079,4.079,4.079,4.079,4.079,4.079,4.079,4.079,4.079,4.079,4.079,4.081,4.081,0.0,0.0,0.0,0.0,0.0,0.0,0.0,0.0,0.0,0.0,0.0,0.0,0.0,0.0,0.0,0.0,0.0,0.0,0.0,0.0,3.0139,3.0895,3.1328,3.1915,3.2791,3.3297,3.3865,3.4505,3.5001,3.5294,3.5504,3.5504,3.5683,3.5958,3.6258,3.6414,3.6419,3.6427,3.6022,3.5415,3.5023,3.4347,3.3482,3.3437,3.3655,3.403,3.4379,0.0,0.0,0.0,0.0,0.0,0.0,0.0,3.4468,3.421,3.4156,3.3832,3.2711,0.0,0.0,3.164,0.0,3.1482,3.1482,3.1482,3.1482,3.1482,0.0,0.0,0.0,0.0,0.0,0.0,0.0,0.0,0.0,0.0,0.0,0.0,0.0,0.0,0.0,0.0,0.0,0.0,0.0,0.0,0.0,3.8455,3.8807,3.9156,3.9256,3.9301,3.9301,3.9373,3.9391,3.9399,3.9717,3.9962,4.0157,4.0454,4.0673,4.079,4.0778,4.0746,4.0746,4.0746,4.0746,4.0765,4.079,4.079,4.079,4.079,4.081,4.0848,0.0,0.0,0.0,0.0,0.0,0.0,0.0,0.0,0.0,0.0,0.0,0.0,0.0,0.0,0.0,0.0,0.0,0.0,0.0,0.0,0.0,3.0683,3.0683,3.1057,3.1856,3.2635,3.3283,3.3713,3.4505,3.5082,3.5439,3.5504,3.5504,3.5504,3.6022,3.586,3.5247,3.5736,3.5167,3.4079,3.3911,3.3198,3.2347,3.2292,3.2725,3.3335,3.3455,3.4682,3.6184,3.5676,0.0,0.0,0.0,0.0,3.4761,3.4234,3.4091,3.3822,3.2578,0.0,3.212,3.164,3.1482,0.0,3.1482,3.1482,3.1482,0.0,0.0,0.0,0.0,0.0,0.0,0.0,0.0,0.0,0.0,0.0,0.0,0.0,0.0,0.0,0.0,0.0,0.0,0.0,0.0,0.0,3.8068,3.8378,3.8688,3.9101,3.9156,3.9183,3.9183,3.9301,3.9346,3.9346,3.957,3.9878,4.03,4.0515,4.0673,4.0759,4.07,4.0668,4.0668,4.0668,4.0668,4.0687,4.092,4.0991,4.101,4.1165,4.1242,4.1313,0.0,0.0,0.0,0.0,0.0,0.0,0.0,0.0,0.0,0.0,0.0,0.0,0.0,0.0,0.0,0.0,0.0,0.0,2.8621,0.0,0.0,2.9921,2.9934,3.0279,3.1044,3.118,3.1974,3.3506,3.3644,3.4221,3.5228,3.5439,3.5504,3.5504,3.5554,3.5244,3.4615,3.4105,3.3472,3.2691,3.2088,3.1775,3.1659,3.1612,3.2047,3.2721,3.329,3.4364,3.5599,3.6122,3.5952,0.0,0.0,0.0,3.428,3.3666,3.3826,3.3787,3.2061,0.0,3.1582,0.0,3.1482,3.1482,0.0,0.0,3.1482,0.0,0.0,0.0,0.0,0.0,0.0,0.0,0.0,0.0,0.0,0.0,0.0,0.0,0.0,0.0,0.0,0.0,0.0,0.0,0.0,0.0,3.8068,3.8135,3.8442,3.9073,3.9101,3.9129,3.9129,3.9129,3.9129,3.9129,3.9401,3.9772,4.0211,4.0247,4.0399,4.0621,4.0621,4.0621,4.0621,4.0621,4.0621,4.0698,4.1451,4.1745,4.1842,4.2609,4.2893,4.2883,0.0,0.0,0.0,0.0,0.0,0.0,0.0,0.0,0.0,0.0,0.0,0.0,0.0,0.0,0.0,2.6318,2.64,2.6976,2.8383,2.887,2.9287,2.9792,2.9792,2.9921,3.0279,3.0833,3.1683,3.2834,3.3422,3.4153,3.5001,3.5148,3.5294,3.5504,3.5504,3.4921,3.3903,3.3619,3.2901,3.1943,3.1644,3.1482,3.1482,3.1482,3.2168,3.3095,3.3395,3.433,3.5501,3.5804,3.5713,3.5518,3.5768,0.0,0.0,0.0,3.3847,3.347,3.2303,3.2216,3.2367,0.0,3.2023,3.191,3.1582,0.0,0.0,0.0,0.0,0.0,0.0,0.0,0.0,0.0,0.0,0.0,0.0,0.0,0.0,0.0,0.0,0.0,0.0,0.0,0.0,0.0,0.0,3.7893,3.7756,3.8183,3.8535,3.8807,3.8998,3.9101,3.9101,3.9101,3.9407,3.9997,4.0577,4.1033,4.1392,4.1532,4.1506,4.134,4.133,4.1581,4.2005,4.2005,4.2005,4.2044,4.2463,4.2618,4.2656,4.3061,4.3192,4.3188,0.0,0.0,0.0,0.0,0.0,0.0,0.0,0.0,0.0,0.0,0.0,0.0,0.0,0.0,0.0,0.0,2.5505,2.6163,2.7718,2.8211,2.8791,2.9456,2.9702,2.9792,2.9792,3.0495,3.118,3.196,3.2918,3.3796,3.4572,3.4721,3.5016,3.5359,3.5359,3.4614,3.3376,3.3423,3.2616,3.1424,3.1467,3.1467,3.1467,3.1482,3.2243,3.326,3.344,3.4247,0.0,0.0,3.5439,3.5439,3.5439,3.5307,0.0,0.0,0.0,0.0,0.0,0.0,3.2949,3.2586,3.2492,3.2382,0.0,0.0,0.0,0.0,0.0,0.0,0.0,0.0,0.0,0.0,0.0,0.0,0.0,0.0,0.0,0.0,0.0,0.0,0.0,0.0,0.0,0.0,0.0,3.8774,3.8259,3.8645,3.8952,3.9061,3.9081,3.9101,3.9101,3.9324,3.9918,4.0956,4.1528,4.1969,4.2219,4.2405,4.245,4.239,4.2252,4.2556,4.3096,4.3096,4.3096,4.3134,4.3378,4.3489,4.3509,4.374,4.3817,4.3852,0.0,0.0,0.0,0.0,0.0,0.0,0.0,0.0,0.0,0.0,0.0,0.0,2.454,2.454,2.454,2.454,2.454,2.4946,2.5913,2.7557,2.8542,2.8542,2.9378,0.0,2.9792,2.9869,3.0203,3.0957,3.1783,3.2648,3.3575,3.4317,3.4817,3.4935,3.4935,3.4212,3.3004,3.3176,3.242,3.1146,3.1424,3.1409,3.1351,3.1467,3.1958,3.2647,3.3275,0.0,0.0,0.0,0.0,0.0,0.0,0.0,3.4691,0.0,0.0,0.0,0.0,3.285,0.0,3.2749,3.2788,0.0,0.0,0.0,0.0,0.0,0.0,0.0,0.0,0.0,0.0,0.0,0.0,0.0,0.0,0.0,0.0,0.0,0.0,0.0,0.0,0.0,0.0,0.0,0.0,3.9962,4.0239,3.9908,3.989,4.028,3.9528,3.9101,3.9101,3.9918,4.0717,4.1545,4.1601,4.1707,4.1924,4.195,4.2626,4.3769,4.3267,4.3066,4.3104,4.3104,4.3104,4.3181,4.3932,4.4239,4.4335,4.518,4.5505,4.5574,0.0,0.0,0.0,0.0,0.0,0.0,0.0,0.0,0.0,0.0,0.0,0.0,0.0,2.454,2.454,2.454,2.454,2.4861,2.5735,2.64,2.7302,2.8462,2.8791,2.9209,2.9792,2.9792,3.0139,3.0895,3.1709,3.2506,3.3297,3.3589,3.4031,3.4601,3.4802,3.4212,3.3004,3.3051,3.2374,3.1234,3.1351,3.1409,3.1409,3.1467,3.1943,0.0,0.0,0.0,0.0,0.0,0.0,0.0,0.0,0.0,0.0,0.0,0.0,0.0,0.0,0.0,0.0,3.3419,3.3261,3.3102,3.2964,0.0,0.0,0.0,0.0,0.0,0.0,0.0,0.0,0.0,0.0,0.0,0.0,0.0,0.0,0.0,0.0,0.0,0.0,0.0,0.0,0.0,0.0,0.0,4.0107,4.0148,4.0379,4.0824,4.0759,4.0457,3.9937,4.0234,4.0791,4.1609,4.211,4.269,4.3245,4.3437,4.3863,4.4486,4.4457,4.4556,4.4701,4.4701,4.4701,4.472,4.5009,4.5124,4.5163,4.547,4.5622,4.564,0.0,0.0,0.0,0.0,0.0,0.0,0.0,0.0,0.0,0.0,0.0,0.0,0.0,0.0,2.454,2.454,2.454,2.4786,2.5337,2.5663,2.6318,2.7545,2.8211,2.8791,2.9378,2.9624,3.0075,3.0545,3.1341,3.1928,3.242,3.272,3.3087,3.3618,3.3865,3.3446,3.2596,3.2674,3.1853,3.0553,3.0658,3.0837,3.1043,0.0,0.0,0.0,0.0,0.0,0.0,0.0,0.0,0.0,0.0,0.0,0.0,0.0,0.0,0.0,3.3011,0.0,0.0,0.0,0.0,3.3539,3.3387,0.0,0.0,0.0,0.0,0.0,0.0,0.0,0.0,0.0,0.0,0.0,0.0,0.0,0.0,0.0,0.0,0.0,0.0,0.0,0.0,0.0,0.0,0.0,4.0699,4.089,4.111,4.1248,4.1482,4.146,4.12,4.12,4.146,4.1999,4.2537,4.3076,4.3596,4.3799,4.4221,4.48,4.4985,4.5263,4.5586,4.5586,4.5586,4.5586,4.5586,4.5586,4.5586,4.5586,4.5586,4.5586,0.0,0.0,0.0,0.0,0.0,0.0,0.0,0.0,0.0,2.4454,0.0,0.0,0.0,0.0,0.0,2.4454,2.4454,2.4454,2.4454,2.5263,2.5735,2.5819,2.7476,2.8462,2.8462,2.9378,2.9792,2.9792,3.0545,3.0895,3.0895,3.1709,3.2074,3.2074,3.2074,3.1902,3.1664,3.186,3.0827,2.9085,0.0,2.9718,3.0115,0.0,0.0,0.0,3.1975,3.2227,0.0,3.2786,0.0,0.0,0.0,0.0,0.0,0.0,0.0,0.0,0.0,0.0,0.0,0.0,0.0,0.0,3.3797,0.0,0.0,0.0,0.0,0.0,0.0,0.0,0.0,0.0,0.0,0.0,0.0,0.0,0.0,0.0,0.0,0.0,0.0,0.0,0.0,0.0,0.0,4.2216,4.2198,4.2232,4.2051,4.1653,4.1646,4.1999,4.2797,4.2779,4.2779,4.2797,4.2797,4.2816,4.2835,4.2835,4.3559,4.4776,4.48,4.5096,4.5586,4.5586,4.5586,4.5586,4.5586,4.5586,4.5586,4.5586,4.5586,4.5586,0.0,0.0,0.0,0.0,0.0,0.0,0.0,0.0,2.2492,0.0,0.0,0.0,2.2492,2.2492,2.2492,2.2492,2.3105,2.3464,2.3464,2.4337,2.5105,2.5735,2.6894,2.781,2.8462,2.9378,2.9792,2.9792,3.0545,3.0895,3.0895,3.1119,3.1563,3.2074,3.1489,3.0823,3.0146,3.0569,0.0,2.8867,2.898,2.9093,0.0,0.0,0.0,0.0,0.0,3.083,3.1248,0.0,3.2295,3.262,0.0,0.0,0.0,0.0,0.0,0.0,3.3011,0.0,0.0,0.0,0.0,0.0,0.0,0.0,0.0,0.0,0.0,0.0,0.0,0.0,0.0,0.0,0.0,0.0,0.0,0.0,0.0,0.0,0.0,0.0,0.0,0.0,0.0,0.0,4.1719,4.1899,4.2157,4.2741,4.3018,4.2897,4.2619,4.2575,4.2797,4.2222,4.2222,4.2797,4.2797,4.3095,4.367,4.367,4.3986,4.4519,4.4701,4.4988,4.5322,4.5513,4.5586,4.5586,4.5586,4.5586,4.5586,4.5586,4.5586,4.5586,0.0,0.0,0.0,0.0,0.0,0.0,0.0,2.205,2.1695,0.0,0.0,0.0,2.1695,2.1695,2.1695,2.1695,2.2217,2.2658,2.3096,2.3637,2.4337,2.5263,2.6412,2.7395,2.7891,2.9131,2.9792,2.9792,3.0203,3.0406,3.0406,3.0406,3.0709,3.1158,3.0633,2.9851,2.8925,2.928,0.0,0.0,2.8039,0.0,0.0,2.8556,2.8698,0.0,0.0,0.0,3.0381,3.0735,3.143,0.0,0.0,0.0,0.0,0.0,0.0,0.0,0.0,0.0,0.0,0.0,0.0,0.0,3.4349,3.4448,0.0,0.0,0.0,0.0,0.0,0.0,0.0,0.0,0.0,0.0,0.0,0.0,0.0,0.0,0.0,0.0,0.0,0.0,0.0,4.1604,4.1604,4.1874,4.2422,4.3051,4.3474,4.3627,4.3428,4.3299,4.3299,4.2835,4.2667,4.2797,4.2797,4.3039,4.3503,4.3503,4.3834,4.443,4.4572,4.4776,4.5052,4.5322,4.5495,4.5586,4.5586,4.5586,4.5586,4.5586,4.5586,4.5586,0.0,0.0,0.0,0.0,0.0,0.0,0.0,2.1427,0.0,0.0,2.1338,2.1338,2.1338,2.1338,2.1338,2.1338,2.1516,2.1863,2.2736,2.3008,2.3454,2.4272,2.5997,2.6987,2.7069,2.8803,2.9714,2.9792,2.9792,2.9792,2.9792,2.9792,2.9792,2.9792,0.0,0.0,2.8109,0.0,0.0,2.6943,2.6943,2.7201,0.0,0.0,2.813,2.8532,2.8597,2.9044,2.9546,2.9623,3.0425,0.0,0.0,0.0,0.0,0.0,3.2017,0.0,0.0,0.0,0.0,0.0,0.0,0.0,3.3745,3.4101,3.4448,0.0,0.0,0.0,0.0,0.0,0.0,0.0,0.0,0.0,0.0,0.0,0.0,0.0,0.0,0.0,0.0,4.1604,4.1604,4.1604,4.1604,4.1941,4.2696,4.3105,4.3526,4.3923,4.3974,4.4005,4.4005,4.4005,4.3633,4.2927,4.2927,4.2927,4.2927,4.2927,4.3431,4.4374,4.4402,4.4546,4.4776,4.5074,4.5342,4.5568,4.5586,4.5586,4.5586,4.5586,4.5586,4.5586,0.0,0.0,0.0,0.0,0.0,0.0,0.0,1.9903,1.9371,1.9371,1.9371,1.9371,1.9371,1.9371,1.9371,1.9371,2.0076,2.061,2.0872,2.2296,2.3183,2.3367,2.5062,2.64,2.7069,2.8223,2.9131,2.9792,2.9792,2.9792,2.9792,2.9792,2.9792,2.9779,2.9302,2.8725,0.0,0.0,0.0,2.6602,2.6602,0.0,2.6794,2.6782,2.685,2.704,2.755,2.7868,2.813,2.9233,3.014,3.0756,0.0,0.0,0.0,3.1353,0.0,0.0,0.0,0.0,0.0,0.0,0.0,0.0,3.4,3.4101,3.4201,0.0,0.0,0.0,0.0,0.0,0.0,0.0,0.0,0.0,0.0,0.0,0.0,0.0,0.0,0.0,0.0,4.1604,4.1604,4.1604,4.1604,4.1788,4.2279,4.2696,4.3105,4.3508,4.3809,4.4005,4.4005,4.4005,4.3912,4.3763,4.3763,4.3763,4.3763,4.3763,4.3869,4.4109,4.4318,4.4411,4.4519,4.5007,4.5222,4.5302,4.5513,4.5586,4.5586,4.5586,4.5586,4.5586,0.0,0.0,0.0,0.0,0.0,0.0,0.0,0.0,1.8257,1.8257,1.7893,1.7707,1.7707,1.7707,1.7893,1.8257,1.8703,1.9338,2.0249,2.1596,2.257,2.3096,2.4798,2.5986,2.64,2.7799,2.8712,2.9131,2.9624,2.9792,2.9792,2.9792,2.9641,2.9352,2.9051,2.8461,0.0,0.0,2.6967,2.6533,2.6533,0.0,2.6533,2.6533,2.6533,2.6521,2.6905,2.7229,2.7749,2.9107,2.9808,0.0,0.0,3.0568,3.0687,0.0,3.161,3.1992,0.0,0.0,0.0,3.3503,0.0,0.0,0.0,3.3797,3.3899,3.3899,0.0,0.0,0.0,0.0,0.0,0.0,0.0,0.0,0.0,0.0,0.0,0.0,0.0,0.0,0.0,4.1604,4.1604,4.1604,4.1805,4.1984,4.2216,4.258,4.2978,4.3406,4.3594,4.3809,4.4005,4.4005,4.4005,4.4005,4.4005,4.4005,4.4005,4.4005,4.4005,4.4005,4.4151,4.4192,4.4221,4.465,4.48,4.4849,4.5381,4.5586,4.5586,4.5586,4.5586,4.5586,1.9016,1.9124,0.0,0.0,0.0,0.0,0.0,0.0,1.7505,1.7505,1.6951,1.6588,1.6588,1.6588,1.6864,1.7412,1.7598,1.8326,1.9704,2.0791,2.1863,2.2746,2.4372,2.5484,2.5819,2.7395,2.8303,2.8462,2.9378,2.9792,2.9792,2.9679,2.9377,2.8925,2.8699,2.8109,2.7268,0.0,0.0,2.6533,0.0,2.6533,2.6533,2.6533,2.6533,2.6533,2.6533,2.704,2.7868,2.903,2.9546,2.987,3.0447,3.0568,0.0,0.0,0.0,0.0,0.0,0.0,0.0,0.0,0.0,3.3309,0.0,0.0,0.0,3.3607,0.0,0.0,0.0,0.0,0.0,0.0,0.0,0.0,0.0,0.0,0.0,0.0,0.0,0.0,0.0,4.1516,4.1604,4.1604,4.1899,4.2133,4.2216,4.258,4.2978,4.3406,4.3474,4.366,4.4005,4.4005,4.4005,4.4005,4.4005,4.4005,4.4005,4.4005,4.4005,4.4005,4.4005,4.4005,4.4036,4.4289,4.4383,4.4465,4.5161,4.5476,4.5513,4.5513,4.5568,4.5586,1.773,1.7969,1.8001,0.0,0.0,0.0,0.0,0.0,1.6676,1.6676,1.6676,1.6588,1.6588,0.0,0.0,0.0,0.0,0.0,1.7963,0.0,2.0881,2.1784,2.2824,2.4114,2.5735,2.673,2.7649,2.8462,2.9378,2.9792,2.9779,2.9264,2.8988,2.8888,2.7908,0.0,0.0,0.0,2.6584,0.0,2.6533,2.6533,0.0,2.6533,2.6533,2.6533,2.6533,2.7284,2.8427,0.0,2.947,3.0507,0.0,3.0568,3.0628,3.0628,0.0,0.0,0.0,0.0,0.0,0.0,3.3309,0.0,0.0,0.0,3.3361,3.3361,0.0,0.0,0.0,0.0,0.0,0.0,0.0,0.0,0.0,0.0,0.0,0.0,0.0,0.0,0.0,0.0,4.1604,4.1604,4.1631,4.1831,4.2157,4.258,4.2978,4.3406,4.3744,4.3955,4.4005,4.4005,4.4005,4.4005,4.4005,4.4005,4.4005,4.4005,4.4005,4.4005,4.4005,4.4005,4.4036,4.4289,4.4383,4.4438,4.4751,4.503,4.5243,4.5243,4.54,4.5586,1.6431,1.6465,1.6334,1.6334,0.0,0.0,0.0,0.0,1.5724,1.5343,1.5248,1.5248,0.0,0.0,0.0,0.0,0.0,1.7159,0.0,0.0,2.0015,2.0227,0.0,0.0,2.3525,2.4908,2.595,2.6827,2.769,2.8323,2.8812,2.8561,2.8285,2.7946,2.7494,0.0,2.6791,0.0,2.6533,0.0,0.0,0.0,0.0,2.6533,2.6533,2.6533,2.6533,2.685,2.7484,0.0,2.8889,0.0,0.0,0.0,0.0,0.0,0.0,0.0,0.0,0.0,0.0,0.0,0.0,0.0,3.3309,0.0,3.3309,0.0,0.0,0.0,0.0,0.0,0.0,0.0,3.4706,0.0,0.0,0.0,0.0,0.0,0.0,0.0,0.0,0.0,0.0,0.0,0.0,4.1675,4.1831,4.2008,4.24,4.3032,4.3212,4.3508,4.4005,4.4005,4.4005,4.4005,4.4005,4.4005,4.4005,4.4005,4.4005,4.4005,4.4005,4.4005,4.4005,4.4121,4.4181,4.4181,4.4308,4.4599,4.4985,4.4985,4.5159,4.5362,1.4803,1.4986,1.5148,0.0,0.0,0.0,0.0,0.0,0.0,0.0,0.0,0.0,1.4112,1.4142,0.0,0.0,1.5625,1.6239,0.0,0.0,1.8983,0.0,0.0,0.0,0.0,0.0,2.4781,2.5326,2.6375,2.7224,2.7779,2.7873,2.767,2.7268,0.0,2.6841,2.6533,0.0,2.6533,2.6533,2.6533,2.6533,2.6533,2.6533,2.6533,2.6533,2.6533,2.6589,2.6973,2.8117,2.862,0.0,3.0237,0.0,0.0,0.0,0.0,0.0,3.1823,0.0,0.0,0.0,0.0,0.0,0.0,0.0,0.0,0.0,0.0,0.0,0.0,0.0,0.0,0.0,0.0,0.0,0.0,0.0,0.0,0.0,0.0,0.0,0.0,0.0,0.0,4.1236,4.1306,4.1394,4.1587,4.1719,4.2008,4.2619,4.2847,4.3248,4.3809,4.3923,4.4005,4.4005,4.4005,4.4005,4.4005,4.4005,4.4005,4.4005,4.4005,4.4005,4.4005,4.4005,4.4005,4.4005,4.4005,4.4221,4.4572,4.465,4.4849,4.5096,1.2437,1.3639,1.4748,0.0,0.0,0.0,0.0,0.0,0.0,0.0,0.0,0.0,0.0,0.0,0.0,0.0,0.0,1.497,1.5582,0.0,1.7589,0.0,0.0,2.0987,0.0,0.0,0.0,2.4557,2.6148,2.6914,2.6976,2.7172,2.7306,2.7256,2.6798,2.6546,2.6533,2.6533,2.6533,2.6533,2.6533,2.6533,2.6533,0.0,2.6533,2.6533,2.6533,0.0,0.0,2.8233,2.8953,0.0,0.0,0.0,0.0,0.0,0.0,0.0,0.0,0.0,0.0,3.3309,0.0,0.0,0.0,0.0,3.3309,0.0,0.0,0.0,0.0,0.0,0.0,0.0,0.0,0.0,0.0,0.0,0.0,0.0,0.0,0.0,0.0,0.0,0.0,4.0463,4.0516,4.0832,4.1569,4.1984,4.2198,4.2198,4.2978,4.3406,4.3406,4.3809,4.4005,4.4005,4.4005,4.4005,4.4005,4.4005,4.4005,4.4005,4.4005,4.4005,4.4005,4.4005,4.4005,4.4005,4.4005,4.4005,4.4048,4.4318,4.4572,4.48,1.1752,1.2095,1.2431,0.0,0.0,0.0,0.0,1.283,0.0,0.0,0.0,0.0,0.0,1.3147,1.3279,0.0,0.0,1.4774,1.5269,1.6045,0.0,0.0,0.0,2.008,0.0,0.0,0.0,0.0,0.0,2.5297,2.5817,2.6454,2.6741,2.6728,0.0,2.6533,0.0,0.0,0.0,0.0,0.0,2.6533,2.6533,0.0,0.0,2.6533,2.6533,2.6658,0.0,2.8117,2.8698,2.9079,3.0237,3.0568,3.0568,3.0568,3.0807,0.0,0.0,0.0,3.2508,3.3134,0.0,0.0,0.0,0.0,0.0,0.0,0.0,0.0,0.0,0.0,0.0,0.0,0.0,0.0,0.0,0.0,0.0,0.0,0.0,0.0,0.0,0.0,0.0,3.9493,4.0096,4.0499,0.0,4.148,4.1941,4.2198,4.2462,4.2734,4.2996,4.3406,4.3594,4.3627,4.3892,4.4005,4.4005,4.4005,4.4005,4.4005,4.4005,4.4005,4.4005,4.4005,4.4005,4.4005,4.4005,4.4005,4.4005,4.4091,4.4308,4.4546,1.0539,0.0,0.0,0.0,0.0,0.0,0.0,0.0,0.0,0.0,1.2362,0.0,1.2517,0.0,1.3015,0.0,1.3907,1.4462,1.4956,1.5631,0.0,1.7925,1.8868,0.0,0.0,0.0,0.0,0.0,0.0,2.4337,2.4933,2.6025,2.6533,2.6533,0.0,2.6533,2.6533,2.6533,2.6533,0.0,0.0,2.6533,0.0,0.0,2.6533,2.6533,0.0,2.6533,2.6714,2.8051,2.8492,2.8762,3.0176,3.0568,3.0568,3.0568,3.0687,3.0984,3.1552,3.1936,0.0,3.2888,3.3187,0.0,3.3309,0.0,0.0,0.0,0.0,0.0,0.0,0.0,0.0,0.0,0.0,0.0,0.0,3.6301,0.0,0.0,0.0,0.0,0.0,0.0,3.7694,3.8587,3.9128,3.959,0.0,0.0,4.127,4.1534,4.1932,4.232,4.258,4.2996,4.3248,4.3406,4.366,4.386,4.4005,4.4005,4.4005,4.4005,4.4005,4.4005,4.4005,4.4005,4.4005,4.4005,4.4005,4.4005,4.4005,4.4005,4.4091,4.426,0.889,0.0,0.0,0.0,1.1433,0.0,0.0,0.0,1.1849,0.0,1.2118,1.2484,1.2005,1.2618,1.3015,1.3103,1.3465,1.3984,1.465,1.5318,0.0,0.0,1.8868,1.9737,2.0537,0.0,0.0,0.0,0.0,0.0,2.4192,2.5791,2.6533,2.6533,2.6533,0.0,2.6533,2.6533,2.6533,2.6533,2.6533,2.6533,2.6533,2.6533,2.6533,2.6533,2.6533,2.6533,2.6714,2.8051,2.8492,2.8762,3.0176,3.0568,3.0568,3.0568,3.0925,3.1278,3.1336,3.1936,3.2602,3.2641,0.0,0.0,0.0,0.0,3.3309,0.0,0.0,0.0,0.0,0.0,0.0,0.0,0.0,0.0,0.0,0.0,0.0,0.0,0.0,0.0,0.0,3.6502,3.6839,3.7659,3.7763,3.8111,0.0,0.0,4.0254,4.0307,4.1456,4.2121,4.2157,4.258,4.2941,4.3318,4.3371,4.3594,4.3955,4.4005,4.4005,4.4005,4.4005,4.4005,4.4005,4.4005,4.4005,4.4005,4.4005,4.4005,4.4005,4.4005,4.4005,4.4005,0.8803,0.9506,1.0038,0.0,1.043,1.0529,0.0,0.0,0.0,0.0,1.1071,1.1447,1.1444,1.1978,1.2463,1.2813,1.3351,0.0,0.0,0.0,0.0,1.8868,1.9177,1.9972,2.1415,2.1721,0.0,2.2703,0.0,0.0,2.5004,2.6025,2.6533,2.6533,2.6533,2.6533,2.6533,2.6533,2.6533,2.6533,2.6533,2.6533,0.0,0.0,2.6533,2.6533,2.6533,2.6533,2.6714,2.8051,2.8492,2.8762,3.0176,3.0568,3.0568,3.0568,3.0687,3.0925,3.1537,3.1936,3.2272,3.2958,3.3187,3.3309,0.0,0.0,0.0,0.0,0.0,0.0,0.0,0.0,0.0,0.0,0.0,0.0,0.0,0.0,0.0,3.6301,0.0,0.0,3.636,3.6343,3.6488,3.6804,3.7376,0.0,0.0,0.0,0.0,4.0122,4.0491,4.0885,4.1445,4.1931,4.2262,4.2364,4.3051,4.344,4.3542,4.3841,4.4005,4.4005,4.4005,4.4005,4.4005,4.4005,4.4005,4.4005,4.4005,4.4005,4.4005,4.4005,4.4005,4.4005,0.8273,0.0,0.0,1.0038,0.0,0.0,1.0116,0.0,0.0,1.013,1.0568,0.0,1.0992,1.1413,1.1843,1.2357,1.33,0.0,1.465,0.0,0.0,1.9186,1.9335,2.0051,2.1731,2.1807,0.0,2.3001,0.0,0.0,2.5312,2.6094,2.6533,2.6533,2.6533,2.6533,2.6533,2.6533,2.6533,2.6533,2.6533,0.0,0.0,2.6533,2.6533,2.6533,2.6533,2.6533,2.6714,2.8051,2.8492,2.8762,3.0176,3.0568,3.0568,3.0568,3.0568,3.0747,3.1437,3.1781,3.2104,3.2834,3.3134,3.3309,3.3309,3.3309,3.3309,0.0,0.0,0.0,0.0,0.0,0.0,0.0,0.0,0.0,0.0,0.0,0.0,0.0,3.6301,0.0,3.6301,3.6301,3.6343,3.6402,3.6817,0.0,0.0,0.0,0.0,3.906,3.9747,4.0287,4.0722,4.1332,4.1778,4.2015,4.2523,4.2904,4.3141,4.3542,4.3744,4.3744,4.3923,4.4005,4.4005,4.4005,4.4005,4.4005,4.4005,4.4005,4.4005,4.4005,4.4005,4.4005,0.7658,0.0,0.0,0.0,0.0,0.0,0.0,1.0038,0.0,1.0038,0.0,1.0636,1.0636,1.0982,1.1499,1.21,0.0,1.4216,1.4817,1.5982,1.7448,1.9256,1.9335,2.0051,2.1731,2.1883,2.2327,0.0,0.0,0.0,2.5453,2.6176,2.6533,2.6533,2.6533,0.0,0.0,2.6533,2.6533,2.6533,2.6533,2.6533,2.6533,2.6533,2.6533,2.6533,2.6589,2.6658,2.685,2.8051,2.8556,2.8889,3.019,3.0568,3.0568,3.0568,3.0628,3.0807,3.1278,3.1667,3.2089,3.2586,3.3011,3.3309,3.3309,3.3309,3.3309,3.3309,3.3309,3.3309,0.0,0.0,0.0,0.0,0.0,0.0,0.0,0.0,0.0,0.0,0.0,0.0,3.6301,3.6301,3.6301,0.0,0.0,0.0,0.0,0.0,0.0,3.7681,3.9033,0.0,4.0033,0.0,4.1313,4.1906,4.199,4.2262,4.2734,4.3141,4.3353,4.3406,4.3777,4.3955,4.4005,4.4005,4.4005,4.4005,4.4005,4.4005,4.4005,4.4005,4.4005,4.4005,0.757,0.0,0.0,0.0,0.0,1.0038,1.0038,1.0038,1.0038,1.0038,1.0381,1.0636,1.0636,1.0982,1.1671,1.2705,1.3542,0.0,0.0,0.0,0.0,1.9256,1.9335,2.0051,2.1731,2.2478,2.3128,0.0,0.0,0.0,0.0,0.0,2.6533,2.6533,2.6533,0.0,2.6533,2.6533,0.0,2.6533,2.6533,2.6533,2.6533,2.6533,2.6533,2.6589,2.7095,2.7284,2.7484,2.8247,2.8889,2.9546,3.0326,3.0568,3.0568,3.0568,3.0866,3.1278,3.1667,3.216,3.2602,3.3065,3.324,3.3309,3.3309,3.3309,3.3309,3.3309,3.3309,3.3309,3.3309,0.0,0.0,0.0,0.0,0.0,0.0,0.0,0.0,0.0,0.0,3.6301,0.0,0.0,0.0,0.0,0.0,0.0,0.0,0.0,0.0,0.0,3.7837,0.0,0.0,0.0,4.0537,4.1373,4.1778,4.2115,4.232,4.2734,4.3105,4.3406,4.3474,4.3693,4.4005,4.4005,4.4005,4.4005,4.4005,4.4005,4.4005,4.4005,4.4005,4.4005,0.0,0.0,0.0,0.0,0.0,0.0,0.0,1.0381,0.0,1.0038,1.0207,1.0294,1.0294,1.1063,1.1832,1.2613,1.3789,1.488,1.565,1.6714,1.7917,1.9256,2.01,0.0,2.1807,2.2979,2.3768,2.4108,0.0,0.0,0.0,0.0,0.0,2.6533,0.0,2.6533,0.0,0.0,0.0,2.6533,2.6533,2.6533,2.6533,2.6533,2.6533,2.6589,2.7297,2.7736,2.8117,2.8826,2.9296,2.9747,3.0387,3.0568,3.0568,3.0568,3.0925,3.1394,3.1766,3.2256,3.2711,3.3187,3.3309,3.3309,3.3309,3.3309,3.3309,3.3309,3.3309,3.3435,3.3968,3.4673,0.0,0.0,0.0,0.0,0.0,0.0,0.0,0.0,0.0,0.0,0.0,0.0,0.0,0.0,0.0,0.0,0.0,0.0,0.0,0.0,0.0,0.0,0.0,0.0,0.0,4.1152,4.1408,4.1613,4.1813,4.218,4.2541,4.281,4.3212,4.3508,4.3693,4.3923,4.4005,4.4005,4.4005,4.4005,4.4005,4.4005,4.4005,4.4005,0.0,0.9506,0.0,0.0,1.012,0.0,1.0294,1.1068,1.1322,1.0381,1.0463,1.0549,1.0549,1.1397,1.2163,1.2772,1.4119,1.5289,1.6139,1.735,1.847,1.9502,2.0931,2.18,2.2025,2.3548,2.4337,0.0,0.0,0.0,0.0,0.0,0.0,0.0,0.0,0.0,0.0,0.0,2.6533,2.6533,2.6533,2.6533,2.6521,2.6658,2.6714,2.685,2.7683,2.8325,2.8826,2.9546,2.9808,2.987,3.0447,3.0568,3.0642,3.0687,3.1043,3.1495,3.1936,3.2382,3.2834,3.3187,3.3309,3.3309,3.3309,3.3309,3.3309,3.3309,3.3398,3.3745,3.4642,3.5253,0.0,0.0,0.0,0.0,0.0,0.0,0.0,0.0,0.0,0.0,3.5968,0.0,0.0,0.0,0.0,0.0,0.0,0.0,0.0,0.0,0.0,3.7594,3.8353,0.0,3.9917,0.0,4.1024,4.1169,4.1363,4.1727,4.199,4.2198,4.2885,4.3248,4.344,4.3841,4.4005,4.4005,4.4005,4.4005,4.4005,4.4005,4.4005,4.4005,0.0,0.0,0.0,0.0,0.0,0.0,1.1154,1.1997,1.2248,1.1322,1.1912,1.2419,1.2419,1.2504,1.3093,1.4364,1.4622,1.5606,1.7674,1.7917,1.8709,2.0304,2.1257,2.2103,2.2852,2.4371,2.5158,0.0,0.0,0.0,0.0,0.0,0.0,0.0,0.0,0.0,0.0,2.6533,2.6533,2.6533,2.6533,2.6533,2.6589,2.7162,2.7417,2.755,2.8903,2.9421,2.9608,3.0251,3.0507,3.0507,3.0568,3.0568,3.0687,3.1102,3.1495,3.1921,3.2437,3.2888,3.324,3.3309,3.3309,3.3309,3.3309,3.3309,3.3309,3.3309,3.371,3.4184,3.469,3.5253,3.5749,0.0,0.0,0.0,0.0,0.0,0.0,0.0,0.0,0.0,0.0,3.4911,0.0,0.0,0.0,0.0,0.0,0.0,0.0,3.6301,0.0,3.6801,3.7577,3.8318,3.9122,4.0037,4.0764,4.1123,4.1209,4.1363,4.164,4.2032,4.2239,4.2734,4.344,4.3841,4.4005,4.4005,4.4005,4.4005,4.4005,4.4005,4.4005,4.4005,0.0,0.0,0.0,0.0,0.0,0.0,0.0,1.2936,1.3366,1.3027,1.2851,1.2674,1.2674,1.3275,1.4119,1.5184,1.6026,1.7098,1.8479,1.9195,1.9825,2.0459,2.2167,2.3084,2.3001,2.4945,2.5816,0.0,0.0,0.0,0.0,0.0,0.0,0.0,0.0,2.6533,2.6533,2.6533,2.6533,2.6533,2.6533,2.6714,2.7095,2.7417,2.7736,2.8247,2.9233,2.9623,2.9685,3.0387,3.0568,3.0568,3.0568,3.0807,3.1043,3.1219,3.1766,3.2367,3.2547,3.2942,3.3309,3.3309,3.3309,3.3309,3.3309,3.3309,3.3309,3.3309,3.3761,3.4234,3.4738,3.4975,3.5391,0.0,0.0,0.0,0.0,0.0,0.0,0.0,0.0,3.4769,0.0,0.0,0.0,0.0,0.0,0.0,0.0,0.0,0.0,3.5898,0.0,3.668,3.7473,3.7784,3.857,3.9807,4.0118,4.0562,4.1169,4.1215,4.1498,4.2015,4.2074,4.2562,4.3406,4.3594,4.3777,4.4005,4.4005,4.4005,4.4005,4.4005,4.4005,4.4005,1.0381,0.0,1.0977,0.0,1.1918,1.2345,1.3021,1.388,1.4559,1.4796,1.428,1.3847,1.3847,1.4622,1.5455,1.6421,1.7342,1.8336,1.9283,2.0207,2.0914,2.1231,2.3305,0.0,2.3728,2.5523,2.6245,2.5664,2.6245,0.0,0.0,0.0,0.0,0.0,2.6533,2.6533,2.6533,2.6533,2.6589,2.6782,2.6782,2.7229,2.7802,2.8065,2.8376,2.8889,2.9623,2.987,2.9993,3.0447,3.0568,3.0568,3.0568,3.0925,3.1336,3.1452,3.1992,3.2656,3.2765,3.3065,3.3309,3.3309,3.3309,3.3309,3.3309,3.3309,3.3309,3.3309,3.3761,3.4234,3.4738,3.4911,3.5283,3.5985,0.0,0.0,0.0,0.0,0.0,0.0,3.4448,3.435,3.435,3.435,0.0,0.0,0.0,0.0,0.0,0.0,0.0,0.0,0.0,0.0,0.0,3.737,3.8008,3.906,3.9491,4.0038,4.0701,4.099,4.1363,4.1839,4.1948,4.2404,4.3069,4.3177,4.3474,4.3809,4.3809,4.3892,4.4005,4.4005,4.4005,4.4005,1.1322,1.1997,1.2674,1.2674,1.3451,1.4055,1.4055,1.4824,1.5665,1.6535,1.6698,1.6617,1.6617,1.669,1.7107,1.8175,1.8256,1.8816,2.0079,2.0961,2.1866,0.0,0.0,2.53,2.5241,2.6094,2.6533,2.6465,0.0,0.0,2.6533,0.0,2.6533,2.6533,2.6533,2.6533,2.6533,2.6533,2.6905,2.7484,2.7484,2.7855,2.8556,2.9296,2.956,2.9685,3.0326,3.0568,3.0568,3.0568,3.0568,3.0568,3.0568,3.0925,3.1394,3.1781,3.2216,3.2711,3.3187,3.3309,3.3309,3.3309,3.3309,3.3309,3.3309,3.3309,3.3309,3.3309,3.3761,3.4234,3.4738,3.5253,3.5571,3.5633,0.0,0.0,0.0,0.0,0.0,0.0,3.3658,3.3309,3.3309,0.0,0.0,0.0,0.0,0.0,0.0,0.0,0.0,3.6301,3.6301,0.0,3.6318,3.7094,3.7491,3.7525,3.8991,3.9698,3.9733,4.0683,4.1215,4.1426,4.1839,4.2074,4.2239,4.2657,4.3032,4.3406,4.3406,4.366,4.4005,4.4005,4.4005,4.4005,1.2254,1.2504,1.293,1.3535,1.4364,1.5108,1.5786,1.6617,1.7277,1.7513,1.7594,1.7836,1.8407,1.7917,1.7997,0.0,1.9728,2.0643,0.0,2.2702,2.3368,2.3768,2.4719,2.5312,2.5312,2.6094,2.6533,2.6533,0.0,0.0,0.0,2.6533,2.6533,2.6533,2.6533,2.6533,2.6521,2.6973,2.7284,2.7537,2.7986,2.8634,2.9282,2.9484,2.987,3.0312,3.0507,3.0568,3.0568,3.0568,3.0568,3.0642,3.0984,3.1394,3.1709,3.1879,3.2437,3.3118,3.324,3.3309,3.3309,3.3309,3.3309,3.3309,3.3309,3.3309,3.3309,3.3309,3.345,3.3694,3.4234,3.4464,3.469,3.5021,3.5052,0.0,0.0,0.0,0.0,0.0,3.3398,3.3309,0.0,3.3309,0.0,0.0,0.0,0.0,0.0,0.0,0.0,0.0,3.5098,0.0,3.5793,3.6093,3.6618,3.7491,3.8474,3.9491,4.0509,4.0832,4.1029,4.1233,4.1391,4.1692,4.2074,4.2302,4.2619,4.2996,4.2996,4.3069,4.3212,4.3474,4.3594,4.3627,1.319,1.3451,1.4041,1.488,1.553,1.6101,1.7017,1.7674,1.8078,1.8487,1.8789,1.9256,2.0138,2.0032,0.0,2.0216,2.0894,2.1735,2.267,2.3683,2.4264,2.4337,2.5087,2.5535,2.5535,0.0,0.0,2.6258,2.6258,2.6258,2.6258,2.6327,2.6396,2.6396,2.6465,2.6589,2.6714,2.7095,2.755,2.796,2.8338,2.9044,2.9775,2.9775,3.0144,3.0568,3.0568,3.0568,3.0568,3.0568,3.0702,3.0925,3.1234,3.1724,3.2145,3.2145,3.2726,3.3309,3.3309,3.3309,3.3309,3.3309,3.3309,3.3309,3.3309,3.345,3.3555,3.3346,3.3309,3.345,3.4,3.4101,3.4201,3.4513,3.4561,3.4366,3.3848,0.0,0.0,0.0,0.0,0.0,0.0,3.3309,0.0,0.0,0.0,0.0,0.0,0.0,0.0,3.4382,3.4642,0.0,3.5571,3.5616,3.6093,3.7042,3.8094,3.9232,4.044,4.075,4.0982,4.1093,4.1152,4.1391,4.1692,4.1839,4.2157,4.2483,4.2523,4.2657,4.2829,4.3105,4.3177,4.3212,1.4384,1.4992,0.0,0.0,1.6862,0.0,1.7997,1.8158,1.8559,1.9371,2.0207,2.0961,2.1756,2.2585,2.2734,2.1983,0.0,0.0,0.0,2.407,2.4564,2.4791,2.5535,2.598,2.598,2.598,2.6037,2.6037,2.591,2.591,2.6037,2.6131,2.6201,2.627,2.6465,2.6714,2.704,2.7108,2.7709,2.8587,2.8651,2.9226,3.0111,3.0111,3.028,3.0568,3.0568,3.0568,3.0628,3.0642,3.0925,3.1278,3.1394,3.1936,3.2586,3.2586,3.2942,3.3309,3.3309,3.3309,3.3309,3.3309,3.3309,3.3309,3.3309,3.371,3.3899,3.3398,3.3309,3.345,3.3949,3.405,3.4101,3.405,3.4101,3.3899,3.3361,0.0,0.0,0.0,0.0,0.0,0.0,3.3309,3.3309,0.0,0.0,0.0,0.0,0.0,3.4218,3.4673,3.469,3.4958,3.5526,3.5526,3.5827,3.6404,3.7836,3.8922,3.9715,4.0474,4.0931,4.1111,4.1111,4.1123,4.1209,4.1318,4.1596,4.199,4.2092,4.24,4.2734,4.2772,4.2772,4.2754,0.0,0.0,1.6706,1.7513,1.8238,1.8727,1.8975,2.0051,2.0971,2.1145,2.1897,2.2489,2.2649,2.2883,2.3169,2.3526,2.3683,2.3902,2.4131,2.5016,2.5535,2.5606,2.6164,2.6521,2.6521,2.6918,2.7121,2.7121,2.6314,2.6314,2.7121,2.6465,2.6533,2.7201,2.6985,2.7053,2.739,2.7987,2.8392,2.8651,2.9162,2.9665,3.0111,3.0111,3.028,3.0568,3.0568,3.0568,3.0628,3.0984,3.1234,3.1394,3.2104,3.2422,3.2586,3.2586,3.2942,3.3309,3.3309,3.3309,3.3309,3.3309,3.3309,3.3309,3.3309,3.3398,3.345,3.3361,3.3309,3.3346,3.345,3.3797,3.3949,3.3555,3.3848,3.3899,3.3361,3.3309,0.0,0.0,3.3309,3.3309,3.3309,3.3309,3.3309,0.0,0.0,0.0,0.0,3.3398,3.3555,3.3642,3.3642,3.4052,3.4958,3.5005,3.5723,3.7215,3.7577,3.8422,3.9698,3.9888,4.0366,4.0935,4.1047,4.1093,4.1123,4.1226,4.1346,4.1542,4.1587,4.1701,4.1899,4.2239,4.2342,4.24,1.7917,1.7594,1.7594,1.8407,1.8975,1.9529,2.0304,2.1221,2.1907,2.2285,2.3021,2.3537,2.3537,2.3841,2.4348,2.4992,2.4838,2.4838,2.5205,2.5931,2.6371,2.6371,2.6714,2.685,2.685,2.7108,2.7242,2.7242,2.6714,2.6577,2.6918,2.6726,2.6782,2.6973,2.7188,2.7456,2.7802,2.8197,2.8471,2.8651,2.8972,2.9415,2.9865,2.9865,3.0158,3.0568,3.0568,3.0568,3.0687,3.1161,3.1452,3.1724,3.2367,3.2765,3.2942,3.2942,3.3118,3.3309,3.3309,3.3309,3.3309,3.3309,3.3503,3.3607,3.3361,3.3503,3.3607,3.3346,3.3309,3.3309,3.3309,3.3555,3.3658,3.3361,3.3555,3.3642,3.3346,3.3309,0.0,3.3309,3.3309,3.3309,3.3309,3.3309,3.3309,3.3309,0.0,0.0,3.3309,3.3309,3.3309,3.3309,3.3309,3.3694,3.4464,3.469,3.5408,3.6635,3.696,3.7865,3.9198,3.9543,4.0129,4.0871,4.0982,4.1,4.1047,4.1105,4.1198,4.1261,4.138,4.1426,4.1542,4.1831,4.1941,4.1941,1.8399,1.8318,1.8479,1.952,1.9687,2.0226,2.1756,2.2059,2.2349,2.3095,2.3829,2.4264,2.4264,2.5004,2.5664,2.6164,2.5697,2.5685,2.6289,2.6769,2.6973,2.6973,2.7108,2.7108,2.7108,2.7108,2.7175,2.7242,2.7108,2.6837,2.6564,2.7027,2.7027,2.6756,2.7323,2.7802,2.821,2.821,2.8341,2.8587,2.8587,2.8972,2.954,2.9602,2.9974,3.0522,3.0628,3.0702,3.0807,3.1336,3.1709,3.2104,3.2547,3.3011,3.3309,3.3309,3.3309,3.3309,3.3309,3.3309,3.3309,3.3309,3.3658,3.3848,3.3398,3.3642,3.3848,3.3398,3.3309,3.3309,3.3309,3.3309,3.3309,3.3309,3.3309,3.3309,3.3309,0.0,3.3309,3.3309,3.3309,3.3309,3.3309,3.3309,3.3309,3.3309,3.3309,3.3309,0.0,3.3309,3.3309,3.3309,3.3309,3.3555,3.4101,3.4561,3.5052,3.5633,3.6243,3.7183,3.8439,3.9077,3.9853,4.0698,4.0698,4.0767,4.0935,4.1047,4.1093,4.1093,4.1307,4.138,4.1426,4.1515,4.156,4.156,2.0079,1.9608,1.9599,2.1145,2.1375,2.1756,2.266,2.3316,2.3818,2.3902,2.4636,2.5087,2.5087,2.5664,2.6094,2.6164,2.6892,2.7229,2.6905,2.6973,2.6973,2.6973,2.7443,2.7643,2.7643,2.7643,2.7908,2.8327,2.7443,2.7443,2.8183,2.7497,2.7577,2.8249,2.8066,2.821,2.8522,2.8522,2.8522,2.8587,2.8587,2.8844,2.9226,2.9477,2.9851,3.0294,3.094,3.1161,3.1321,3.2104,3.2437,3.2586,3.3065,3.324,3.3309,3.3309,3.3309,3.3309,3.3309,3.3309,3.3309,3.3309,3.3346,3.3398,3.3309,3.3346,3.3398,3.3309,3.3309,3.3309,3.3309,3.3309,3.3309,3.3309,3.3309,3.3309,3.3309,0.0,3.3309,3.3309,3.3309,3.3309,3.3309,3.3309,3.3309,3.3309,3.3309,3.3309,3.3309,3.3309,3.3309,3.3309,3.3309,3.3555,3.4101,3.4561,3.5052,3.5616,3.5735,3.6433,3.7663,3.7784,3.8577,3.9888,3.9888,4.0267,4.0888,4.0935,4.1,4.1093,4.114,4.1261,4.1426,4.1426,4.1426,4.1426,2.1756,2.1593,2.1507,2.2274,2.2435,2.2734,2.3463,2.3902,2.4264,2.4707,2.5087,2.5441,2.5734,2.6013,2.6427,2.704,2.751,2.7842,2.7855,2.7855,2.7855,2.7855,2.8118,2.8249,2.8249,2.8249,2.8327,2.8587,2.8118,2.7987,2.8183,2.8052,2.8039,2.8183,2.8327,2.8471,2.8587,2.8587,2.8587,2.8587,2.8587,2.878,2.9099,2.9289,2.954,2.9913,3.0613,3.097,3.119,3.216,3.2547,3.2656,3.3134,3.3309,3.3309,3.3309,3.3309,3.3309,3.3309,3.3309,3.3309,3.3309,3.3309,3.3309,3.3309,3.3309,3.3309,3.3309,3.3309,3.3309,3.3309,3.3309,3.3309,3.3309,3.3309,0.0,0.0,3.3309,3.3309,3.3309,3.3309,3.3309,3.3309,3.3309,3.3309,3.3309,3.3309,3.3309,3.3309,3.3309,3.3309,3.3309,3.3309,3.3398,3.3658,3.3882,3.4399,3.5161,3.5161,3.5977,3.7491,3.7491,3.8077,3.9129,3.9526,3.9905,4.0284,4.0698,4.0935,4.1,4.1047,4.114,4.1261,4.1272,4.1318,4.1318,2.2883,2.3032,2.3021,2.3254,2.3243,2.3537,2.4264,2.4409,2.4564,2.5229,2.5453,2.5664,2.6164,2.6427,2.6905,2.7709,2.7908,2.8183,2.8587,2.8587,2.8587,2.8587,2.8587,2.8587,2.8587,2.8587,2.8587,2.8587,2.8587,2.8392,2.7987,2.8392,2.8392,2.7987,2.8392,2.8587,2.8587,2.8587,2.8587,2.8587,2.8587,2.8716,2.8972,2.9099,2.9338,2.9775,3.0404,3.0881,3.1248,3.2231,3.2617,3.278,3.3187,3.3309,3.3309,3.3309,3.3309,3.3309,3.3309,3.3309,3.3309,3.3309,3.3309,3.3309,3.3309,3.3309,3.3309,3.3309,3.3309,3.3309,3.3309,3.3309,3.3309,3.3309,0.0,0.0,0.0,3.3309,3.3309,3.3309,3.3309,3.3309,3.3309,3.3309,3.3309,3.3309,3.3309,3.3309,3.3309,3.3309,3.3309,3.3309,3.3309,3.3309,3.3309,3.3309,3.3832,3.4769,3.4769,3.5648,3.7215,3.7215,3.7611,3.837,3.8939,3.9284,3.9491,4.0095,4.0353,4.0417,4.0654,4.0666,4.0574,4.0804,4.0902,4.092,2.2957,2.3032,2.3243,2.3902,2.4047,2.4264,2.5087,2.5229,2.5229,2.5312,2.5804,2.6164,2.6233,2.7108,2.7709,2.7776,2.8249,2.8522,2.8587,2.8587,2.8587,2.8587,2.8587,2.8587,2.8587,2.8587,2.8587,2.8587,2.8587,2.8587,2.8522,2.8587,2.8587,2.8522,2.8587,2.8587,2.8587,2.8587,2.8587,2.8587,2.8587,2.8587,2.8651,2.8972,2.9435,3.0072,3.0866,3.1537,3.2191,3.2812,3.3043,3.3096,3.3256,3.3309,3.3309,3.3309,3.3309,3.3309,3.3309,3.3309,3.3309,3.3309,3.3309,3.3309,3.3309,3.3309,3.3309,3.3309,3.3309,3.3309,3.3309,3.3309,3.3309,3.3309,0.0,0.0,3.3309,3.3309,3.3309,3.3309,3.3309,3.3309,3.3309,3.3309,3.3309,3.3309,3.3309,3.3309,3.3309,3.3309,3.3309,3.3309,3.3309,3.3309,3.3309,3.3309,3.3832,3.4769,3.4769,3.5362,3.6387,3.6387,3.6818,3.756,3.7629,3.8043,3.8681,3.8732,3.8767,3.8819,3.9508,3.9461,3.9049,3.9742,4.0002,4.0106,2.4348,2.4432,2.4492,2.4791,2.4862,2.4933,2.5229,2.5594,2.5873,2.5873,2.6358,2.6837,2.7175,2.7577,2.7908,2.8249,2.8457,2.8587,2.8587,2.8587,2.8587,2.8587,2.8587,2.8587,2.8587,2.8587,2.8587,2.8587,2.8587,2.8587,2.8587,2.8587,2.8587,2.8587,2.8587,2.8587,2.8587,2.8587,2.8587,2.8587,2.8587,2.8587,2.8651,2.9184,2.947,2.9813,3.0984,3.158,3.1992,3.2578,3.2881,3.3005,3.315,3.315,3.3203,3.3256,3.3309,3.3309,3.3309,3.3309,3.3309,3.3309,3.3309,3.3309,3.3309,3.3309,3.3309,3.3309,3.3309,3.3309,3.3309,3.3309,3.3309,3.3309,0.0,3.3309,3.3309,3.3309,3.3309,3.3309,3.3309,3.3309,3.3309,3.3309,3.3309,3.3309,3.3309,3.3309,3.3309,3.3309,3.3309,3.3309,3.3309,3.3309,3.3309,3.3309,3.3832,3.4769,3.4769,3.5328,3.6301,3.6301,3.6473,3.6766,3.7267,3.7646,3.7939,3.8405,3.8594,3.8629,3.8905,3.9174,3.9364,3.964,4.0395,4.1276,2.5158,2.5312,2.5312,2.5312,2.5453,2.5594,2.5594,2.6082,2.6427,2.6427,2.6905,2.7377,2.7789,2.7987,2.8183,2.8587,2.8587,2.8587,2.8587,2.8587,2.8587,2.8587,2.8587,2.8587,2.8587,2.8587,2.8587,2.8587,2.8587,2.8587,2.8587,2.8587,2.8587,2.8587,2.8587,2.8587,2.8587,2.8587,2.8587,2.8587,2.8587,2.8702,2.8944,2.9331,2.9752,3.024,3.1175,3.1709,3.1977,3.2468,3.2703,3.2827,3.3005,3.3058,3.3043,3.3203,3.3256,3.3256,3.3309,3.3309,3.3309,3.3309,3.3309,3.3309,3.3309,3.3309,3.3309,3.3309,3.3309,3.3309,3.3309,3.3309,3.3309,3.3309,3.3309,3.3309,3.3309,3.3309,3.3309,3.3309,3.3309,3.3309,3.3309,3.3309,3.3309,3.3309,3.3309,3.3309,3.3309,3.3309,3.3309,3.3309,3.3309,3.3309,3.3309,3.3309,3.3729,3.4593,3.4738,3.5237,3.6071,3.6216,3.6301,3.6335,3.687,3.7111,3.7146,3.7663,3.8025,3.8267,3.8491,3.8905,3.937,3.9612,4.0526,4.1681,2.5312,2.5312,2.5312,2.5312,2.5804,2.6233,2.6233,2.6633,2.704,2.704,2.7443,2.7776,2.7776,2.8249,2.8587,2.8587,2.8587,2.8587,2.8587,2.8587,2.8587,2.8587,2.8587,2.8587,2.8587,2.8587,2.8587,2.8587,2.8587,2.8587,2.8587,2.8587,2.8587,2.8587,2.8587,2.8587,2.8587,2.8587,2.8587,2.8587,2.8587,2.8994,2.9504,2.9504,3.0315,3.148,3.148,3.1879,3.2398,3.2523,3.2594,3.2648,3.2843,3.2897,3.2897,3.3058,3.3096,3.3096,3.3256,3.3309,3.3309,3.3309,3.3309,3.3309,3.3309,3.3309,3.3309,3.3309,3.3309,3.3309,3.3309,3.3309,3.3309,3.3309,3.3309,3.3309,3.3309,3.3309,3.3309,3.3309,3.3309,3.3309,3.3309,3.3309,3.3309,3.3309,3.3309,3.3309,3.3309,3.3309,3.3309,3.3309,3.3309,3.3309,3.3309,3.3309,3.3555,3.4101,3.4545,3.5068,3.5616,3.6071,3.6301,3.6301,3.6301,3.6301,3.6301,3.6301,3.6766,3.756,3.8301,3.8594,3.8681,3.9422,4.0215,4.1009,2.6483,2.6483,2.6483,2.6483,2.662,2.6769,2.6769,2.7242,2.7577,2.7577,2.8052,2.8392,2.8392,2.8522,2.8587,2.8587,2.8587,2.8587,2.8587,2.8587,2.8587,2.8587,2.8587,2.8587,2.8587,2.8587,2.8587,2.8587,2.8587,2.8587,2.8587,2.8587,2.8587,2.8587,2.8587,2.8587,2.8587,2.8587,2.8817,2.9219,2.9219,2.9642,3.0254,3.0733,3.1175,3.1537,3.1992,3.2231,3.2398,3.2453,3.2453,3.2523,3.2648,3.2773,3.2912,3.2951,3.2951,3.2951,3.3005,3.3005,3.3043,3.3256,3.3309,3.3309,3.3309,3.3309,3.3309,3.3309,3.3309,3.3309,3.3309,3.3309,3.3309,3.3309,3.3309,3.3309,3.3309,3.3309,3.3309,3.3309,3.3309,3.3309,3.3309,3.3309,3.3309,3.3309,3.3309,3.3309,3.3309,3.3309,3.3309,3.3309,3.3309,3.3309,3.3309,3.3309,3.3555,3.4101,3.4234,3.4738,3.5616,3.5749,3.5985,3.6301,3.6301,3.6611,3.7129,3.7129,3.7577,3.8284,3.8491,3.8905,3.9388,3.9612,4.0871,4.2575,2.6973,2.6973,2.6973,2.6973,2.7175,2.731,2.731,2.7776,2.8118,2.8118,2.8392,2.8587,2.8587,2.8587,2.8587,2.8587,2.8587,2.8587,2.8587,2.8587,2.8587,2.8587,2.8587,2.8587,2.8587,2.8587,2.8587,2.8587,2.8587,2.8587,2.8587,2.8587,2.8587,2.8587,2.8587,2.8587,2.8587,2.8587,2.8817,2.9156,2.9393,2.9889,3.0584,3.1233,3.1652,3.1879,3.2287,3.2398,3.2398,3.2398,3.2398,3.2398,3.2523,3.2594,3.2718,3.2773,3.2773,3.2773,3.2897,3.2897,3.2951,3.3096,3.3203,3.3256,3.3309,3.3309,3.3309,3.3309,3.3309,3.3309,3.3309,3.3309,3.3309,3.3309,3.3256,3.3203,3.3203,3.3203,3.3203,3.3203,3.3256,3.3309,3.3309,3.3256,3.3203,3.3203,3.3203,3.3256,3.3309,3.3309,3.3309,3.3309,3.3309,3.3309,3.3309,3.3561,3.381,3.4101,3.4284,3.4785,3.5633,3.5793,3.6199,3.6766,3.6766,3.7215,3.7922,3.7922,3.8353,3.9026,3.9026,3.9491,4.0164,4.0164,4.125,4.275,2.7175,2.7175,2.7175,2.7175,2.7577,2.7855,2.7855,2.8314,2.8587,2.8587,2.8587,2.8587,2.8587,2.8587,2.8587,2.8587,2.8587,2.8587,2.8587,2.8587,2.8587,2.8587,2.8587,2.8587,2.8587,2.8587,2.8587,2.8587,2.8587,2.8587,2.8587,2.8587,2.8587,2.8587,2.8587,2.8587,2.8587,2.8651,2.8716,2.883,2.9393,3.0072,3.0763,3.1364,3.1936,3.2398,3.2398,3.2398,3.2398,3.2398,3.2398,3.2398,3.2398,3.2398,3.2398,3.2523,3.2578,3.2648,3.2843,3.2843,3.2843,3.2843,3.2951,3.3096,3.3256,3.3309,3.3309,3.3309,3.3309,3.3309,3.3309,3.3309,3.3309,3.3293,3.3203,3.3112,3.3096,3.3112,3.3112,3.3112,3.3203,3.324,3.324,3.3212,3.319,3.319,3.3253,3.3323,3.3429,3.3482,3.3482,3.3482,3.3482,3.3482,3.3482,3.4083,3.4303,3.4198,3.4709,3.5252,3.5819,3.6233,3.6844,3.7577,3.7577,3.8008,3.8681,3.8681,3.9129,3.9802,3.9802,4.0233,4.0888,4.0888,4.1354,4.2112,2.8249,2.8249,2.8249,2.8249,2.8327,2.8457,2.8457,2.8522,2.8587,2.8587,2.8587,2.8587,2.8587,2.8587,2.8587,2.8587,2.8587,2.8587,2.8587,2.8587,2.8587,2.8587,2.8587,2.8587,2.8587,2.8587,2.8587,2.8587,2.8587,2.8587,2.8587,2.8587,2.8587,2.8587,2.8587,2.8587,2.8651,2.9107,2.9594,3.0162,3.0807,3.1465,3.1977,3.216,3.2287,3.2398,3.2398,3.2398,3.2398,3.2398,3.2398,3.2398,3.2398,3.2398,3.2398,3.2453,3.2453,3.2453,3.2523,3.2523,3.2523,3.2648,3.2703,3.2757,3.3096,3.3203,3.3309,3.3309,3.3309,3.3309,3.3309,3.3309,3.3256,3.315,3.3096,3.3058,3.2951,3.2951,3.2951,3.2951,3.2951,3.3005,3.3005,3.3435,3.3708,3.3708,3.4344,3.4682,3.4738,3.4865,3.4936,3.4936,3.4936,3.4936,3.4936,3.5078,3.5106,3.4961,3.56,3.6389,3.7326,3.742,3.7815,3.8353,3.8353,3.8767,3.9457,3.9457,3.9922,4.0629,4.0629,4.0733,4.0888,4.0888,4.1354,4.2181,2.8587,2.8587,2.8587,2.8587,2.8587,2.8587,2.8587,2.8587,2.8587,2.8587,2.8587,2.8587,2.8587,2.8587,2.8587,2.8587,2.8587,2.8587,2.8587,2.8587,2.8587,2.8587,2.8587,2.8702,2.9044,2.8766,2.8587,2.8587,2.8587,2.8587,2.8587,2.8587,2.8587,2.8587,2.8587,2.8587,2.8651,2.9219,2.969,3.0133,3.1116,3.1709,3.1992,3.2272,3.2398,3.2398,3.2398,3.2398,3.2398,3.2398,3.2398,3.2398,3.2398,3.2398,3.2398,3.2398,3.2398,3.2398,3.2398,3.2398,3.2398,3.2523,3.2523,3.2648,3.2935,3.3058,3.3112,3.3112,3.315,3.3203,3.3203,3.3203,3.3203,3.3096,3.2989,3.2827,3.2773,3.2773,3.2773,3.2773,3.2843,3.2983,3.3239,3.3892,3.4281,3.4281,3.4649,3.4951,3.5106,3.5194,3.5322,3.5394,3.5394,3.5394,3.5394,3.5726,3.6015,3.621,3.6473,3.702,3.7787,3.8069,3.8523,3.9112,3.9112,3.9543,4.0267,4.0267,4.0509,4.0888,4.0888,4.0888,4.0888,4.0888,4.1354,4.2112,2.8587,2.8587,2.8587,2.8587,2.8587,2.8587,2.8587,2.8587,2.8587,2.8587,2.8587,2.8587,2.8587,2.8587,2.8587,2.8587,2.8587,2.8587,2.8587,2.8587,2.8587,2.8587,2.8716,2.8994,2.9504,2.9218,2.899,2.8766,2.8651,2.8587,2.8587,2.8587,2.8706,2.893,2.893,2.9049,2.9325,2.9904,3.0187,3.0311,3.1501,3.1998,3.2056,3.2583,3.2752,3.2752,3.2752,3.2752,3.2752,3.2752,3.2752,3.2752,3.2752,3.2752,3.2752,3.2752,3.2752,3.2752,3.2752,3.2752,3.2721,3.2598,3.2622,3.2733,3.2804,3.2843,3.2897,3.2897,3.3005,3.3058,3.3058,3.3058,3.3043,3.3043,3.2757,3.2578,3.2578,3.2578,3.2624,3.2733,3.2998,3.3364,3.3795,3.4461,3.4864,3.4864,3.4973,3.5151,3.5352,3.541,3.554,3.5685,3.5685,3.5685,3.5685,3.6253,3.681,3.7342,3.7249,3.7569,3.821,3.8636,3.921,3.9905,3.9905,4.0267,4.0888,4.0888,4.0888,4.0888,4.0888,4.0888,4.0888,4.0888,4.1354,4.1992,2.8587,2.8587,2.8587,2.8587,2.8587,2.8587,2.8587,2.8587,2.8587,2.8587,2.8587,2.8587,2.8587,2.8587,2.8587,2.8587,2.8587,2.8587,2.8587,2.8587,2.8587,2.8587,2.9107,2.9393,2.9504,3.0554,3.0568,2.9393,2.8881,2.8587,2.8587,2.8587,2.9233,3.0361,3.0361,3.0963,3.2037,3.2665,3.2987,3.3048,3.3815,3.4066,3.4125,3.4183,3.4198,3.4198,3.4198,3.4198,3.4198,3.4198,3.4198,3.4198,3.4198,3.4198,3.4198,3.4198,3.4198,3.4198,3.4198,3.4198,3.4044,3.3413,3.3275,3.3177,3.2592,3.2703,3.2897,3.2897,3.2897,3.2897,3.2897,3.2897,3.2897,3.2703,3.2648,3.2578,3.2453,3.2453,3.2613,3.3198,3.3887,3.4287,3.438,3.5012,3.5397,3.5397,3.6059,3.6445,3.6506,3.6732,3.6867,3.6794,3.6883,3.6971,3.6971,3.7065,3.7247,3.7499,3.7899,3.8698,3.9698,3.9765,4.0129,4.0716,4.0716,4.0784,4.0888,4.0888,4.0888,4.0888,4.0888,4.0888,4.0888,4.0888,4.1354,4.1992,2.843,2.8509,2.8587,2.8587,2.8587,2.8587,2.8587,2.8587,2.8587,2.8587,2.8587,2.8587,2.8587,2.8881,2.9107,2.9107,2.9421,2.9638,2.9619,3.0003,3.0235,3.0224,3.0828,3.118,3.1117,3.1719,3.1719,3.1117,3.0892,3.0764,3.0764,3.042,3.074,3.1625,3.1268,3.1604,3.2538,3.3193,3.3501,3.3577,3.4224,3.4475,3.4475,3.4475,3.4475,3.4475,3.4475,3.4475,3.4475,3.4475,3.4475,3.4475,3.4475,3.4475,3.4475,3.4475,3.4475,3.4475,3.4475,3.4475,3.4398,3.4091,3.3998,3.3921,3.3629,3.3681,3.3593,3.2803,3.2648,3.2718,3.2718,3.2718,3.2703,3.2594,3.2832,3.3023,3.2967,3.329,3.366,3.3967,3.4614,3.5045,3.5045,3.5645,3.6045,3.6045,3.6384,3.66,3.6723,3.6831,3.6968,3.7015,3.706,3.7105,3.7105,3.7105,3.7329,3.7844,3.81,3.8684,3.9575,4.0357,4.0966,4.1526,4.1974,4.2164,4.2164,4.2164,4.1905,4.1492,4.1492,4.125,4.0888,4.0888,4.1095,4.1371]},{"header":{"parameterUnit":"m.s-1","parameterCategory":1,"la1":30.6,"la2":28.766,"lo1":-90.7593,"lo2":-88.6598,"dy":0.0162,"dx":0.0183,"nx":116,"ny":114,"refTime":"2023-08-18T06:00:00:Z","depth":0,"parameterNumber":3,"parameterNumberName":"V-component_of_WINDS"},"data":[0.0,0.0,0.0,0.0,0.0,0.0,0.0,0.0,0.0,0.0,0.0,0.0,0.0,0.0,0.0,0.0,0.0,0.0,0.0,0.0,0.0,0.0,0.0,0.0,0.0,0.0,0.0,0.0,0.0,0.0,0.0,0.0,0.0,0.0,0.0,0.0,0.0,0.0,0.0,0.0,0.0,0.0,0.0,0.0,0.0,0.0,0.0,0.0,0.0,0.0,0.0,0.0,0.0,0.0,0.0,0.0,0.0,0.0,0.0,0.0,0.0,0.0,0.0,0.0,0.0,0.0,0.0,0.0,0.0,0.0,0.0,0.0,0.0,0.0,0.0,0.0,0.0,0.0,0.0,0.0,0.0,0.0,0.0,0.0,0.0,0.0,0.0,0.0,0.0,0.0,0.0,0.0,0.0,0.0,0.0,0.0,0.0,0.0,0.0,0.0,0.0,0.0,0.0,0.0,0.0,0.0,0.0,0.0,0.0,0.0,0.0,0.0,0.0,0.0,0.0,0.0,0.0,0.0,0.0,0.0,0.0,0.0,0.0,0.0,0.0,0.0,0.0,0.0,0.0,0.0,0.0,0.0,0.0,0.0,0.0,0.0,0.0,0.0,0.0,0.0,0.0,0.0,0.0,0.0,0.0,0.0,0.0,0.0,0.0,0.0,0.0,0.0,0.0,0.0,0.0,0.0,0.0,0.0,0.0,0.0,0.0,0.0,0.0,0.0,0.0,0.0,0.0,0.0,0.0,0.0,0.0,0.0,0.0,0.0,0.0,0.0,0.0,0.0,0.0,0.0,0.0,0.0,0.0,0.0,0.0,0.0,0.0,0.0,0.0,0.0,0.0,0.0,0.0,0.0,0.0,0.0,0.0,0.0,0.0,0.0,0.0,0.0,0.0,0.0,0.0,0.0,0.0,0.0,0.0,0.0,0.0,0.0,0.0,0.0,0.0,0.0,0.0,0.0,0.0,0.0,0.0,0.0,0.0,0.0,0.0,0.0,0.0,0.0,0.0,0.0,0.0,0.0,0.0,0.0,0.0,0.0,0.0,0.0,0.0,0.0,0.0,0.0,0.0,0.0,0.0,0.0,0.0,0.0,0.0,0.0,0.0,0.0,0.0,0.0,0.0,0.0,0.0,0.0,0.0,0.0,0.0,0.0,0.0,0.0,0.0,0.0,0.0,0.0,0.0,0.0,0.0,0.0,0.0,0.0,0.0,0.0,0.0,0.0,0.0,0.0,0.0,0.0,0.0,0.0,0.0,0.0,0.0,0.0,0.0,0.0,0.0,0.0,0.0,0.0,0.0,0.0,0.0,0.0,0.0,0.0,0.0,0.0,0.0,0.0,0.0,0.0,0.0,0.0,0.0,0.0,0.0,0.0,0.0,0.0,0.0,0.0,0.0,0.0,0.0,0.0,0.0,0.0,0.0,0.0,0.0,0.0,0.0,0.0,0.0,0.0,0.0,0.0,0.0,0.0,0.0,0.0,0.0,0.0,0.0,0.0,0.0,0.0,0.0,0.0,0.0,0.0,0.0,0.0,0.0,0.0,0.0,0.0,0.0,0.0,0.0,0.0,0.0,0.0,0.0,0.0,0.0,0.0,0.0,0.0,0.0,0.0,0.0,0.0,0.0,0.0,0.0,0.0,0.0,0.0,0.0,0.0,0.0,0.0,0.0,0.0,0.0,0.0,0.0,0.0,0.0,0.0,0.0,0.0,0.0,0.0,0.0,0.0,0.0,0.0,0.0,0.0,0.0,0.0,0.0,0.0,0.0,0.0,0.0,0.0,0.0,0.0,0.0,0.0,0.0,0.0,0.0,0.0,0.0,0.0,0.0,0.0,0.0,0.0,0.0,0.0,0.0,0.0,0.0,0.0,0.0,0.0,0.0,0.0,0.0,0.0,0.0,0.0,0.0,0.0,0.0,0.0,0.0,0.0,0.0,0.0,0.0,0.0,0.0,0.0,0.0,0.0,0.0,0.0,0.0,0.0,0.0,0.0,0.0,0.0,0.0,0.0,0.0,0.0,0.0,0.0,0.0,0.0,0.0,0.0,0.0,0.0,0.0,0.0,0.0,0.0,0.0,0.0,0.0,0.0,0.0,0.0,0.0,0.0,0.0,0.0,0.0,0.0,0.0,0.0,0.0,0.0,0.0,0.0,0.0,0.0,0.0,0.0,0.0,0.0,0.0,0.0,0.0,0.0,0.0,0.0,0.0,0.0,0.0,0.0,0.0,0.0,0.0,0.0,0.0,0.0,0.0,0.0,0.0,0.0,0.0,0.0,0.0,0.0,0.0,0.0,0.0,0.0,0.0,0.0,0.0,0.0,0.0,0.0,0.0,0.0,0.0,0.0,0.0,0.0,0.0,0.0,0.0,0.0,0.0,0.0,0.0,0.0,0.0,0.0,0.0,0.0,0.0,0.0,0.0,0.0,0.0,0.0,0.0,0.0,0.0,0.0,0.0,0.0,0.0,0.0,0.0,0.0,0.0,0.0,0.0,0.0,0.0,0.0,0.0,0.0,0.0,0.0,0.0,0.0,0.0,0.0,0.0,0.0,0.0,0.0,0.0,0.0,0.0,0.0,0.0,0.0,0.0,0.0,0.0,0.0,0.0,0.0,0.0,0.0,0.0,0.0,0.0,0.0,0.0,0.0,0.0,0.0,0.0,0.0,0.0,0.0,0.0,0.0,0.0,0.0,0.0,0.0,0.0,0.0,0.0,0.0,0.0,0.0,0.0,0.0,0.0,0.0,0.0,0.0,0.0,0.0,0.0,0.0,0.0,0.0,0.0,0.0,0.0,0.0,0.0,0.0,0.0,0.0,0.0,0.0,0.0,0.0,0.0,0.0,0.0,0.0,0.0,0.0,0.0,0.0,0.0,0.0,0.0,0.0,0.0,0.0,0.0,0.0,0.0,0.0,0.0,0.0,0.0,0.0,0.0,0.0,0.0,0.0,0.0,0.0,0.0,0.0,0.0,0.0,0.0,0.0,0.0,0.0,0.0,0.0,0.0,0.0,0.0,0.0,0.0,0.0,0.0,0.0,0.0,0.0,0.0,0.0,0.0,0.0,0.0,0.0,0.0,0.0,0.0,0.0,0.0,0.0,0.0,0.0,0.0,0.0,0.0,0.0,0.0,0.0,0.0,0.0,0.0,0.0,0.0,0.0,0.0,0.0,0.0,0.0,0.0,0.0,0.0,0.0,0.0,0.0,0.0,0.0,0.0,0.0,0.0,0.0,0.0,0.0,0.0,0.0,0.0,0.0,0.0,0.0,0.0,0.0,0.0,0.0,0.0,0.0,0.0,0.0,0.0,0.0,0.0,0.0,0.0,0.0,0.0,0.0,0.0,0.0,0.0,0.0,0.0,0.0,0.0,0.0,0.0,0.0,0.0,0.0,0.0,0.0,0.0,0.0,0.0,0.0,0.0,0.0,0.0,0.0,0.0,0.0,0.0,0.0,0.0,0.0,0.0,0.0,0.0,0.0,0.0,0.0,0.0,0.0,0.0,0.0,0.0,0.0,0.0,0.0,0.0,0.0,0.0,0.0,0.0,0.0,0.0,0.0,0.0,0.0,0.0,0.0,0.0,0.0,0.0,0.0,0.0,0.0,0.0,0.0,0.0,0.0,0.0,0.0,0.0,0.0,0.0,0.0,0.0,0.0,0.0,0.0,0.0,0.0,0.0,0.0,0.0,0.0,0.0,0.0,0.0,0.0,0.0,0.0,0.0,0.0,0.0,0.0,0.0,0.0,0.0,0.0,0.0,0.0,0.0,0.0,0.0,0.0,0.0,0.0,0.0,0.0,0.0,0.0,0.0,0.0,0.0,0.0,0.0,0.0,0.0,0.0,0.0,0.0,0.0,0.0,0.0,0.0,0.0,0.0,0.0,0.0,0.0,0.0,0.0,0.0,0.0,0.0,0.0,0.0,0.0,0.0,0.0,0.0,0.0,0.0,0.0,0.0,0.0,0.0,0.0,0.0,0.0,0.0,0.0,0.0,0.0,0.0,0.0,0.0,0.0,0.0,0.0,0.0,0.0,0.0,0.0,0.0,0.0,0.0,0.0,0.0,0.0,0.0,0.0,0.0,0.0,0.0,0.0,0.0,0.0,0.0,0.0,0.0,0.0,0.0,0.0,0.0,0.0,0.0,0.0,0.0,0.0,0.0,0.0,0.0,0.0,0.0,0.0,0.0,0.0,0.0,0.0,0.0,0.0,0.0,0.0,0.0,0.0,0.0,0.0,0.0,0.0,0.0,0.0,0.0,0.0,0.0,0.0,0.0,0.0,0.0,0.0,0.0,0.0,0.0,0.0,0.0,0.0,0.0,0.0,0.0,0.0,0.0,0.0,0.0,0.0,0.0,0.0,0.0,0.0,0.0,0.0,0.0,0.0,0.0,0.0,0.0,0.0,0.0,0.0,0.0,0.0,0.0,0.0,0.0,0.0,0.0,0.0,0.0,0.0,0.0,0.0,0.0,0.0,0.0,0.0,0.0,0.0,0.0,0.0,0.0,0.0,0.0,0.0,0.0,0.0,0.0,0.0,0.0,0.0,0.0,0.0,0.0,0.0,0.0,0.0,0.0,0.0,0.0,0.0,0.0,0.0,0.0,0.0,0.0,0.0,0.0,0.0,0.0,0.0,0.0,0.0,0.0,0.0,0.0,0.0,0.0,0.0,0.0,0.0,0.0,0.0,0.0,0.0,0.0,0.0,0.0,0.0,0.0,0.0,0.0,0.0,0.0,0.0,0.0,0.0,0.0,0.0,0.0,0.0,0.0,0.0,0.0,0.0,0.0,0.0,0.0,0.0,0.0,0.0,0.0,0.0,0.0,0.0,0.0,0.0,0.0,0.0,0.0,0.0,0.0,0.0,0.0,0.0,0.0,0.0,0.0,0.0,0.0,0.0,0.0,0.0,0.0,0.0,0.0,0.0,0.0,0.0,0.0,0.0,0.0,0.0,0.0,0.0,0.0,0.0,0.0,0.0,0.0,0.0,0.0,0.0,0.0,0.0,0.0,0.0,0.0,0.0,0.0,0.0,0.0,0.0,0.0,0.0,0.0,0.0,0.0,0.0,0.0,0.0,0.0,0.0,0.0,0.0,0.0,0.0,0.0,0.0,0.0,0.0,0.0,0.0,0.0,0.0,0.0,0.0,0.0,0.0,0.0,0.0,0.0,0.0,0.0,0.0,0.0,0.0,0.0,0.0,0.0,0.0,0.0,0.0,0.0,0.0,0.0,0.0,0.0,0.0,0.0,0.0,0.0,0.0,0.0,0.0,0.0,0.0,0.0,0.0,0.0,0.0,0.0,0.0,0.0,0.0,0.0,0.0,0.0,0.0,0.0,0.0,0.0,0.0,0.0,0.0,0.0,0.0,0.0,0.0,0.0,0.0,0.0,0.0,0.0,0.0,0.0,0.0,0.0,0.0,0.0,0.0,0.0,0.0,0.0,0.0,0.0,0.0,0.0,0.0,0.0,0.0,0.0,0.0,0.0,0.0,0.0,0.0,0.0,0.0,0.0,0.0,0.0,0.0,0.0,0.0,0.0,0.0,0.0,0.0,0.0,0.0,0.0,0.0,0.0,0.0,0.0,0.0,0.0,0.0,0.0,0.0,0.0,0.0,0.0,0.0,0.0,0.0,0.0,0.0,0.0,0.0,0.0,0.0,0.0,0.0,0.0,0.0,0.0,0.0,0.0,0.0,0.0,0.0,0.0,0.0,0.0,0.0,0.0,0.0,0.0,0.0,0.0,0.0,0.0,0.0,0.0,0.0,0.0,0.0,0.0,0.0,0.0,0.0,0.0,0.0,0.0,0.0,0.0,0.0,0.0,0.0,0.0,0.0,0.0,0.0,0.0,0.0,0.0,0.0,0.0,0.0,0.0,0.0,0.0,0.0,0.0,0.0,0.0,0.0,0.0,0.0,0.0,0.0,0.0,0.0,0.0,0.0,0.0,0.0,0.0,0.0,0.0,0.0,0.0,0.0,0.0,0.0,0.0,0.0,0.0,0.0,0.0,0.0,0.0,0.0,0.0,0.0,0.0,0.0,0.0,0.0,0.0,0.0,0.0,0.0,0.0,0.0,0.0,0.0,0.0,0.0,0.0,4.068,0.0,0.0,0.0,0.0,0.0,0.0,0.0,0.0,0.0,0.0,0.0,0.0,0.0,0.0,0.0,0.0,0.0,0.0,0.0,0.0,0.0,0.0,0.0,0.0,0.0,0.0,0.0,0.0,0.0,0.0,0.0,0.0,0.0,0.0,0.0,0.0,0.0,0.0,0.0,3.0705,3.1332,3.1671,3.1008,3.0668,3.0738,0.0,0.0,0.0,0.0,0.0,0.0,0.0,0.0,0.0,0.0,0.0,0.0,0.0,0.0,0.0,0.0,0.0,0.0,0.0,0.0,0.0,0.0,0.0,0.0,0.0,0.0,0.0,0.0,0.0,0.0,0.0,0.0,0.0,0.0,0.0,0.0,0.0,0.0,0.0,0.0,0.0,0.0,0.0,0.0,0.0,0.0,0.0,0.0,0.0,0.0,0.0,0.0,0.0,0.0,0.0,0.0,0.0,0.0,0.0,0.0,0.0,0.0,0.0,0.0,0.0,0.0,0.0,0.0,0.0,0.0,0.0,4.1833,0.0,0.0,0.0,0.0,0.0,0.0,0.0,0.0,0.0,0.0,0.0,0.0,0.0,0.0,0.0,0.0,0.0,0.0,0.0,0.0,0.0,0.0,0.0,0.0,0.0,0.0,0.0,0.0,0.0,0.0,0.0,0.0,0.0,0.0,0.0,3.0015,3.069,3.1012,3.199,3.321,3.4583,3.4508,3.364,3.2191,3.2497,0.0,0.0,0.0,0.0,0.0,0.0,0.0,0.0,0.0,0.0,0.0,0.0,0.0,0.0,0.0,0.0,0.0,0.0,0.0,0.0,0.0,0.0,0.0,0.0,0.0,0.0,0.0,0.0,0.0,0.0,0.0,0.0,0.0,0.0,0.0,0.0,0.0,0.0,0.0,0.0,0.0,0.0,0.0,0.0,0.0,0.0,0.0,0.0,0.0,0.0,0.0,0.0,0.0,0.0,0.0,0.0,0.0,0.0,0.0,0.0,0.0,0.0,0.0,4.4441,4.4344,4.4191,4.4433,4.4374,4.4057,4.3076,4.2829,4.3126,0.0,0.0,0.0,0.0,0.0,0.0,0.0,0.0,0.0,0.0,0.0,0.0,0.0,0.0,0.0,0.0,0.0,0.0,0.0,0.0,0.0,0.0,2.6289,2.6427,2.5931,2.6769,2.7121,0.0,0.0,0.0,0.0,0.0,0.0,0.0,3.1187,3.2007,3.3419,3.4448,3.5613,3.6867,3.6441,3.6316,3.6369,3.5457,3.512,3.5246,0.0,0.0,0.0,0.0,0.0,0.0,0.0,0.0,0.0,0.0,0.0,0.0,0.0,0.0,0.0,0.0,0.0,0.0,0.0,0.0,0.0,0.0,0.0,0.0,0.0,0.0,0.0,0.0,0.0,0.0,0.0,0.0,0.0,0.0,0.0,0.0,0.0,0.0,0.0,0.0,0.0,3.7708,3.7865,0.0,0.0,0.0,0.0,0.0,0.0,0.0,0.0,0.0,0.0,0.0,0.0,0.0,0.0,4.2259,4.2499,4.2563,4.2466,4.2585,4.2449,4.21,4.2241,4.2116,4.1758,4.1943,0.0,4.4428,4.4112,0.0,0.0,0.0,0.0,0.0,0.0,0.0,0.0,0.0,0.0,0.0,0.0,0.0,0.0,0.0,0.0,0.0,0.0,0.0,0.0,0.0,2.6985,2.7053,2.6837,2.7564,2.7973,2.7696,0.0,0.0,0.0,0.0,3.1232,3.1375,3.2632,3.4185,3.6052,3.6627,3.7442,3.8346,3.2104,2.932,2.9258,2.209,2.2167,2.7474,2.5065,0.0,0.0,0.0,0.0,0.0,0.0,0.0,0.0,0.0,0.0,0.0,0.0,0.0,0.0,0.0,0.0,0.0,0.0,0.0,0.0,0.0,0.0,0.0,0.0,0.0,0.0,0.0,0.0,0.0,0.0,0.0,0.0,0.0,0.0,0.0,0.0,0.0,0.0,0.0,3.8664,3.9089,3.9478,4.005,4.0558,0.0,0.0,0.0,0.0,0.0,0.0,0.0,0.0,0.0,4.0544,4.113,4.1249,4.0872,4.0985,4.1198,4.1418,3.5768,3.2952,3.2538,2.6828,2.4146,2.4005,2.418,2.4705,2.6372,3.8016,4.2666,4.2432,0.0,0.0,0.0,0.0,4.1103,4.0414,0.0,0.0,0.0,0.0,0.0,0.0,0.0,0.0,0.0,0.0,0.0,0.0,2.7469,2.7656,2.7723,2.7523,2.8274,2.8661,2.8481,2.978,0.0,0.0,0.0,3.2336,3.2268,3.4345,3.626,3.7898,3.8359,3.8831,3.9108,2.8344,2.319,2.2379,1.0548,0.9548,1.662,1.3744,0.7996,0.0457,0.0,0.0,0.0,0.0,0.0,0.0,0.0,0.0,0.0,0.0,0.0,0.0,0.0,0.0,0.0,0.0,0.0,0.0,0.0,0.0,0.0,0.0,0.0,0.0,0.0,0.0,0.0,0.0,0.0,0.0,0.0,0.0,0.0,0.0,0.0,0.0,0.0,3.9808,4.0068,4.0588,4.0919,4.1284,0.0,0.0,0.0,0.0,0.0,0.0,3.9816,4.0226,4.0024,3.9059,3.9671,3.8584,3.5556,3.5538,3.4456,3.2249,2.4735,2.1019,2.0569,1.2987,0.9411,0.9166,0.9246,0.9167,1.0256,2.6895,3.3564,3.3292,3.3069,3.3006,3.2951,3.2619,3.2446,3.237,0.0,0.0,0.0,0.0,0.0,0.0,0.0,0.0,0.0,0.0,0.0,2.7868,2.7536,2.8105,2.8157,2.759,2.8712,2.9205,2.8532,2.978,3.0733,3.126,3.2018,3.3061,3.4493,3.6488,3.7857,3.8456,3.936,3.9598,3.8967,2.8175,2.2355,2.0527,0.8582,0.3742,0.4494,0.3185,0.1379,-0.0828,-0.3471,0.0,0.0,0.0,0.0,0.0,0.0,0.0,0.0,0.0,0.0,0.0,0.0,0.0,0.0,0.0,0.0,0.0,0.0,0.0,0.0,0.0,0.0,0.0,0.0,0.0,0.0,0.0,0.0,0.0,0.0,0.0,0.0,0.0,0.0,0.0,0.0,0.0,0.0,4.0039,4.0444,0.0,0.0,0.0,0.0,4.0305,3.98,3.9392,3.9057,3.8665,3.8405,3.8339,3.8375,3.3675,2.3767,2.364,1.8688,0.8896,0.8369,0.797,0.7651,0.7106,0.6356,0.5503,0.5886,0.5522,0.5119,1.0074,1.2157,1.2083,1.1499,1.1276,1.1194,1.0691,1.0343,1.013,0.0,0.0,0.0,0.0,0.0,0.0,0.0,0.0,0.0,2.7537,2.7855,2.821,2.8509,2.8495,2.8597,2.8762,2.9642,3.0025,2.978,3.0586,3.1102,3.1308,3.206,3.3516,3.5791,3.7439,3.8615,3.926,3.9477,3.6145,2.9288,1.732,0.7701,-0.0047,-1.3173,-1.9456,-1.9897,-1.3947,-1.6004,-2.35,-2.5964,-2.7366,0.0,0.0,0.0,0.0,0.0,0.0,0.0,0.0,0.0,0.0,0.0,0.0,0.0,0.0,0.0,0.0,0.0,0.0,0.0,0.0,0.0,0.0,0.0,0.0,0.0,0.0,0.0,0.0,0.0,0.0,0.0,0.0,0.0,0.0,0.0,0.0,0.0,4.0364,4.0608,0.0,4.0642,4.0457,4.0163,3.9735,3.9176,3.5849,2.892,2.826,2.4963,1.8162,1.7961,1.5867,1.1538,1.1488,0.943,0.5329,-0.1193,-0.438,-0.474,-1.1727,-1.5115,-1.5477,-1.5733,-1.6082,-1.6292,-1.479,-0.6211,0.5891,0.5273,0.5013,0.4956,0.477,0.4666,0.4578,0.0,0.0,0.0,0.0,0.0,0.0,0.0,0.0,0.0,2.8208,2.8314,2.8587,2.9035,2.9058,2.9156,2.9442,3.0329,3.0616,3.0219,3.0885,3.1259,3.1223,3.2692,3.4592,3.6946,3.8245,3.9223,3.9869,3.6161,3.0658,2.3285,0.7377,-0.4296,-1.2591,-2.5863,-3.2713,-3.3931,-2.7843,-2.9796,-3.7084,-3.8883,-3.9689,-3.9396,0.0,0.0,0.0,0.0,0.0,0.0,0.0,0.0,0.0,0.0,0.0,0.0,0.0,0.0,0.0,0.0,0.0,0.0,0.0,0.0,0.0,0.0,0.0,0.0,0.0,0.0,0.0,0.0,0.0,0.0,0.0,0.0,0.0,0.0,0.0,4.051,4.0715,4.0781,4.076,4.0548,4.0138,3.9637,3.9139,3.5299,2.9929,2.2829,1.8942,1.363,0.6439,0.617,0.4172,-0.0116,-0.0174,-0.2052,-0.5879,-1.2625,-1.5919,-1.6405,-2.3634,-2.7139,-2.7525,-2.8177,-2.8561,-2.8779,-2.9163,-2.117,-0.8572,-0.825,-0.8075,-0.8124,-0.8311,-0.8269,-0.8075,0.0,0.0,0.0,0.0,0.0,0.0,0.0,2.8789,2.8583,2.8651,2.8908,2.9099,2.9099,2.967,2.9889,2.9566,3.0718,3.0938,2.961,3.0614,3.1275,3.1146,3.3956,3.6273,3.7945,3.8984,3.9734,4.0184,2.9563,2.3572,2.1537,-0.0479,-1.2243,-1.5423,-2.7542,-3.4055,-3.5939,-3.7413,-3.8435,-3.9177,-3.9766,-4.0331,-4.082,0.0,0.0,0.0,0.0,0.0,0.0,0.0,0.0,0.0,0.0,0.0,0.0,0.0,0.0,0.0,0.0,0.0,0.0,0.0,0.0,0.0,0.0,0.0,0.0,0.0,0.0,0.0,0.0,0.0,0.0,0.0,0.0,0.0,4.0618,4.0779,4.0911,4.0976,4.0937,4.0712,4.0231,3.968,3.9102,3.8493,2.8334,2.1924,2.134,1.135,0.5262,0.4313,0.431,-0.0639,-1.105,-1.1188,-1.6122,-2.5951,-2.5938,-2.6327,-2.6886,-2.6979,-2.7631,-2.8779,-2.9369,-2.9932,-3.0586,-3.1769,-3.2268,-3.2048,-2.9761,-2.8807,-2.8884,-2.9414,-2.9289,-2.8757,0.0,0.0,0.0,0.0,0.0,0.0,0.0,2.9338,2.9324,2.9352,2.9162,2.9289,2.9803,2.9931,3.0147,3.0524,3.1161,3.1126,3.0256,3.0768,3.1486,3.2369,3.46,3.6443,3.7912,3.924,3.9971,4.0045,2.9156,1.9451,1.0779,-0.4842,-1.7081,-2.6242,-3.1683,-3.5093,-3.6758,-3.7944,-3.892,-3.9715,-4.006,-4.0444,-4.0811,0.0,0.0,0.0,0.0,0.0,0.0,0.0,0.0,0.0,0.0,0.0,0.0,0.0,0.0,0.0,0.0,0.0,0.0,0.0,0.0,0.0,0.0,0.0,0.0,0.0,0.0,0.0,0.0,0.0,0.0,0.0,0.0,4.0921,4.0953,4.0964,4.0937,4.0805,4.0722,4.0468,3.9967,3.8836,3.7931,3.7325,2.7552,1.8252,1.0542,0.1308,-0.7411,-1.5278,-1.5542,-1.7292,-2.106,-2.1495,-2.3343,-2.6496,-2.6907,-2.7216,-2.7414,-2.8377,-2.9209,-2.9973,-3.1093,-3.1942,-3.2478,-3.314,-3.3435,-3.3332,-3.2377,-3.1936,-3.2007,-3.2149,-3.2078,-3.1936,0.0,0.0,0.0,0.0,0.0,0.0,0.0,2.9792,2.9897,2.9645,2.9415,2.9477,3.005,3.0083,3.0358,3.1087,3.0982,3.0723,3.0258,3.0494,3.1447,3.3109,3.4843,3.6446,3.7924,3.924,3.9898,3.9875,2.4676,1.3368,0.5667,-1.1638,-2.3958,-3.175,-3.4363,-3.6334,-3.774,-3.8734,-3.9543,-4.0207,-4.0427,-4.0664,-4.0898,-4.0933,-4.0856,-4.0589,-3.9591,-3.6287,-3.0248,-1.5986,0.0,0.0,0.0,0.0,0.0,0.0,0.0,0.0,0.0,0.0,0.0,0.0,0.0,0.0,0.0,0.0,0.0,0.0,0.0,0.0,0.0,0.0,0.0,0.0,4.0896,4.1027,4.109,4.1015,4.0887,4.0729,4.0239,3.9723,3.9142,3.7809,3.6736,3.6092,2.299,1.2258,0.6016,-0.6952,-1.7111,-2.3538,-2.3976,-2.4459,-2.532,-2.5959,-2.6377,-2.6708,-2.7308,-2.772,-2.8068,-2.8971,-2.9752,0.0,-3.1653,-3.2482,-3.295,-3.3448,-3.376,0.0,0.0,0.0,0.0,0.0,-3.2895,-3.2672,0.0,0.0,0.0,0.0,0.0,0.0,0.0,2.9838,3.0163,2.9547,2.954,2.9741,2.9988,3.005,3.0401,3.1102,3.0542,3.0093,2.9969,3.0208,3.1341,3.3449,3.4778,3.6252,3.7849,3.9045,3.9646,3.9701,1.8614,0.7151,0.4409,-1.8717,-3.093,-3.3535,-3.5804,-3.7507,-3.8715,-3.9546,-4.0145,-4.0578,-4.0693,-4.0832,-4.0941,-4.0811,-4.0571,-4.0073,-3.8454,-3.6615,-3.2369,-1.5383,0.0,0.0,0.0,0.0,0.0,0.0,0.0,0.0,0.0,0.0,0.0,0.0,0.0,0.0,0.0,0.0,0.0,0.0,0.0,0.0,0.0,0.0,0.0,0.0,4.1003,4.0988,4.0969,4.0817,4.0684,4.0548,3.954,3.8601,3.7995,3.6666,3.555,3.4921,1.7862,0.6971,0.5712,0.0,0.0,0.0,0.0,-2.5115,-2.569,-2.6398,-2.6745,-2.6791,-2.7379,-2.7997,-2.8668,-2.9173,-2.975,-3.0448,-3.1502,-3.2223,-3.2641,-3.322,-3.3693,-3.4093,-3.4387,-3.4509,-3.4379,-3.3317,-3.266,-3.2201,0.0,0.0,0.0,0.0,0.0,0.0,0.0,2.908,2.9343,2.878,2.9261,2.9602,2.9665,2.9927,3.0172,3.0294,3.0406,3.0572,3.0767,3.1238,3.2006,3.3061,3.4527,3.596,3.732,3.8501,3.9323,3.9701,1.8269,0.6573,0.3761,-1.9274,-3.1543,-3.4354,-3.6158,-3.772,-3.9023,-3.965,-4.0045,-4.0281,-4.0369,-4.0511,-4.0625,-4.0185,-3.9571,-3.863,-3.6131,-3.4674,-3.1945,-1.8868,-1.0009,-0.2075,1.1657,2.0498,0.0,0.0,0.0,0.0,0.0,0.0,0.0,0.0,0.0,0.0,0.0,0.0,0.0,0.0,0.0,0.0,0.0,0.0,0.0,4.0989,4.0995,4.0779,4.0145,3.9831,3.9617,3.9438,3.8535,3.7662,3.695,3.5625,3.4588,3.407,2.2851,1.2892,0.5687,-0.5001,0.0,-2.2677,-2.3485,-2.4216,-2.5128,-2.6161,-2.6895,-2.7365,0.0,0.0,-2.8995,-2.9606,-3.0211,-3.0828,-3.1916,-3.2685,-3.3195,-3.4029,-3.4581,-3.4889,-3.4288,-3.4028,-3.4011,-3.3775,-3.3617,-3.3558,0.0,0.0,0.0,0.0,0.0,0.0,0.0,2.8948,2.9173,2.8903,2.8981,2.9198,2.954,2.9741,2.9913,3.0158,3.0218,3.0221,3.0283,3.0779,3.1428,3.2185,3.3565,3.4834,3.5867,3.7284,3.8366,3.9107,1.7695,0.5888,0.2874,-2.0454,-3.2961,-3.5972,-3.7607,-3.8807,-3.9552,-3.9683,-3.9755,-3.9714,-3.924,-3.8898,-3.8708,-3.8765,-3.8342,-3.7187,-3.3379,-3.1277,-2.8704,-1.7835,-0.9969,-0.2808,0.8416,1.6707,2.3444,0.0,0.0,0.0,0.0,0.0,0.0,0.0,0.0,0.0,0.0,0.0,0.0,0.0,0.0,4.066,0.0,0.0,4.0876,4.0972,4.0635,4.017,3.9663,3.8704,3.8143,3.8373,3.7479,3.6585,3.5959,3.4696,3.3689,3.3222,2.002,1.001,0.5489,-0.7577,-1.7262,-2.2469,-2.3395,-2.4239,-2.5005,-2.6136,-2.6811,-2.7093,-2.7898,-2.8432,-2.8748,-2.9545,-3.0145,-3.0707,-3.144,-3.2235,-3.3008,-3.3771,-3.4221,-3.4348,-3.3939,-3.4006,-3.4364,-3.3999,-3.3805,-3.3624,0.0,0.0,0.0,0.0,0.0,0.0,0.0,0.0,2.9047,2.8904,2.8651,2.8641,2.9149,2.9212,2.9324,2.9732,2.9822,2.9769,2.9534,3.0116,3.0738,3.1232,3.2416,3.3393,3.4069,3.568,3.6828,3.7551,1.8389,0.7196,0.323,-1.878,-3.1303,-3.5361,-3.7531,-3.873,-3.9135,-3.9116,-3.8878,-3.8413,-3.7728,-3.679,-3.5916,-3.6267,-3.6006,-3.4879,-3.0289,-2.7487,-2.448,-1.5652,-0.8896,-0.2678,0.6299,1.4009,2.0565,2.534,2.9824,0.0,0.0,0.0,0.0,0.0,0.0,0.0,0.0,0.0,4.08,4.0926,4.085,4.0851,4.1055,4.0957,4.0834,4.0794,4.0157,3.9513,3.9024,3.7638,3.6793,3.7151,3.6348,3.5562,3.501,3.3981,3.3136,3.2588,1.7408,0.7315,0.5366,-1.0265,-2.0236,-2.2506,-2.3644,-2.454,-2.516,-2.6297,-2.693,-2.7019,-2.7997,-2.848,-2.8622,-2.9585,-3.0234,-3.0575,-3.115,-3.1951,-3.288,-3.3447,-3.368,-3.3716,-3.3716,-3.4175,-3.4738,-3.4035,-3.3654,-3.3413,0.0,0.0,0.0,0.0,0.0,0.0,0.0,0.0,0.0,2.7582,2.7937,2.8168,2.7802,2.7749,2.7736,2.7802,2.9275,2.9925,2.9302,3.0319,3.094,3.0881,3.1462,3.1956,3.2295,3.3827,3.4428,3.4148,2.2575,1.362,0.6963,-0.922,-2.082,-2.8234,-3.2351,-3.4864,-3.604,-3.698,-3.6681,-3.5601,-3.5952,-3.4721,-3.2513,-3.167,-3.1059,-3.0271,-2.6956,-2.4011,-2.0862,-1.5043,-0.9604,-0.3847,0.4538,1.1535,1.7886,2.4711,2.9174,3.254,3.5535,3.8079,3.991,4.0216,4.0284,4.035,0.0,0.0,4.0933,4.0837,4.0953,4.1055,4.1099,4.1032,4.0776,4.0136,3.9794,3.9071,3.7564,3.6875,3.6243,3.5471,3.5135,3.4714,3.4178,3.3734,3.3189,3.2486,2.3062,1.3801,0.5664,-0.411,-1.3521,-2.2347,-2.3768,-2.4813,-2.5687,-2.6916,-2.7695,-2.8143,-2.8732,-2.9212,-2.9661,-3.0526,-3.0988,-3.105,-3.2039,-3.2924,-3.3758,-3.3847,-3.3969,-3.413,-3.413,-3.4288,-3.4479,-3.3844,-3.36,-3.3564,0.0,0.0,0.0,0.0,0.0,0.0,0.0,0.0,0.0,0.0,2.7847,2.7773,2.7939,2.768,2.7484,2.7484,2.8195,2.857,2.822,2.8671,2.8939,2.8876,2.9275,2.9704,3.0148,3.125,3.177,3.16,2.0852,1.3216,0.8333,-0.652,-1.6104,-2.1028,-2.5144,-2.7734,-2.9134,-3.036,-3.1006,-3.115,-3.0843,-2.9937,-2.8542,-2.6489,-2.4858,-2.3593,-2.2782,-2.0785,0.0,-1.2767,-0.8871,-0.4923,0.2561,0.8359,1.342,1.8948,2.4432,2.9829,3.4576,3.6993,3.8459,3.9515,3.989,4.0099,4.04,4.0533,4.0587,4.061,4.0831,4.0971,4.0939,4.0547,4.0129,0.0,3.8873,3.7907,3.705,3.6342,3.5705,3.5168,3.4944,3.4689,3.4221,3.3787,3.323,3.2613,2.4029,1.48,0.5668,-0.3135,-1.2423,-2.2274,-2.3755,-2.4996,-2.625,-2.7434,-2.8255,-2.8779,-2.9524,-2.9962,-3.0175,-3.105,-3.17,-3.2174,-3.2991,-3.3695,-3.4255,-3.4423,-3.4532,-3.4597,-3.4597,-3.4656,-3.4676,-3.4274,-3.4218,-3.433,0.0,0.0,0.0,0.0,0.0,0.0,0.0,0.0,0.0,0.0,0.0,2.7438,2.7678,2.7559,2.7249,2.6947,2.7271,2.7417,2.7217,2.7417,2.7484,2.7484,2.7736,2.8011,2.8292,2.8858,2.9038,2.8791,2.0758,1.4813,1.0596,-0.115,-0.8898,-1.3047,-1.7224,-2.0021,-2.182,-2.3271,-2.4645,-2.567,-2.5151,-2.4597,-2.3883,-2.1594,-1.9164,-1.7058,-1.8674,-1.762,-1.4961,-1.0905,-0.8111,-0.538,0.0875,0.5686,0.9932,1.4158,2.074,2.7628,3.2593,3.4988,3.6414,3.7867,3.8521,3.8933,3.945,3.9794,4.0051,4.0231,4.0451,4.0616,4.0701,4.009,3.9491,3.9307,3.8063,3.6972,3.6552,3.5918,3.5426,3.5239,3.5078,3.4904,3.4578,3.4012,3.3421,3.2929,2.4254,1.5008,0.5838,-0.3063,-1.2423,-2.2274,-2.3755,-2.5038,-2.6342,-2.7655,-2.8496,-2.8889,-2.9886,-3.0419,-3.0508,-3.1649,-3.2585,-3.336,-3.3839,-3.43,-3.4717,-3.4925,-3.5049,-3.51,-3.5095,-3.5111,-3.5111,-3.4897,-3.4868,-3.487,0.0,0.0,0.0,0.0,0.0,0.0,0.0,0.0,0.0,0.0,0.0,0.0,0.0,0.0,2.671,2.5489,2.6663,2.7217,2.6483,2.7082,2.7484,2.7484,2.7484,2.7351,2.7027,2.6966,2.6362,2.5354,2.4969,2.1434,1.493,1.0264,0.378,-0.3989,-0.8779,-1.2443,-1.5012,-1.6884,-1.819,-1.9161,-1.9558,-1.9216,-1.8217,-1.7225,-1.442,-1.1449,-1.4782,-1.4462,-1.2134,-1.012,-0.7865,-0.4963,-0.0263,0.4155,0.8332,1.2478,1.9614,2.6776,2.9362,3.1949,3.414,3.5082,3.5812,3.6575,3.7558,3.8534,3.9312,3.9578,3.9736,3.9965,4.0432,3.9796,3.9039,3.8519,3.7585,3.6621,3.5847,3.5591,3.5494,3.5488,3.5368,3.5268,0.0,3.444,3.3823,3.3419,2.4688,1.5417,0.6256,-0.2911,-1.2423,-2.2274,-2.3755,-2.4856,-2.5837,-2.747,-2.8304,-2.8336,-2.974,-3.0492,-3.0752,-3.246,-3.3688,-3.4457,-3.4457,-3.4756,-3.519,-3.5264,-3.54,-3.5588,-3.565,-3.5676,-3.5657,-3.5676,-3.5335,-3.4908,0.0,0.0,0.0,0.0,0.0,0.0,0.0,0.0,0.0,0.0,0.0,0.0,0.0,0.0,0.0,0.0,2.6318,2.63,2.5676,2.5405,2.5228,2.5228,2.4803,2.4446,2.4313,2.4279,2.3509,2.1868,2.1847,1.9744,1.5754,1.25,0.883,0.4758,0.0252,-0.3185,-0.5939,-0.8887,-1.0972,-1.2283,-1.3152,-1.2875,-1.1858,-1.0507,-0.878,-0.7118,0.0,-0.7523,-0.7785,-0.7173,-0.5598,-0.339,-0.0709,0.2376,0.6195,1.1916,1.5615,1.8802,2.3385,2.6339,2.8606,3.0656,3.289,3.4702,3.5035,3.6292,3.7435,3.753,3.8274,3.8958,3.909,3.8433,3.7842,3.7693,3.6648,3.5768,3.5533,3.5539,3.5545,3.5507,3.5415,0.0,0.0,0.0,0.0,3.3833,3.0618,2.465,1.543,0.6218,-0.3302,-1.3195,-2.022,-2.4801,-2.6806,-2.7743,-2.8856,-3.0185,-3.1455,-3.2219,-3.2572,-3.3495,-3.4184,-3.4699,-3.4757,-3.5032,-3.5463,-3.5492,-3.5541,-3.5597,-3.5617,-3.5622,-3.5622,-3.5622,-3.5515,-3.5374,0.0,0.0,0.0,0.0,0.0,0.0,0.0,0.0,0.0,0.0,0.0,0.0,0.0,0.0,0.0,0.0,0.0,2.5488,2.5157,2.4223,2.3683,2.3683,2.3243,2.3032,2.3032,2.2734,2.18,2.0324,2.0022,1.8603,1.6131,1.3901,1.1685,0.9593,0.625,0.3343,0.079,-0.2094,-0.4251,-0.5866,-0.6853,-0.7025,-0.6576,-0.5247,-0.4031,0.0,-0.1763,-0.1858,-0.2482,-0.3375,-0.2671,-0.1249,0.0268,0.2492,0.5398,1.0159,1.2129,1.3642,1.7769,2.0597,2.2888,2.5389,2.7782,2.9892,3.1013,3.2653,3.4071,3.4772,3.5779,3.671,3.7297,3.6509,3.5964,3.6599,3.5606,3.4793,3.4886,3.5095,3.5269,3.5314,3.5299,3.5343,0.0,0.0,0.0,3.4394,3.3833,2.9543,2.0406,1.4075,0.4696,-0.8481,-1.5236,-2.1412,-2.723,-2.804,-2.9518,-3.1757,-3.2795,-3.3549,-3.4008,-3.4393,-3.475,-3.5056,-3.5057,-3.5204,-3.5505,-3.554,-3.5566,-3.5566,-3.5585,-3.5604,-3.5604,-3.5604,-3.5604,-3.5605,0.0,0.0,0.0,0.0,0.0,0.0,0.0,0.0,0.0,0.0,0.0,0.0,0.0,0.0,0.0,0.0,0.0,0.0,2.4912,2.3702,2.299,2.299,2.2894,2.2883,2.2883,2.2059,2.1211,2.0343,1.959,1.8167,1.6312,1.4754,1.288,1.0671,0.9056,0.7207,0.5073,0.3379,0.1595,-0.0176,-0.0886,-0.1683,-0.2385,-0.1418,-0.0089,0.1332,0.1332,0.24,0.3383,0.098,0.0623,0.1423,0.2593,0.4028,0.5633,0.7291,0.9258,1.1327,1.2934,1.4955,1.7218,1.941,2.0823,2.2537,2.5653,2.7728,2.9507,3.1399,3.232,3.3306,0.0,0.0,3.3547,3.51,3.4386,3.3682,3.3864,3.424,3.4598,0.0,0.0,0.0,0.0,0.0,0.0,3.4943,0.0,3.0097,2.1685,2.0233,1.1364,-0.6851,-0.8734,-1.4893,-2.6322,-2.8139,-3.0353,-3.3037,-3.3763,-3.4408,-3.499,-3.5162,-3.5341,-3.5508,-3.5347,-3.5263,-3.5281,-3.5401,-3.5456,-3.5471,-3.5528,-3.5539,-3.5539,-3.5551,-3.5551,-3.5567,0.0,0.0,0.0,0.0,0.0,0.0,0.0,0.0,0.0,0.0,0.0,0.0,0.0,0.0,0.0,0.0,0.0,0.0,2.5421,2.3612,2.2516,2.2516,2.1722,2.1242,2.1242,2.0382,1.9511,1.8621,1.7747,1.6788,1.5673,1.5235,1.4035,1.2151,1.1193,0.9465,0.7302,0.5601,0.409,0.2757,0.249,0.2311,0.2311,0.3109,0.4092,0.5078,0.5078,0.5349,0.5351,0.3383,0.2405,0.232,0.3304,0.3931,0.4732,0.6949,0.7629,0.8024,0.9665,1.1016,1.2324,1.3634,1.6632,1.9561,2.0451,2.3475,2.6373,2.7453,2.8909,3.0332,0.0,0.0,0.0,3.209,3.1679,0.0,3.2072,3.2672,0.0,3.3132,0.0,3.3874,3.398,3.3889,0.0,0.0,3.427,3.3534,3.1264,2.4419,1.8174,1.2933,0.1444,-0.8189,-1.5591,-2.6176,-3.2533,-3.4614,-3.5416,-3.5875,-3.6015,-3.5809,-3.5744,-3.5766,-3.513,-3.4855,-3.4865,-3.4944,-3.4971,-3.4957,-3.4729,-3.4628,-3.4668,-3.4965,-3.5078,-3.5211,0.0,0.0,0.0,0.0,0.0,0.0,0.0,0.0,0.0,0.0,0.0,0.0,0.0,0.0,0.0,0.0,0.0,0.0,0.0,2.3179,2.2141,2.2141,2.1322,2.0859,2.0859,2.0194,1.945,1.8567,1.7674,1.678,1.5989,1.5242,1.4307,1.3105,1.2401,1.1123,0.9327,0.8066,0.7011,0.0,0.0,0.5513,0.5695,0.6045,0.6763,0.7485,0.7485,0.7749,0.7746,0.0,0.0,0.4372,0.5171,0.5262,0.5265,0.6602,0.6694,0.6694,0.7918,0.8657,0.9475,1.1102,1.3424,1.5759,1.7291,1.9771,2.2136,2.3687,2.5031,2.6505,2.825,2.8426,0.0,0.0,0.0,0.0,3.1466,3.2035,3.2494,0.0,3.287,0.0,3.3138,3.2865,3.2573,0.0,3.3211,3.374,3.3835,2.8402,2.3144,1.8453,0.9751,0.0152,-1.0246,-2.2238,-2.8767,-2.9852,-3.2645,-3.3648,-3.3052,-3.4168,-3.4329,-3.3705,0.0,-3.3915,-3.391,-3.3954,-3.397,-3.397,-3.4009,-3.4,-3.4046,-3.4485,-3.4639,-3.4741,0.0,0.0,0.0,0.0,0.0,0.0,0.0,0.0,0.0,0.0,0.0,0.0,0.0,0.0,0.0,0.0,0.0,0.0,0.0,0.0,0.0,2.1973,2.1553,2.1289,2.123,2.0771,2.0068,1.9134,1.8238,1.735,1.6542,1.5144,1.4307,1.3789,1.319,1.2254,1.1068,1.0433,0.9653,0.889,0.8348,0.799,0.799,0.0,0.0,0.9065,0.9152,0.9593,1.0033,0.0,0.8185,0.6868,0.7489,0.7224,0.6782,0.6871,0.6782,0.6871,0.7485,0.7573,0.8009,1.0361,1.1058,1.198,1.5202,1.6563,1.7817,2.0342,2.1312,2.2578,2.5375,2.5813,2.6582,2.8915,0.0,3.0001,3.0908,3.1339,3.1839,3.2589,3.2154,3.1918,3.2231,3.1597,3.1005,3.0694,3.121,3.1844,3.243,3.1521,2.643,1.6532,1.5365,0.7389,-0.8229,-1.7441,-2.2295,-2.2959,-2.7941,-2.9671,-2.8504,-3.1077,-3.1573,-3.0551,0.0,0.0,-3.2372,-3.2372,-3.2429,-3.2559,-3.293,-3.3024,-3.2969,-3.3549,-3.3748,-3.3731,0.0,0.0,0.0,0.0,0.0,0.0,0.0,0.0,0.0,0.0,2.8973,2.8973,0.0,0.0,0.0,0.0,0.0,0.0,0.0,0.0,0.0,0.0,2.2002,2.1602,2.124,2.041,1.9452,1.8247,1.735,1.646,1.5582,1.534,1.4908,1.4307,1.4139,1.3203,1.1585,1.1408,1.0448,0.8978,0.9419,0.924,0.8798,0.0,0.0,0.0,1.0463,1.0722,1.0895,1.1305,1.0091,0.8452,0.8627,0.854,0.8627,0.9157,0.8982,0.8452,0.8627,0.7918,0.7471,0.8682,0.9726,1.0849,1.2196,1.4149,0.0,0.0,1.9173,2.0352,2.2477,2.3307,2.4053,2.519,2.6077,2.6836,2.7481,2.808,2.867,0.0,2.9219,2.9325,2.9989,0.0,0.0,0.0,0.0,2.8957,3.1629,3.1524,2.7261,1.8179,1.4156,0.5931,-0.7085,-1.3957,-1.9228,-2.2923,-2.5977,-2.7292,-2.705,-2.746,-2.7877,-2.8336,-2.7865,0.0,-2.969,-2.969,-3.0022,-3.0555,-3.0371,-2.9923,-2.9549,-3.0619,-3.092,-3.0888,0.0,0.0,0.0,0.0,0.0,0.0,0.0,2.9456,2.9456,2.9456,2.9456,2.9378,2.9275,2.9131,2.8712,0.0,0.0,0.0,0.0,0.0,0.0,0.0,0.0,0.0,0.0,2.1259,2.0517,1.9694,0.0,1.7368,1.6714,1.5831,1.5257,1.4908,1.4908,1.423,1.3118,1.2699,1.1837,1.0712,1.0733,1.0472,0.0,0.0,0.0,0.0,0.0,0.0,1.2272,1.2607,1.2089,1.1139,1.0702,1.0274,1.0024,1.0376,1.0289,0.9937,0.9593,0.9323,0.9309,1.0255,1.1198,1.2145,1.2996,0.0,0.0,0.0,1.7641,1.8762,2.0585,2.22,0.0,2.4505,2.5632,2.6673,2.7395,2.7714,0.0,2.8703,2.8111,2.7857,0.0,0.0,0.0,0.0,0.0,2.7145,2.8962,2.7602,2.4092,1.8269,1.3522,0.7721,0.0796,-0.6689,-1.1516,-1.3711,-1.8477,-2.035,-1.9747,-2.2546,-2.3624,-2.3358,-2.5025,0.0,-2.6243,-2.6687,-2.7042,-2.7381,-2.7478,-2.7607,-2.7764,-2.8587,-2.8834,-2.8819,0.0,0.0,0.0,0.0,0.0,0.0,0.0,2.9792,2.9792,2.9792,2.9792,2.9702,2.9509,2.9365,2.8949,0.0,0.0,0.0,0.0,0.0,0.0,0.0,0.0,0.0,0.0,0.0,0.0,2.1115,1.9504,0.0,0.0,0.0,0.0,0.0,0.0,1.4999,1.4398,1.3881,1.331,0.0,0.0,1.1925,0.0,0.0,0.0,0.0,0.0,0.0,1.3646,1.3815,1.373,1.347,1.2936,1.2174,1.1499,1.1499,1.1413,1.1154,1.0641,1.0727,1.1154,1.218,1.2778,1.3451,1.4475,1.4734,0.0,1.5891,1.6617,1.7577,1.9344,2.138,2.3165,0.0,2.5673,2.6867,2.7472,2.7604,2.7788,0.0,2.7412,0.0,2.6944,0.0,0.0,0.0,0.0,0.0,2.5806,2.3498,2.0727,1.7735,1.3552,1.0253,0.7644,0.0086,-0.408,-0.4788,-1.0996,-1.3303,-1.2314,-1.7286,-1.9051,-1.8255,-2.1586,0.0,0.0,-2.3383,-2.3835,-2.4037,-2.4564,-2.5087,-2.5549,-2.6097,-2.6327,-2.6235,0.0,0.0,0.0,0.0,0.0,0.0,0.0,2.9792,2.9792,2.9792,2.9792,2.9792,2.9792,2.9792,2.9275,0.0,0.0,0.0,0.0,0.0,0.0,0.0,0.0,0.0,0.0,0.0,0.0,2.093,0.0,0.0,0.0,0.0,0.0,0.0,0.0,0.0,1.4412,1.4692,0.0,0.0,0.0,0.0,0.0,0.0,0.0,0.0,0.0,0.0,1.4398,0.0,0.0,1.4398,1.4908,1.4237,1.3222,1.3222,0.0,0.0,1.2192,1.1413,1.0977,1.2528,1.2699,1.2778,1.4314,0.0,1.4985,1.5891,1.6131,1.678,1.8718,2.0459,2.1899,0.0,0.0,2.5511,2.5569,2.5569,2.5849,2.6539,0.0,0.0,2.6504,0.0,0.0,0.0,0.0,0.0,2.2994,2.1924,1.987,1.6766,1.4996,1.1882,0.7232,0.2794,-0.0788,-0.3542,-0.7891,-0.9633,-0.903,-1.2451,-1.4234,-1.4703,-1.6157,0.0,0.0,-1.9608,-2.037,-2.109,-2.1688,-2.158,-2.106,-2.187,-2.2115,-2.1903,0.0,0.0,0.0,0.0,0.0,0.0,2.9792,2.9792,2.9792,2.9792,2.9792,2.9792,2.9792,2.9792,2.9624,2.9184,0.0,0.0,0.0,0.0,0.0,0.0,0.0,0.0,0.0,0.0,0.0,2.2068,2.0937,0.0,0.0,0.0,0.0,0.0,0.0,0.0,0.0,0.0,0.0,0.0,0.0,0.0,0.0,0.0,0.0,0.0,0.0,0.0,1.534,0.0,0.0,0.0,1.5347,1.5006,0.0,0.0,1.3808,1.3548,1.3137,1.2954,1.3027,1.3717,1.3977,1.4314,1.4999,0.0,1.5249,1.5575,1.6542,1.7513,1.8238,2.0178,2.1952,0.0,0.0,0.0,2.5241,2.5312,2.5382,2.5721,2.5245,0.0,0.0,0.0,0.0,0.0,0.0,0.0,1.9127,1.8329,1.6377,1.3012,1.2421,1.0363,0.6747,0.4509,0.2389,0.0356,-0.2834,-0.5051,-0.631,-0.8182,-0.9814,-1.1315,-1.3844,0.0,0.0,-1.6823,-1.7194,-1.7047,-1.7914,-1.8011,-1.7826,-1.8725,-1.8952,-1.8855,0.0,0.0,0.0,0.0,0.0,2.9792,2.9792,2.9792,2.9792,2.9792,2.9792,2.9792,2.9792,2.9792,2.9792,2.9792,2.9106,0.0,0.0,0.0,0.0,0.0,0.0,0.0,0.0,0.0,2.3527,2.3313,2.215,2.1021,0.0,0.0,0.0,0.0,0.0,0.0,0.0,0.0,0.0,0.0,0.0,0.0,0.0,0.0,0.0,0.0,0.0,0.0,0.0,0.0,0.0,0.0,0.0,1.5431,1.5347,0.0,1.4566,1.4314,1.3808,1.3893,1.4146,1.4314,1.4741,1.5173,0.0,0.0,1.5431,1.5431,1.655,1.7674,1.7917,2.01,2.2038,2.2872,2.3829,2.4636,2.5229,2.5312,2.5312,0.0,0.0,0.0,0.0,0.0,0.0,0.0,0.0,0.0,0.0,1.5455,1.3937,1.1477,1.0611,0.9126,0.6943,0.5346,0.4285,0.3585,0.0446,-0.1876,-0.34,-0.5315,-0.689,-0.8325,0.0,0.0,0.0,-1.3717,-1.3871,-1.3336,-1.4205,-1.4518,-1.4559,-1.524,-1.5584,-1.5584,0.0,0.0,0.0,0.0,0.0,0.0,2.9792,2.9792,2.9792,2.9792,2.9792,2.9792,2.9792,2.9792,2.9792,2.9792,2.9792,0.0,0.0,0.0,0.0,0.0,0.0,0.0,0.0,0.0,2.3927,2.4196,2.3018,2.2208,2.1924,1.9749,1.8515,1.824,0.0,0.0,0.0,0.0,0.0,0.0,0.0,0.0,0.0,0.0,0.0,0.0,0.0,0.0,0.0,0.0,0.0,0.0,0.0,1.5431,1.5431,1.5431,1.4908,1.4398,1.4391,1.3899,1.3561,1.423,1.4398,1.4566,1.5257,1.5431,1.5431,1.5431,1.6064,1.6944,1.7836,2.0003,2.2006,2.2872,2.4276,0.0,2.5312,2.5312,2.5312,0.0,0.0,0.0,0.0,0.0,0.0,0.0,0.0,0.0,0.0,1.3873,1.3398,1.3398,1.0687,0.8869,0.8181,0.5171,0.4208,0.5203,0.0982,-0.0625,-0.0179,-0.4353,-0.6042,0.0,0.0,0.0,0.0,-0.9981,-1.0235,-1.0322,-1.0989,-1.1235,-1.1235,-1.1235,-1.1412,-1.1588,0.0,0.0,0.0,0.0,0.0,0.0,0.0,2.9792,2.9792,2.9792,2.9792,2.9792,2.9792,2.9792,2.9792,2.9792,2.9792,0.0,0.0,0.0,0.0,0.0,0.0,0.0,0.0,0.0,2.4669,2.4206,2.3657,2.3028,2.2217,2.1016,1.9872,1.8787,1.7979,0.0,0.0,0.0,0.0,0.0,0.0,0.0,0.0,0.0,0.0,0.0,0.0,0.0,0.0,0.0,0.0,0.0,0.0,0.0,0.0,1.5431,1.5257,1.5082,1.5082,1.4922,1.4831,1.5006,1.5082,1.5173,1.534,1.5431,1.559,1.6147,1.6944,1.7836,1.8727,1.9982,2.1375,2.2798,2.3401,2.4131,0.0,0.0,0.0,2.5312,0.0,0.0,0.0,0.0,0.0,0.0,0.0,0.0,0.0,1.3808,1.2973,1.2032,1.1073,0.9937,0.8452,0.7478,0.6517,0.5565,0.4208,0.2324,-0.0,-0.1338,0.0,0.0,0.0,0.0,0.0,-0.9126,-0.9122,-0.8607,-0.9461,-0.9461,-0.8943,-0.9634,-0.9889,-0.9889,0.0,0.0,0.0,0.0,0.0,0.0,0.0,2.9792,2.9792,2.9792,2.9792,2.9792,2.9792,2.9792,2.9792,2.9792,2.9792,0.0,0.0,0.0,0.0,0.0,0.0,0.0,0.0,2.583,2.5337,2.4765,2.4348,2.3744,2.3028,2.2217,2.1311,2.0314,1.9255,1.8619,0.0,0.0,0.0,0.0,0.0,0.0,1.7613,0.0,0.0,0.0,0.0,0.0,0.0,0.0,0.0,0.0,0.0,0.0,0.0,0.0,1.5756,1.559,1.5431,1.5431,1.5431,1.5431,1.5431,0.0,1.5431,1.5431,1.5665,1.6542,1.7432,1.8318,1.9213,2.0391,2.1558,2.2894,2.3338,2.3841,0.0,0.0,0.0,0.0,0.0,0.0,0.0,0.0,0.0,0.0,0.0,0.0,0.0,1.3646,1.2717,1.1354,1.0997,1.0207,0.9069,0.8368,0.7408,0.6183,0.5833,0.448,0.2147,0.0626,0.0,0.0,0.0,0.0,0.0,-0.7665,-0.7492,-0.7058,-0.7665,-0.7492,-0.7058,-0.7665,-0.7834,-0.7918,0.0,0.0,0.0,0.0,0.0,0.0,0.0,2.9792,2.9792,2.9792,2.9792,2.9792,2.9792,2.9792,2.9792,2.9792,0.0,0.0,0.0,0.0,0.0,0.0,0.0,0.0,2.7232,2.64,2.5902,2.5819,2.502,2.4454,2.4206,2.3193,2.2648,2.2394,2.0692,1.9985,1.9803,0.0,0.0,0.0,0.0,0.0,0.0,0.0,0.0,0.0,0.0,0.0,0.0,0.0,0.0,0.0,0.0,0.0,0.0,0.0,0.0,0.0,0.0,1.5431,1.5431,1.5506,1.5506,1.559,1.559,1.5673,0.0,1.678,1.7585,1.8479,1.952,2.1011,2.2327,2.3139,2.3936,0.0,0.0,0.0,0.0,0.0,0.0,0.0,0.0,0.0,0.0,0.0,0.0,0.0,0.0,1.3398,1.2717,1.1354,1.0472,0.9946,0.9772,0.8105,0.7139,0.6962,0.6094,0.5657,0.5568,0.2058,0.0,0.0,0.0,0.0,0.0,-0.5489,-0.5489,-0.5489,-0.5489,-0.5489,-0.5489,-0.5489,-0.5484,-0.5476,0.0,0.0,0.0,0.0,0.0,0.0,0.0,0.0,0.0,0.0,2.9792,2.9792,2.9792,2.9792,2.9792,0.0,0.0,0.0,0.0,0.0,0.0,0.0,0.0,0.0,2.8211,2.7959,2.7221,2.5819,2.5579,2.5094,2.4368,2.3657,2.3028,2.2561,2.1686,2.0791,1.9894,1.9621,0.0,0.0,0.0,0.0,0.0,0.0,0.0,0.0,1.9513,1.9575,0.0,0.0,0.0,0.0,0.0,0.0,0.0,0.0,1.6648,1.6492,1.6409,0.0,1.6079,1.6535,1.6862,1.7286,0.0,1.7891,1.8132,1.8939,1.9344,1.9747,2.0644,2.1118,2.1863,2.3243,2.3599,2.3902,0.0,0.0,0.0,0.0,0.0,0.0,0.0,0.0,0.0,0.0,0.0,0.0,0.0,1.3398,1.2717,1.1354,1.1089,1.0299,0.8807,0.8368,0.7489,0.5997,0.5833,0.5662,0.5668,0.4768,0.0,0.0,0.0,0.0,-0.3587,-0.3587,-0.3587,-0.3587,-0.3587,-0.3587,-0.3587,-0.3587,-0.3587,-0.3585,0.0,0.0,0.0,0.0,0.0,0.0,0.0,0.0,0.0,0.0,0.0,0.0,0.0,0.0,0.0,0.0,0.0,0.0,0.0,0.0,0.0,0.0,0.0,2.9546,2.9131,2.8712,2.7799,2.64,2.5986,2.5337,2.4454,2.411,2.3831,2.3454,2.2853,2.1961,2.1051,2.0791,2.061,2.0439,1.9977,0.0,0.0,0.0,0.0,0.0,2.0782,2.0837,0.0,2.0922,2.0578,2.0044,0.0,0.0,0.0,0.0,1.8006,1.7917,1.7917,1.7367,1.6886,1.7269,1.7747,1.823,1.8523,1.8594,1.8841,1.9737,0.0,2.0226,2.1195,2.1645,2.2295,2.3463,2.3975,0.0,0.0,0.0,0.0,0.0,0.0,0.0,0.0,0.0,0.0,0.0,0.0,0.0,0.0,1.3398,1.2717,1.1354,1.1262,1.0824,0.9772,0.8894,0.8017,0.6966,0.6091,0.5744,0.566,0.4764,0.332,0.0,0.0,0.0,-0.1524,-0.1524,-0.1524,-0.1524,-0.1524,-0.1524,-0.1524,-0.1524,-0.1524,-0.1524,0.0,0.0,0.0,0.0,0.0,0.0,0.0,0.0,0.0,0.0,0.0,0.0,0.0,0.0,0.0,0.0,0.0,0.0,0.0,0.0,0.0,0.0,0.0,2.9792,2.9792,2.904,2.8211,2.7313,2.64,2.5589,2.47,2.454,2.454,2.4454,2.3937,2.3222,2.258,2.2138,2.2138,2.2306,2.148,0.0,0.0,0.0,0.0,0.0,0.0,0.0,0.0,2.2222,2.1928,2.1443,2.1066,0.0,0.0,0.0,0.0,0.0,1.9413,1.8798,1.8175,1.8086,1.855,1.9,1.9079,1.9079,1.9325,0.0,0.0,2.0537,2.1568,2.2306,0.0,0.0,0.0,0.0,0.0,0.0,0.0,0.0,0.0,0.0,0.0,0.0,0.0,0.0,0.0,0.0,0.0,1.3398,1.2717,1.1354,1.1262,1.1262,1.1262,0.9419,0.8368,0.8017,0.6438,0.5735,0.5646,0.4032,0.3047,0.0,0.0,0.0,0.0,0.0,0.0,0.0,0.0,0.0,0.0,0.0,0.0,0.0,0.0,0.0,0.0,0.0,0.0,0.0,0.0,0.0,0.0,0.0,0.0,0.0,0.0,0.0,0.0,0.0,0.0,0.0,0.0,0.0,0.0,2.9792,2.9792,2.9792,2.9792,2.9702,2.9209,2.8291,2.7395,2.6483,2.5579,2.4861,2.454,2.454,2.4368,2.3927,2.3319,2.3232,2.2862,2.2394,2.2217,0.0,0.0,0.0,0.0,0.0,0.0,0.0,0.0,2.3238,2.2941,2.2696,2.1301,0.0,0.0,0.0,0.0,0.0,1.9825,2.007,2.0304,1.9894,2.0207,2.0692,2.1165,2.1328,2.1328,0.0,0.0,0.0,0.0,2.2852,2.3423,0.0,0.0,0.0,0.0,0.0,0.0,0.0,0.0,0.0,0.0,0.0,0.0,0.0,0.0,0.0,0.0,1.3398,1.2717,1.1354,1.1262,1.1262,1.1262,0.9419,0.7665,0.6086,0.583,0.5744,0.5657,0.5392,0.3499,0.0,0.0,0.0,0.0,0.0,0.0,0.0,0.0,0.0,0.0,0.0,0.0,0.0,0.0,0.0,0.0,0.0,0.0,0.0,0.0,0.0,0.0,0.0,0.0,0.0,0.0,0.0,0.0,0.0,0.0,0.0,0.0,0.0,2.9792,2.9792,2.9792,2.9792,2.9792,2.9792,2.9378,2.8462,2.7557,2.6648,2.5819,2.4946,2.454,2.454,2.454,2.4368,2.4024,2.4024,2.3831,2.356,0.0,0.0,0.0,0.0,0.0,0.0,0.0,0.0,0.0,0.0,2.3184,2.3029,2.1778,0.0,0.0,0.0,0.0,0.0,2.0934,2.1175,2.1328,2.1088,2.1252,2.1492,2.1731,2.1807,2.1807,0.0,0.0,0.0,0.0,0.0,2.4131,0.0,0.0,0.0,0.0,0.0,0.0,0.0,0.0,0.0,0.0,0.0,0.0,0.0,0.0,0.0,0.0,0.0,1.2717,1.1354,1.1262,1.1089,1.0559,0.9157,0.8105,0.7228,0.6177,0.5741,0.5741,0.566,0.4757,0.2957,0.0,0.0,0.0,0.0,0.0,0.0,0.0,0.0,0.0,0.0,0.0,0.0,0.0,0.0,0.0,0.0,0.0,0.0,0.0,0.0,0.0,0.0,0.0,0.0,0.0,0.0,0.0,0.0,0.0,0.0,0.0,0.0,2.9792,2.9792,2.9792,2.9792,2.9792,2.9792,2.9456,2.8791,2.7891,2.6894,2.5819,2.4946,2.454,2.454,2.454,2.454,2.454,2.454,2.454,2.454,0.0,0.0,0.0,0.0,0.0,0.0,0.0,0.0,0.0,0.0,0.0,0.0,0.0,0.0,0.0,2.1807,2.1807,2.1807,2.1807,2.1807,2.1807,2.1807,2.1807,2.1807,2.1807,2.1959,0.0,0.0,0.0,0.0,0.0,2.3768,0.0,0.0,0.0,0.0,0.0,0.0,0.0,0.0,0.0,0.0,0.0,0.0,0.0,0.0,0.0,0.0,0.0,0.0,1.2625,1.1354,1.1262,1.0911,1.0207,0.9331,0.8632,0.8193,0.6526,0.5733,0.5733,0.5741,0.5657,0.5568,0.2598,0.1075,0.0717,0.0718,0.0449,0.0,0.0,0.0,0.0,0.0,0.0,0.0,0.0,0.0,0.0,0.0,0.0,0.0,0.0,0.0,0.0,0.0,0.0,0.0,0.0,0.0,0.0,0.0,0.0,0.0,0.0,0.0,2.9792,2.9792,2.9792,2.9792,2.9792,2.9792,2.9792,2.9702,2.8791,2.7476,2.5819,2.4946,2.454,2.454,2.454,2.454,2.454,2.454,2.454,2.454,2.454,0.0,0.0,0.0,0.0,0.0,0.0,0.0,0.0,0.0,0.0,0.0,0.0,0.0,2.1807,2.1807,2.1807,2.1807,2.1807,2.1807,2.1807,2.1807,2.1807,2.1807,2.1807,2.2402,0.0,2.2927,0.0,0.0,0.0,0.0,0.0,0.0,0.0,0.0,0.0,0.0,0.0,0.0,0.0,0.0,0.0,0.0,0.0,0.0,0.0,0.0,0.0,0.0,0.0,1.1348,1.1262,1.1267,1.1176,1.0299,0.8894,0.7228,0.6174,0.5733,0.5733,0.5733,0.5738,0.5657,0.5387,0.4304,0.2688,0.2688,0.1613,0.0,0.0,0.0,0.0,0.0,0.0,0.0,0.0,0.0,0.0,0.0,0.0,0.0,0.0,0.0,0.0,0.0,0.0,0.0,0.0,0.0,0.0,0.0,0.0,0.0,0.0,2.9792,2.9792,2.9792,2.9792,2.9792,2.9792,2.9792,2.9792,2.9792,2.8303,2.6976,2.5819,2.4946,2.454,2.454,2.454,2.454,2.454,2.454,2.454,2.454,2.454,2.454,0.0,0.0,0.0,0.0,0.0,0.0,0.0,0.0,2.3184,2.3029,2.2097,2.1807,2.1807,2.1807,2.1807,2.1807,2.1807,2.2187,2.2553,2.2553,2.2905,0.0,0.0,2.3128,2.3694,2.3694,2.3902,0.0,0.0,0.0,0.0,0.0,0.0,0.0,0.0,0.0,0.0,0.0,0.0,0.0,0.0,0.0,0.0,0.0,0.0,0.0,0.0,0.0,0.0,1.1354,1.1262,1.1262,1.1262,1.0386,0.9244,0.7929,0.7054,0.626,0.5733,0.5733,0.5735,0.5738,0.5744,0.5295,0.4665,0.467,0.422,0.332,0.0896,0.0,0.0,0.0,0.0,0.0,0.0,0.0,0.0,0.0,0.0,0.0,0.0,0.0,0.0,0.0,0.0,0.0,0.0,0.0,0.0,0.0,0.0,0.0,3.0368,3.0292,3.0139,2.9934,2.9869,2.9792,2.9792,2.9792,2.9792,2.9792,2.8303,2.7058,2.6152,2.5348,2.4786,2.454,2.454,2.454,2.454,2.454,2.454,2.454,2.454,2.454,0.0,0.0,0.0,0.0,0.0,0.0,0.0,0.0,2.3184,2.3029,2.2097,2.1807,2.1807,2.1807,2.1807,2.1807,2.1807,2.2402,2.3001,2.3001,0.0,0.0,2.3863,2.4143,2.4492,2.4492,2.4707,0.0,0.0,0.0,0.0,0.0,0.0,0.0,0.0,0.0,0.0,0.0,0.0,0.0,0.0,0.0,0.0,0.0,0.0,0.0,0.0,0.0,0.0,0.0,1.1435,1.1262,1.1262,1.0651,0.9685,0.8456,0.7841,0.6874,0.5733,0.5733,0.5733,0.5733,0.5741,0.5744,0.5744,0.566,0.5665,0.5397,0.278,0.1434,0.0896,0.0897,0.0898,0.0898,0.0,0.0,0.0,0.0,0.0,0.0,0.0,0.0,0.0,0.0,0.0,0.0,0.0,0.0,0.0,0.0,0.0,0.0,3.1576,3.1328,3.0908,3.0152,2.9934,2.9792,2.9792,2.9792,2.9792,2.9792,2.8961,2.8051,2.7058,2.6235,2.5348,2.454,2.454,2.454,2.454,2.454,2.454,2.454,2.454,2.454,2.454,0.0,0.0,0.0,0.0,0.0,0.0,0.0,2.3184,2.3029,2.2097,2.1807,2.1807,2.1807,2.1807,2.1807,2.1807,2.2402,2.3001,0.0,0.0,0.0,2.5312,2.5312,2.5312,2.5312,2.5955,2.6533,2.6533,0.0,0.0,0.0,0.0,0.0,0.0,0.0,0.0,0.0,0.0,0.0,0.0,0.0,0.0,0.0,0.0,0.0,0.0,0.0,0.0,0.0,1.1688,1.1262,1.1262,1.1262,1.0386,0.8544,0.8544,0.7489,0.5733,0.5733,0.5733,0.5733,0.5733,0.5733,0.5733,0.5733,0.5738,0.566,0.5668,0.458,0.2957,0.2957,0.2957,0.2957,0.0,0.0,0.0,0.0,0.0,0.0,0.0,0.0,0.0,0.0,0.0,0.0,0.0,0.0,0.0,0.0,0.0,0.0,3.2263,3.2249,3.1829,3.1158,3.1009,3.0722,3.0228,3.0075,2.9934,2.9792,2.8961,2.8383,2.8051,2.7139,2.6246,2.5421,2.5421,2.5105,2.454,2.454,2.454,2.454,2.454,2.4861,2.5421,0.0,0.0,0.0,0.0,0.0,0.0,0.0,0.0,0.0,2.2097,2.1807,2.1807,2.1807,2.1807,2.1959,2.2478,2.3202,0.0,2.4515,0.0,0.0,0.0,2.6164,0.0,0.0,2.6314,2.6533,2.6533,0.0,0.0,0.0,0.0,0.0,0.0,0.0,0.0,0.0,0.0,0.0,0.0,0.0,0.0,0.0,0.0,0.0,0.0,0.0,0.0,0.0,1.1521,1.1262,1.1262,1.1262,1.0651,0.9506,0.8807,0.7489,0.5733,0.5733,0.5733,0.5733,0.5733,0.5733,0.5733,0.5733,0.5735,0.5738,0.5657,0.5389,0.4846,0.4851,0.4853,0.4853,0.0,0.0,0.0,0.0,0.0,0.0,0.0,0.0,0.0,0.0,3.5359,0.0,0.0,0.0,0.0,0.0,0.0,0.0,0.0,3.3171,3.282,3.206,3.1723,3.1158,3.0444,3.0292,3.0152,2.9934,2.9287,2.8882,2.8462,2.7879,2.7151,2.6318,2.5986,2.5505,2.502,2.4615,2.47,2.5009,2.4513,2.4997,2.5924,0.0,0.0,0.0,0.0,0.0,0.0,0.0,0.0,0.0,2.2097,2.1807,2.1883,2.2176,2.2025,2.2025,2.3128,2.3768,0.0,2.5087,2.5886,2.6533,2.6533,0.0,0.0,0.0,0.0,2.6533,0.0,0.0,0.0,0.0,0.0,0.0,0.0,0.0,0.0,0.0,0.0,0.0,0.0,0.0,0.0,0.0,0.0,0.0,0.0,0.0,0.0,0.0,1.1693,1.144,1.144,1.1354,1.0824,0.9859,0.9331,0.8105,0.626,0.5908,0.5733,0.5733,0.5733,0.5733,0.5733,0.5733,0.5733,0.5733,0.5738,0.5741,0.5744,0.566,0.5662,0.5665,0.0,0.0,0.0,0.0,0.0,0.0,0.0,0.0,0.0,0.0,3.5504,3.5504,0.0,0.0,0.0,0.0,0.0,0.0,0.0,0.0,3.3808,3.3031,3.2132,3.1294,3.0508,3.0508,3.0368,3.0075,2.9934,2.9378,2.8633,2.8633,2.8131,2.7232,2.64,2.5986,2.5819,2.5062,2.5115,2.5721,2.4543,2.4995,2.6188,2.5015,0.0,0.0,0.0,0.0,0.0,0.0,0.0,0.0,2.2149,2.1915,2.2025,2.2777,2.2478,2.2241,2.3756,2.4192,0.0,2.5229,2.5955,0.0,2.6533,2.6533,2.6533,2.6533,0.0,0.0,0.0,0.0,0.0,0.0,0.0,0.0,0.0,0.0,0.0,0.0,0.0,0.0,0.0,0.0,0.0,0.0,0.0,0.0,0.0,0.0,0.0,1.296,1.2123,1.1699,1.1699,1.1527,1.0911,0.0,0.9946,0.8982,0.7228,0.626,0.5822,0.5733,0.5733,0.5733,0.5733,0.5733,0.5733,0.5733,0.5733,0.5733,0.5733,0.5733,0.5738,0.5657,0.0,0.0,0.0,0.0,0.0,0.0,0.0,0.0,0.0,0.0,0.0,0.0,0.0,0.0,0.0,0.0,0.0,0.0,0.0,0.0,3.4839,3.4027,3.3269,3.2434,3.1516,3.1516,3.1009,3.0075,3.0088,2.9856,2.9534,2.9534,2.904,2.8211,2.7971,2.7476,2.6789,2.6161,2.5992,2.6108,2.5464,2.5796,2.6629,2.6358,2.6458,0.0,0.0,0.0,0.0,0.0,0.0,0.0,2.2746,2.2558,2.2777,2.2927,2.2852,2.3065,2.4647,2.5004,0.0,0.0,2.6383,2.6533,2.6533,2.6533,2.6533,2.6533,0.0,0.0,0.0,0.0,0.0,0.0,0.0,0.0,0.0,0.0,0.0,0.0,0.0,0.0,0.0,0.0,0.0,0.0,0.0,0.0,0.0,0.0,0.0,1.2534,1.2118,1.1957,1.1957,1.1871,1.178,0.0,1.0024,0.9148,0.8711,0.7401,0.6438,0.5733,0.5733,0.5733,0.5733,0.5733,0.5733,0.5733,0.5733,0.5733,0.5733,0.5733,0.5735,0.5735,0.0,0.0,0.0,0.0,0.0,0.0,0.0,0.0,0.0,0.0,0.0,0.0,0.0,0.0,0.0,0.0,0.0,0.0,0.0,0.0,3.5133,3.4312,3.3891,3.3339,3.2506,3.2015,3.1442,3.0797,3.0292,3.0011,2.9792,2.9792,2.9546,2.9118,2.8712,2.8068,2.732,2.6587,2.6413,2.6445,2.5562,2.5883,2.6993,2.636,2.6651,2.7434,2.7716,0.0,0.0,0.0,0.0,0.0,0.0,0.0,2.3468,2.3843,2.3475,2.3361,2.4874,0.0,0.0,2.6314,0.0,2.6533,2.6533,2.6533,2.6533,2.6533,0.0,0.0,0.0,0.0,0.0,0.0,0.0,0.0,0.0,0.0,0.0,0.0,0.0,0.0,0.0,0.0,0.0,0.0,0.0,0.0,0.0,1.4378,1.3457,1.2534,1.2283,1.2203,1.2203,1.2037,1.2043,1.1952,1.0549,0.941,0.8444,0.7224,0.626,0.5733,0.5822,0.5908,0.5908,0.5908,0.5908,0.5911,0.5733,0.5733,0.5733,0.5733,0.5735,0.5741,0.0,0.0,0.0,0.0,0.0,0.0,0.0,0.0,0.0,0.0,0.0,0.0,0.0,0.0,0.0,0.0,0.0,0.0,0.0,0.0,0.0,3.4528,3.4528,3.4192,3.3422,3.2635,3.2001,3.1576,3.0797,3.0228,2.9869,2.9792,2.9792,2.9792,2.904,2.8397,2.7787,2.6929,2.6742,2.6745,2.5554,2.5937,2.7022,2.5917,2.65,2.7971,2.8072,2.8211,2.827,2.7999,0.0,0.0,0.0,0.0,2.4453,2.4987,2.4317,2.3682,2.5111,0.0,2.5664,2.6314,2.6533,0.0,2.6533,2.6533,2.6533,0.0,0.0,0.0,0.0,0.0,0.0,0.0,0.0,0.0,0.0,0.0,0.0,0.0,0.0,0.0,0.0,0.0,0.0,0.0,0.0,0.0,1.5477,1.4636,1.3795,1.2705,1.2534,1.2448,1.2448,1.2203,1.2123,1.2123,1.116,0.9758,0.7834,0.6871,0.626,0.5819,0.6083,0.6169,0.6169,0.6169,0.6169,0.6171,0.5933,0.5852,0.5855,0.5877,0.5888,0.5806,0.0,0.0,0.0,0.0,0.0,0.0,0.0,0.0,0.0,0.0,0.0,0.0,0.0,0.0,0.0,0.0,0.0,0.0,3.6305,0.0,0.0,3.5344,3.5359,3.4986,3.4177,3.4027,3.3255,3.1796,3.1649,3.1084,3.0088,2.9869,2.9792,2.9792,2.9702,2.9312,2.8662,2.8114,2.7592,2.7189,2.6569,2.6427,2.6565,2.6408,2.6771,2.7457,2.7934,2.7952,2.7813,2.8222,2.7963,0.0,0.0,0.0,2.6423,2.6067,2.5374,2.5001,2.6079,0.0,2.6383,0.0,2.6533,2.6533,0.0,0.0,2.6533,0.0,0.0,0.0,0.0,0.0,0.0,0.0,0.0,0.0,0.0,0.0,0.0,0.0,0.0,0.0,0.0,0.0,0.0,0.0,0.0,0.0,1.5477,1.5311,1.4468,1.279,1.2705,1.2619,1.2619,1.2619,1.2619,1.2619,1.1671,1.0101,0.8181,0.8006,0.7305,0.6343,0.6343,0.6343,0.6343,0.6343,0.6343,0.6355,0.6472,0.6612,0.6627,0.6653,0.6602,0.6409,0.0,0.0,0.0,0.0,0.0,0.0,0.0,0.0,0.0,0.0,0.0,0.0,0.0,0.0,0.0,3.7937,3.7879,3.7472,3.6492,3.6133,3.5846,3.5504,3.5504,3.5344,3.4986,3.4394,3.3533,3.2407,3.1856,3.1158,3.0292,3.0152,3.0011,2.9792,2.9792,2.9302,2.8448,2.821,2.7607,2.6804,2.6553,2.6533,2.6533,2.6533,2.6992,2.777,2.8021,2.8425,2.8876,2.9123,2.9049,2.8762,2.8451,0.0,0.0,0.0,2.6089,2.5682,2.581,2.5511,2.5288,0.0,2.5816,2.5955,2.6383,0.0,0.0,0.0,0.0,0.0,0.0,0.0,0.0,0.0,0.0,0.0,0.0,0.0,0.0,0.0,0.0,0.0,0.0,0.0,0.0,0.0,0.0,1.7169,1.6221,1.5137,1.4216,1.3457,1.2954,1.2705,1.2705,1.2705,1.2519,1.2133,1.1827,1.0995,0.9556,0.9018,0.7974,0.6548,0.6731,0.6772,0.6841,0.6841,0.6841,0.6847,0.6821,0.6845,0.6852,0.6917,0.6841,0.6744,0.0,0.0,0.0,0.0,0.0,0.0,0.0,0.0,0.0,0.0,0.0,0.0,0.0,0.0,0.0,0.0,3.8535,3.8067,3.6951,3.66,3.6196,3.5733,3.5554,3.5504,3.5504,3.4773,3.4027,3.3241,3.2349,3.1516,3.0722,3.0583,3.0305,2.9934,2.9934,2.9303,2.8255,2.817,2.7612,2.6602,2.6521,2.6521,2.6521,2.6533,2.7055,2.7908,2.8059,2.8737,0.0,0.0,2.9869,2.9869,2.9869,2.9235,0.0,0.0,0.0,0.0,0.0,0.0,2.4492,2.5004,2.5158,2.53,0.0,0.0,0.0,0.0,0.0,0.0,0.0,0.0,0.0,0.0,0.0,0.0,0.0,0.0,0.0,0.0,0.0,0.0,0.0,0.0,0.0,0.0,0.0,1.7162,1.6635,1.5028,1.3985,1.3736,1.3076,1.2705,1.2705,1.2777,1.2586,1.2132,1.24,1.1935,1.1017,1.0278,0.9023,0.7379,0.726,0.7217,0.7308,0.7308,0.7308,0.7315,0.7162,0.7083,0.7086,0.7124,0.7136,0.7044,0.0,0.0,0.0,0.0,0.0,0.0,0.0,0.0,0.0,0.0,0.0,0.0,3.9272,3.9272,3.9272,3.9272,3.9272,3.8969,3.8238,3.7071,3.6368,3.6368,3.5797,0.0,3.5504,3.5439,3.5052,3.423,3.3492,3.2648,3.1723,3.1035,3.0533,3.0368,3.0368,2.974,2.869,2.846,2.7812,2.6956,2.6602,2.6589,2.6658,2.6521,2.6816,2.7394,2.7921,0.0,0.0,0.0,0.0,0.0,0.0,0.0,3.0024,0.0,0.0,0.0,0.0,2.4754,0.0,2.4791,2.4707,0.0,0.0,0.0,0.0,0.0,0.0,0.0,0.0,0.0,0.0,0.0,0.0,0.0,0.0,0.0,0.0,0.0,0.0,0.0,0.0,0.0,0.0,0.0,0.0,1.7272,1.636,1.512,1.4028,1.3185,1.2843,1.2705,1.2705,1.297,1.323,1.3399,1.3417,1.295,1.2021,1.193,1.0925,0.9204,0.8019,0.7594,0.76,0.76,0.76,0.7614,0.7746,0.7801,0.7818,0.7865,0.7819,0.7524,0.0,0.0,0.0,0.0,0.0,0.0,0.0,0.0,0.0,0.0,0.0,0.0,0.0,3.9272,3.9272,3.9272,3.9272,3.9023,3.8334,3.7879,3.7235,3.643,3.6196,3.591,3.5504,3.5504,3.5133,3.4312,3.3561,3.2791,3.2015,3.1736,3.132,3.0748,3.052,2.974,2.869,2.8605,2.7895,2.6794,2.6658,2.6589,2.6589,2.6521,2.6804,0.0,0.0,0.0,0.0,0.0,0.0,0.0,0.0,0.0,0.0,0.0,0.0,0.0,0.0,0.0,0.0,2.3948,2.4166,2.4383,2.4504,0.0,0.0,0.0,0.0,0.0,0.0,0.0,0.0,0.0,0.0,0.0,0.0,0.0,0.0,0.0,0.0,0.0,0.0,0.0,0.0,0.0,0.0,0.0,1.7231,1.6221,1.5198,1.4257,1.3539,1.3145,1.2976,1.3073,1.3254,1.3519,1.3682,1.3665,1.3531,1.2764,1.1753,1.0475,0.9348,0.8459,0.7882,0.7882,0.7882,0.7885,0.7936,0.7957,0.7963,0.8018,0.7942,0.7842,0.0,0.0,0.0,0.0,0.0,0.0,0.0,0.0,0.0,0.0,0.0,0.0,0.0,0.0,3.9272,3.9272,3.9272,3.9094,3.8645,3.8407,3.7937,3.7055,3.66,3.6196,3.5797,3.5619,3.5213,3.4677,3.3905,3.3353,3.2847,3.2577,3.2232,3.1763,3.1442,3.0513,2.9093,2.9035,2.843,2.751,2.7364,2.7162,2.6985,0.0,0.0,0.0,0.0,0.0,0.0,0.0,0.0,0.0,0.0,0.0,0.0,0.0,0.0,0.0,2.4539,0.0,0.0,0.0,0.0,2.3813,2.3925,0.0,0.0,0.0,0.0,0.0,0.0,0.0,0.0,0.0,0.0,0.0,0.0,0.0,0.0,0.0,0.0,0.0,0.0,0.0,0.0,0.0,0.0,0.0,1.812,1.6729,1.5473,1.4405,1.3779,1.3471,1.3387,1.3387,1.3471,1.3646,1.3821,1.3996,1.4165,1.3391,1.2368,1.117,1.0489,0.9312,0.8038,0.8038,0.8038,0.8038,0.8038,0.8038,0.8038,0.8038,0.8038,0.8038,0.0,0.0,0.0,0.0,0.0,0.0,0.0,0.0,0.0,3.9325,0.0,0.0,0.0,0.0,0.0,3.9325,3.9325,3.9325,3.9325,3.8717,3.8334,3.8278,3.7131,3.643,3.643,3.5797,3.5504,3.5504,3.4677,3.4312,3.4312,3.3561,3.3213,3.3213,3.3213,3.2041,3.0048,2.984,2.9511,2.9085,0.0,2.8325,2.796,0.0,0.0,0.0,2.743,2.7646,0.0,2.8375,0.0,0.0,0.0,0.0,0.0,0.0,0.0,0.0,0.0,0.0,0.0,0.0,0.0,0.0,2.3446,0.0,0.0,0.0,0.0,0.0,0.0,0.0,0.0,0.0,0.0,0.0,0.0,0.0,0.0,0.0,0.0,0.0,0.0,0.0,0.0,0.0,0.0,1.8796,1.8788,1.6636,1.4891,1.3635,1.3532,1.3646,1.3906,1.39,1.39,1.3906,1.3906,1.3912,1.3918,1.3918,1.2903,1.1268,1.117,0.9998,0.8038,0.8038,0.8038,0.8038,0.8038,0.8038,0.8038,0.8038,0.8038,0.8038,0.0,0.0,0.0,0.0,0.0,0.0,0.0,0.0,4.0368,0.0,0.0,0.0,4.0368,4.0368,4.0368,4.0368,4.002,3.9833,3.9833,3.9329,3.8843,3.8334,3.7531,3.6906,3.643,3.5797,3.5504,3.5504,3.4677,3.4312,3.4312,3.4109,3.3699,3.3213,3.3768,3.3054,3.149,3.1107,0.0,2.9247,2.9107,2.8967,0.0,0.0,0.0,0.0,0.0,2.8251,2.8633,0.0,2.8698,2.9243,0.0,0.0,0.0,0.0,0.0,0.0,2.4539,0.0,0.0,0.0,0.0,0.0,0.0,0.0,0.0,0.0,0.0,0.0,0.0,0.0,0.0,0.0,0.0,0.0,0.0,0.0,0.0,0.0,0.0,0.0,0.0,0.0,0.0,0.0,2.0011,1.9538,1.888,1.6836,1.5551,1.5191,1.426,1.3833,1.3906,1.3719,1.3719,1.3906,1.3906,1.4002,1.4189,1.4189,1.3448,1.2242,1.156,1.0386,0.9118,0.8333,0.8038,0.8038,0.8038,0.8038,0.8038,0.8038,0.8038,0.8038,0.0,0.0,0.0,0.0,0.0,0.0,0.0,4.0611,4.0802,0.0,0.0,0.0,4.0802,4.0802,4.0802,4.0802,4.0497,4.0252,4.0003,3.9731,3.9329,3.8717,3.7895,3.7191,3.6845,3.5973,3.5504,3.5504,3.5052,3.4824,3.4824,3.4824,3.4558,3.4153,3.4624,3.4038,3.2694,3.2376,0.0,0.0,3.0068,0.0,0.0,2.9442,2.9331,0.0,0.0,0.0,2.8705,2.8411,2.8549,0.0,0.0,0.0,0.0,0.0,0.0,0.0,0.0,0.0,0.0,0.0,0.0,0.0,2.2628,2.2478,0.0,0.0,0.0,0.0,0.0,0.0,0.0,0.0,0.0,0.0,0.0,0.0,0.0,0.0,0.0,0.0,0.0,0.0,0.0,2.0292,2.0292,1.9637,1.8226,1.6633,1.5609,1.5235,1.4426,1.4069,1.4069,1.3918,1.3863,1.3906,1.3906,1.3984,1.4135,1.4135,1.3611,1.2635,1.2047,1.1268,1.0194,0.9118,0.8432,0.8038,0.8038,0.8038,0.8038,0.8038,0.8038,0.8038,0.0,0.0,0.0,0.0,0.0,0.0,0.0,4.0943,0.0,0.0,4.099,4.099,4.099,4.099,4.099,4.099,4.0896,4.0689,4.0186,4.0053,3.9817,3.9415,3.8181,3.7488,3.7429,3.6211,3.5569,3.5504,3.5504,3.5504,3.5504,3.5504,3.5504,3.5504,0.0,0.0,3.3499,0.0,0.0,3.1132,3.1132,3.0881,0.0,0.0,2.9903,2.9546,2.9484,2.9044,2.8532,2.8481,2.8372,0.0,0.0,0.0,0.0,0.0,2.6746,0.0,0.0,0.0,0.0,0.0,0.0,0.0,2.3519,2.3001,2.2478,0.0,0.0,0.0,0.0,0.0,0.0,0.0,0.0,0.0,0.0,0.0,0.0,0.0,0.0,0.0,0.0,2.0292,2.0292,2.0292,2.0292,1.9446,1.7576,1.6546,1.552,1.4484,1.4394,1.4298,1.4298,1.4298,1.4177,1.3948,1.3948,1.3948,1.3948,1.3948,1.359,1.2829,1.2732,1.2145,1.1268,1.0096,0.9019,0.8137,0.8038,0.8038,0.8038,0.8038,0.8038,0.8038,0.0,0.0,0.0,0.0,0.0,0.0,0.0,4.1727,4.2019,4.2019,4.2019,4.2019,4.2019,4.2019,4.2019,4.2019,4.1622,4.1338,4.1185,4.0431,3.9952,3.9868,3.8778,3.7879,3.7429,3.6616,3.5973,3.5504,3.5504,3.5504,3.5504,3.5504,3.5504,3.5489,3.4921,3.4233,0.0,0.0,0.0,3.1424,3.1424,0.0,3.1234,3.1219,3.1161,3.097,3.0464,3.0147,2.9903,2.8853,2.8106,2.7693,0.0,0.0,0.0,2.7016,0.0,0.0,0.0,0.0,0.0,0.0,0.0,0.0,2.315,2.3001,2.2852,0.0,0.0,0.0,0.0,0.0,0.0,0.0,0.0,0.0,0.0,0.0,0.0,0.0,0.0,0.0,0.0,2.0292,2.0292,2.0292,2.0292,1.982,1.8603,1.7576,1.6546,1.5514,1.4765,1.4298,1.4298,1.4298,1.4268,1.422,1.422,1.422,1.422,1.422,1.4148,1.3908,1.3022,1.263,1.2242,1.0391,0.9509,0.9217,0.8333,0.8038,0.8038,0.8038,0.8038,0.8038,0.0,0.0,0.0,0.0,0.0,0.0,0.0,0.0,4.2494,4.2494,4.267,4.2747,4.2747,4.2747,4.267,4.2494,4.2257,4.1948,4.1516,4.0832,4.0302,4.0003,3.8924,3.8165,3.7879,3.689,3.6258,3.5973,3.5619,3.5504,3.5504,3.5504,3.5325,3.4981,3.4622,3.3918,0.0,0.0,3.2138,3.1482,3.1482,0.0,3.1482,3.1482,3.1482,3.1467,3.1087,3.0777,3.0283,2.898,2.8287,0.0,0.0,2.7523,2.739,0.0,2.6289,2.5791,0.0,0.0,0.0,2.3897,0.0,0.0,0.0,2.3446,2.3298,2.3298,0.0,0.0,0.0,0.0,0.0,0.0,0.0,0.0,0.0,0.0,0.0,0.0,0.0,0.0,0.0,2.0292,2.0292,2.0292,1.9828,1.9355,1.8796,1.7855,1.6821,1.5798,1.533,1.4765,1.4298,1.4298,1.4298,1.4298,1.4298,1.4298,1.4298,1.4298,1.4298,1.4298,1.3709,1.3511,1.3414,1.1755,1.117,1.0974,0.8821,0.8038,0.8038,0.8038,0.8038,0.8038,3.9206,3.9869,0.0,0.0,0.0,0.0,0.0,0.0,4.2788,4.2788,4.3032,4.3214,4.3214,4.3214,4.3087,4.2826,4.275,4.24,4.1778,4.1248,4.0689,4.0203,3.9193,3.8502,3.8278,3.7191,3.6554,3.643,3.5797,3.5504,3.5504,3.537,3.5011,3.4472,3.4203,3.3499,3.2497,0.0,0.0,3.1482,0.0,3.1482,3.1482,3.1482,3.1482,3.1482,3.1482,3.097,3.0147,2.903,2.8532,2.8222,2.7656,2.7523,0.0,0.0,0.0,0.0,0.0,0.0,0.0,0.0,0.0,2.42,0.0,0.0,0.0,2.3751,0.0,0.0,0.0,0.0,0.0,0.0,0.0,0.0,0.0,0.0,0.0,0.0,0.0,0.0,0.0,2.0249,2.0292,2.0292,1.9538,1.898,1.8796,1.7855,1.6821,1.5798,1.5609,1.514,1.4298,1.4298,1.4298,1.4298,1.4298,1.4298,1.4298,1.4298,1.4298,1.4298,1.4298,1.4298,1.4202,1.3119,1.2727,1.2436,0.9702,0.8531,0.8333,0.8333,0.8137,0.8038,3.959,3.9889,3.9961,0.0,0.0,0.0,0.0,0.0,4.316,4.316,4.316,4.3214,4.3214,0.0,0.0,0.0,0.0,0.0,4.2577,0.0,4.1202,4.0754,4.0136,3.9351,3.8334,3.7648,3.7027,3.643,3.5797,3.5504,3.5489,3.4876,3.4547,3.4427,3.326,0.0,0.0,0.0,3.1541,0.0,3.1482,3.1482,0.0,3.1482,3.1482,3.1482,3.1482,3.0703,2.9566,0.0,2.8583,2.759,0.0,2.7523,2.7456,2.7456,0.0,0.0,0.0,0.0,0.0,0.0,2.42,0.0,0.0,0.0,2.4127,2.4127,0.0,0.0,0.0,0.0,0.0,0.0,0.0,0.0,0.0,0.0,0.0,0.0,0.0,0.0,0.0,0.0,2.0292,2.0292,2.0192,1.9729,1.888,1.7855,1.6821,1.5798,1.4956,1.4388,1.4298,1.4298,1.4298,1.4298,1.4298,1.4298,1.4298,1.4298,1.4298,1.4298,1.4298,1.4298,1.4202,1.3119,1.2727,1.2533,1.1365,1.0293,0.941,0.941,0.8825,0.8038,3.8708,3.9265,3.9679,3.9679,0.0,0.0,0.0,0.0,4.3495,4.3631,4.3664,4.3664,0.0,0.0,0.0,0.0,0.0,4.2739,0.0,0.0,4.0587,3.9913,0.0,0.0,3.8017,3.7102,3.6381,3.5763,3.5124,3.4666,3.4337,3.4038,3.3709,3.3305,3.2766,0.0,3.1928,0.0,3.1482,0.0,0.0,0.0,0.0,3.1482,3.1482,3.1482,3.1482,3.1161,3.0524,0.0,2.9142,0.0,0.0,0.0,0.0,0.0,0.0,0.0,0.0,0.0,0.0,0.0,0.0,0.0,2.42,0.0,2.42,0.0,0.0,0.0,0.0,0.0,0.0,0.0,2.2004,0.0,0.0,0.0,0.0,0.0,0.0,0.0,0.0,0.0,0.0,0.0,0.0,2.0102,1.9729,1.9255,1.8326,1.6734,1.6264,1.5514,1.4298,1.4298,1.4298,1.4298,1.4298,1.4298,1.4298,1.4298,1.4298,1.4298,1.4298,1.4298,1.4298,1.3806,1.3613,1.3613,1.3125,1.195,1.0489,1.0489,0.9805,0.892,3.8314,3.8787,3.9207,0.0,0.0,0.0,0.0,0.0,0.0,0.0,0.0,0.0,4.4085,4.385,0.0,0.0,4.2928,4.2303,0.0,0.0,4.0023,0.0,0.0,0.0,0.0,0.0,3.5889,3.5506,3.4685,3.4073,3.3698,3.3366,3.2976,3.2497,0.0,3.1988,3.1482,0.0,3.1482,3.1482,3.1482,3.1482,3.1482,3.1482,3.1482,3.1482,3.1482,3.1409,3.1029,2.9889,2.938,0.0,2.7829,0.0,0.0,0.0,0.0,0.0,2.6,0.0,0.0,0.0,0.0,0.0,0.0,0.0,0.0,0.0,0.0,0.0,0.0,0.0,0.0,0.0,0.0,0.0,0.0,0.0,0.0,0.0,0.0,0.0,0.0,0.0,0.0,2.0112,2.0146,2.0189,2.0283,2.0011,1.9255,1.7762,1.7203,1.617,1.4765,1.4484,1.4298,1.4298,1.4298,1.4298,1.4298,1.4298,1.4298,1.4298,1.4298,1.4298,1.4298,1.4298,1.4298,1.4298,1.4298,1.3414,1.2047,1.1755,1.0974,0.9998,3.9146,3.8785,3.8419,0.0,0.0,0.0,0.0,0.0,0.0,0.0,0.0,0.0,0.0,0.0,0.0,0.0,0.0,4.113,4.086,0.0,3.9973,0.0,0.0,3.8254,0.0,0.0,0.0,3.6066,3.4857,3.4294,3.4219,3.311,3.2542,3.2482,3.1795,3.1497,3.1482,3.1482,3.1482,3.1482,3.1482,3.1482,3.1482,0.0,3.1482,3.1482,3.1482,0.0,0.0,2.9752,2.9079,0.0,0.0,0.0,0.0,0.0,0.0,0.0,0.0,0.0,0.0,2.42,0.0,0.0,0.0,0.0,2.42,0.0,0.0,0.0,0.0,0.0,0.0,0.0,0.0,0.0,0.0,0.0,0.0,0.0,0.0,0.0,0.0,0.0,0.0,1.9735,1.9761,1.9915,2.0275,1.9355,1.8788,1.8788,1.6821,1.5798,1.5798,1.4765,1.4298,1.4298,1.4298,1.4298,1.4298,1.4298,1.4298,1.4298,1.4298,1.4298,1.4298,1.4298,1.4298,1.4298,1.4298,1.4298,1.41,1.3022,1.2047,1.117,3.9357,3.9253,3.9127,0.0,0.0,0.0,0.0,4.2969,0.0,0.0,0.0,0.0,0.0,4.2342,4.2116,0.0,0.0,4.0868,4.0039,3.9713,0.0,0.0,0.0,3.6791,0.0,0.0,0.0,0.0,0.0,3.3419,3.3044,3.2234,3.1869,3.1854,0.0,3.1482,0.0,0.0,0.0,0.0,0.0,3.1482,3.1482,0.0,0.0,3.1482,3.1482,3.1351,0.0,2.9889,2.9331,2.8953,2.7829,2.7523,2.7523,2.7523,2.7255,0.0,0.0,0.0,2.517,2.4406,0.0,0.0,0.0,0.0,0.0,0.0,0.0,0.0,0.0,0.0,0.0,0.0,0.0,0.0,0.0,0.0,0.0,0.0,0.0,0.0,0.0,0.0,0.0,1.9583,1.9773,1.9972,0.0,1.9785,1.9446,1.8788,1.8133,1.7483,1.6828,1.5798,1.533,1.5235,1.458,1.4298,1.4298,1.4298,1.4298,1.4298,1.4298,1.4298,1.4298,1.4298,1.4298,1.4298,1.4298,1.4298,1.4298,1.3902,1.3125,1.2145,3.9679,0.0,0.0,0.0,0.0,0.0,0.0,0.0,0.0,0.0,4.276,0.0,4.1921,0.0,4.1278,0.0,4.0677,4.0005,3.9217,3.8932,0.0,3.6956,3.644,0.0,0.0,0.0,0.0,0.0,0.0,3.3039,3.2641,3.1853,3.1482,3.1482,0.0,3.1482,3.1482,3.1482,3.1482,0.0,0.0,3.1482,0.0,0.0,3.1482,3.1482,0.0,3.1482,3.1278,2.995,2.9504,2.9268,2.7894,2.7523,2.7523,2.7523,2.739,2.7053,2.6358,2.5861,0.0,2.4671,2.4334,0.0,2.42,0.0,0.0,0.0,0.0,0.0,0.0,0.0,0.0,0.0,0.0,0.0,0.0,1.9301,0.0,0.0,0.0,0.0,0.0,0.0,1.9206,1.9344,1.9615,1.9739,0.0,0.0,1.9906,1.9257,1.8999,1.8511,1.7855,1.6828,1.617,1.5798,1.514,1.4675,1.4298,1.4298,1.4298,1.4298,1.4298,1.4298,1.4298,1.4298,1.4298,1.4298,1.4298,1.4298,1.4298,1.4298,1.3902,1.3216,4.0101,0.0,0.0,0.0,4.0203,0.0,0.0,0.0,4.2013,0.0,4.1916,4.1809,4.1867,4.0952,4.0355,4.0327,3.9383,3.8683,3.8415,3.8153,0.0,0.0,3.644,3.5977,3.5571,0.0,0.0,0.0,0.0,0.0,3.3145,3.1992,3.1482,3.1482,3.1482,0.0,3.1482,3.1482,3.1482,3.1482,3.1482,3.1482,3.1482,3.1482,3.1482,3.1482,3.1482,3.1482,3.1278,2.995,2.9504,2.9268,2.7894,2.7523,2.7523,2.7523,2.7121,2.6714,2.6645,2.5861,2.5016,2.4933,0.0,0.0,0.0,0.0,2.42,0.0,0.0,0.0,0.0,0.0,0.0,0.0,0.0,0.0,0.0,0.0,0.0,0.0,0.0,0.0,0.0,1.9002,1.9075,1.9188,1.9241,1.9419,0.0,0.0,2.007,2.0096,1.9331,1.8864,1.888,1.7855,1.6915,1.5981,1.5893,1.533,1.4388,1.4298,1.4298,1.4298,1.4298,1.4298,1.4298,1.4298,1.4298,1.4298,1.4298,1.4298,1.4298,1.4298,1.4298,1.4298,4.012,3.9979,3.9889,0.0,3.997,4.0348,0.0,0.0,0.0,0.0,4.1316,4.0929,4.024,3.9799,3.9527,3.9435,3.905,0.0,0.0,0.0,0.0,3.644,3.6256,3.5847,3.5118,3.493,0.0,3.43,0.0,0.0,3.2586,3.1853,3.1482,3.1482,3.1482,3.1482,3.1482,3.1482,3.1482,3.1482,3.1482,3.1482,0.0,0.0,3.1482,3.1482,3.1482,3.1482,3.1278,2.995,2.9504,2.9268,2.7894,2.7523,2.7523,2.7523,2.739,2.7121,2.6346,2.5861,2.5441,2.4611,2.4334,2.42,0.0,0.0,0.0,0.0,0.0,0.0,0.0,0.0,0.0,0.0,0.0,0.0,0.0,0.0,0.0,1.9301,0.0,0.0,1.9231,1.9222,1.9197,1.9057,1.9353,0.0,0.0,0.0,0.0,2.0333,2.0078,2.0162,2.0439,1.933,1.8596,1.8311,1.6633,1.5704,1.5419,1.4669,1.4298,1.4298,1.4298,1.4298,1.4298,1.4298,1.4298,1.4298,1.4298,1.4298,1.4298,1.4298,1.4298,1.4298,4.0212,0.0,0.0,3.9889,0.0,0.0,4.0574,0.0,0.0,4.0631,4.0499,0.0,3.9637,3.9477,3.935,3.9192,3.8902,0.0,3.8415,0.0,0.0,3.6274,3.6172,3.5803,3.4947,3.4899,0.0,3.4101,0.0,0.0,3.2398,3.1796,3.1482,3.1482,3.1482,3.1482,3.1482,3.1482,3.1482,3.1482,3.1482,0.0,0.0,3.1482,3.1482,3.1482,3.1482,3.1482,3.1278,2.995,2.9504,2.9268,2.7894,2.7523,2.7523,2.7523,2.7523,2.7323,2.6496,2.6082,2.5652,2.4743,2.4406,2.42,2.42,2.42,2.42,0.0,0.0,0.0,0.0,0.0,0.0,0.0,0.0,0.0,0.0,0.0,0.0,0.0,1.9301,0.0,1.9301,1.9301,1.9222,1.9152,1.937,0.0,0.0,0.0,0.0,2.0009,2.0252,2.0527,2.0749,2.0271,1.9704,1.9147,1.794,1.7008,1.6452,1.5419,1.4956,1.4956,1.4484,1.4298,1.4298,1.4298,1.4298,1.4298,1.4298,1.4298,1.4298,1.4298,1.4298,1.4298,4.0334,0.0,0.0,0.0,0.0,0.0,0.0,3.9889,0.0,3.9889,0.0,3.9693,3.9693,3.9599,3.9452,3.9272,0.0,3.8535,3.835,3.788,3.7206,3.6215,3.6172,3.5803,3.4947,3.4851,3.4546,0.0,0.0,0.0,3.2287,3.1754,3.1482,3.1482,3.1482,0.0,0.0,3.1482,3.1482,3.1482,3.1482,3.1482,3.1482,3.1482,3.1482,3.1482,3.1409,3.1351,3.1161,2.995,2.9442,2.9142,2.7908,2.7523,2.7523,2.7523,2.7456,2.7255,2.6714,2.622,2.5639,2.5004,2.4539,2.42,2.42,2.42,2.42,2.42,2.42,2.42,0.0,0.0,0.0,0.0,0.0,0.0,0.0,0.0,0.0,0.0,0.0,0.0,1.9301,1.9301,1.9301,0.0,0.0,0.0,0.0,0.0,0.0,1.9615,2.0103,0.0,2.0508,0.0,2.0486,1.943,1.9247,1.8596,1.7483,1.6452,1.5886,1.5798,1.486,1.4388,1.4298,1.4298,1.4298,1.4298,1.4298,1.4298,1.4298,1.4298,1.4298,1.4298,4.0351,0.0,0.0,0.0,0.0,3.9889,3.9889,3.9889,3.9889,3.9889,3.9781,3.9693,3.9693,3.9599,3.9401,3.9101,3.8778,0.0,0.0,0.0,0.0,3.6215,3.6172,3.5803,3.4947,3.4448,3.3968,0.0,0.0,0.0,0.0,0.0,3.1482,3.1482,3.1482,0.0,3.1482,3.1482,0.0,3.1482,3.1482,3.1482,3.1482,3.1482,3.1482,3.1409,3.0896,3.0703,3.0524,2.9766,2.9142,2.8532,2.7789,2.7523,2.7523,2.7523,2.7188,2.6714,2.622,2.5581,2.5016,2.4467,2.4261,2.42,2.42,2.42,2.42,2.42,2.42,2.42,2.42,0.0,0.0,0.0,0.0,0.0,0.0,0.0,0.0,0.0,0.0,1.9301,0.0,0.0,0.0,0.0,0.0,0.0,0.0,0.0,0.0,0.0,1.9907,0.0,0.0,0.0,2.0766,2.0628,1.9704,1.8972,1.8511,1.7483,1.6546,1.5798,1.5609,1.5045,1.4298,1.4298,1.4298,1.4298,1.4298,1.4298,1.4298,1.4298,1.4298,1.4298,0.0,0.0,0.0,0.0,0.0,0.0,0.0,3.9781,0.0,3.9889,3.9826,3.9804,3.9804,3.9556,3.9313,3.911,3.867,3.8263,3.8018,3.7541,3.6939,3.6215,3.5708,0.0,3.4899,3.4068,3.3475,3.3182,0.0,0.0,0.0,0.0,0.0,3.1482,0.0,3.1482,0.0,0.0,0.0,3.1482,3.1482,3.1482,3.1482,3.1482,3.1482,3.1409,3.0718,3.0269,2.9889,2.9205,2.8789,2.8352,2.7723,2.7523,2.7523,2.7523,2.7121,2.6577,2.607,2.5429,2.4874,2.4334,2.42,2.42,2.42,2.42,2.42,2.42,2.42,2.3959,2.3128,2.1983,0.0,0.0,0.0,0.0,0.0,0.0,0.0,0.0,0.0,0.0,0.0,0.0,0.0,0.0,0.0,0.0,0.0,0.0,0.0,0.0,0.0,0.0,0.0,0.0,0.0,2.1195,2.0645,2.0184,1.972,1.878,1.7948,1.7296,1.6264,1.5514,1.5045,1.4484,1.4298,1.4298,1.4298,1.4298,1.4298,1.4298,1.4298,1.4298,0.0,3.9979,0.0,0.0,3.9848,0.0,3.9804,3.9575,3.9483,3.9781,3.9739,3.9717,3.9717,3.9421,3.9171,3.9017,3.853,3.808,3.7792,3.7208,3.6643,3.6105,3.5182,3.4719,3.4739,3.363,3.3039,0.0,0.0,0.0,0.0,0.0,0.0,0.0,0.0,0.0,0.0,0.0,3.1482,3.1482,3.1482,3.1482,3.1467,3.1351,3.1278,3.1161,3.0343,2.9718,2.9205,2.8532,2.8287,2.8222,2.7656,2.7523,2.7469,2.739,2.6985,2.6427,2.5861,2.53,2.4743,2.4334,2.42,2.42,2.42,2.42,2.42,2.42,2.4043,2.3519,2.2069,2.1078,0.0,0.0,0.0,0.0,0.0,0.0,0.0,0.0,0.0,0.0,1.9835,0.0,0.0,0.0,0.0,0.0,0.0,0.0,0.0,0.0,0.0,1.9989,2.0393,0.0,2.1112,0.0,2.1356,2.1203,2.0736,1.9903,1.9247,1.8788,1.7109,1.617,1.5704,1.4669,1.4298,1.4298,1.4298,1.4298,1.4298,1.4298,1.4298,1.4298,0.0,0.0,0.0,0.0,0.0,0.0,3.9551,3.9242,3.9144,3.9483,3.9268,3.909,3.909,3.9063,3.8849,3.8418,3.8342,3.791,3.7055,3.6939,3.6522,3.5705,3.5031,3.4528,3.4201,3.3087,3.2492,0.0,0.0,0.0,0.0,0.0,0.0,0.0,0.0,0.0,0.0,3.1482,3.1482,3.1482,3.1482,3.1482,3.1409,3.0837,3.0584,3.0464,2.9156,2.8661,2.8468,2.7842,2.759,2.759,2.7523,2.7523,2.739,2.6918,2.6427,2.5849,2.5229,2.4671,2.4261,2.42,2.42,2.42,2.42,2.42,2.42,2.42,2.3604,2.2841,2.1993,2.1078,2.0226,0.0,0.0,0.0,0.0,0.0,0.0,0.0,0.0,0.0,0.0,2.1603,0.0,0.0,0.0,0.0,0.0,0.0,0.0,1.9301,0.0,1.9567,1.998,2.0374,2.0692,2.0842,2.1221,2.1293,2.0997,2.0736,2.0085,1.9155,1.8696,1.7483,1.5704,1.4669,1.4298,1.4298,1.4298,1.4298,1.4298,1.4298,1.4298,1.4298,0.0,0.0,0.0,0.0,0.0,0.0,0.0,3.8943,3.8818,3.8933,3.8971,3.9008,3.9008,3.8828,3.853,3.8059,3.7755,3.7303,3.6661,3.6291,3.595,3.5616,3.4463,3.3903,3.4101,3.2656,3.2023,0.0,0.0,0.0,0.0,0.0,0.0,0.0,0.0,3.1482,3.1482,3.1482,3.1482,3.1482,3.1482,3.1278,3.0896,3.0584,3.0269,2.9766,2.8853,2.8481,2.8417,2.7723,2.7523,2.7523,2.7523,2.7255,2.6985,2.6782,2.607,2.5288,2.5087,2.4599,2.42,2.42,2.42,2.42,2.42,2.42,2.42,2.42,2.353,2.2767,2.1918,2.1538,2.0847,0.0,0.0,0.0,0.0,0.0,0.0,0.0,0.0,2.1832,0.0,0.0,0.0,0.0,0.0,0.0,0.0,0.0,0.0,2.0001,0.0,1.9503,1.9925,2.009,2.04,2.0944,2.1107,2.1228,2.1203,2.1114,2.0464,1.9147,1.9063,1.7848,1.5798,1.533,1.486,1.4298,1.4298,1.4298,1.4298,1.4298,1.4298,1.4298,3.9781,0.0,3.958,0.0,3.9287,3.9154,3.8915,3.8658,3.8428,3.8296,3.8449,3.8566,3.8566,3.8342,3.8013,3.7542,3.719,3.6776,3.6266,3.5715,3.5328,3.5161,3.3751,0.0,3.3575,3.2231,3.1697,3.212,3.1697,0.0,0.0,0.0,0.0,0.0,3.1482,3.1482,3.1482,3.1482,3.1409,3.1219,3.1219,3.0777,3.0208,2.9964,2.9642,2.9142,2.8481,2.8222,2.8091,2.7656,2.7523,2.7523,2.7523,2.7121,2.6645,2.6508,2.5791,2.4945,2.4802,2.4467,2.42,2.42,2.42,2.42,2.42,2.42,2.42,2.42,2.353,2.2767,2.1918,2.1603,2.0991,1.9844,0.0,0.0,0.0,0.0,0.0,0.0,2.2371,2.2521,2.2521,2.2521,0.0,0.0,0.0,0.0,0.0,0.0,0.0,0.0,0.0,0.0,0.0,1.987,2.0209,2.0769,2.0998,2.1176,2.13,2.1338,2.0736,1.9621,1.9338,1.8218,1.664,1.6358,1.5609,1.4765,1.4765,1.458,1.4298,1.4298,1.4298,1.4298,3.9483,3.9242,3.9008,3.9008,3.8789,3.8615,3.8615,3.8368,3.8054,3.7578,3.7505,3.7542,3.7542,3.7487,3.7321,3.6856,3.6816,3.6533,3.5854,3.5232,3.4655,0.0,0.0,3.2382,3.2453,3.1796,3.1482,3.1539,0.0,0.0,3.1482,0.0,3.1482,3.1482,3.1482,3.1482,3.1482,3.1482,3.1087,3.0524,3.0524,3.0133,2.9442,2.8789,2.8546,2.8417,2.7789,2.7523,2.7523,2.7523,2.7523,2.7523,2.7523,2.7121,2.6577,2.6082,2.5511,2.4874,2.4334,2.42,2.42,2.42,2.42,2.42,2.42,2.42,2.42,2.42,2.353,2.2767,2.1918,2.1078,2.0537,2.0469,0.0,0.0,0.0,0.0,0.0,0.0,2.3677,2.42,2.42,0.0,0.0,0.0,0.0,0.0,0.0,0.0,0.0,1.9301,1.9301,0.0,1.9311,1.9723,1.9934,1.9952,2.0732,2.1108,2.1126,2.1291,2.1114,2.0654,1.9621,1.9063,1.8696,1.7669,1.6734,1.5798,1.5798,1.514,1.4298,1.4298,1.4298,1.4298,3.9163,3.9063,3.8924,3.8759,3.8418,3.8111,3.7877,3.7542,3.7264,3.7132,3.7094,3.6978,3.6719,3.6939,3.69,0.0,3.5959,3.5397,0.0,3.4137,3.3684,3.3475,3.2803,3.2398,3.2398,3.1796,3.1482,3.1482,0.0,0.0,0.0,3.1482,3.1482,3.1482,3.1482,3.1482,3.1467,3.1029,3.0703,3.045,3.0011,2.9393,2.8776,2.8597,2.8222,2.7776,2.759,2.7523,2.7523,2.7523,2.7523,2.7469,2.7053,2.6577,2.6139,2.5931,2.5229,2.4394,2.4261,2.42,2.42,2.42,2.42,2.42,2.42,2.42,2.42,2.42,2.397,2.3593,2.2767,2.2381,2.1993,2.1461,2.1375,0.0,0.0,0.0,0.0,0.0,2.4043,2.42,0.0,2.42,0.0,0.0,0.0,0.0,0.0,0.0,0.0,0.0,2.1298,0.0,2.0148,2.0213,2.0193,1.9934,2.0457,2.0998,2.1539,2.1596,2.1472,2.1122,2.0637,1.9886,1.9063,1.8503,1.7762,1.6828,1.6828,1.664,1.6264,1.5609,1.533,1.5235,3.8857,3.8789,3.8579,3.8263,3.7962,3.7702,3.734,3.7055,3.686,3.6678,3.6481,3.6215,3.5776,3.5769,0.0,3.5732,3.5295,3.4783,3.4251,3.3511,3.3093,3.3039,3.2547,3.2247,3.2247,0.0,0.0,3.1712,3.1712,3.1712,3.1712,3.1655,3.1597,3.1597,3.1539,3.1409,3.1278,3.0896,3.0464,3.0115,2.9732,2.9044,2.8379,2.8379,2.7987,2.7523,2.7523,2.7523,2.7523,2.7523,2.7403,2.7121,2.6794,2.6151,2.5569,2.5569,2.4886,2.42,2.42,2.42,2.42,2.42,2.42,2.42,2.42,2.397,2.3824,2.4116,2.42,2.397,2.315,2.3001,2.2852,2.2306,2.2231,2.2531,2.3372,0.0,0.0,0.0,0.0,0.0,0.0,2.42,0.0,0.0,0.0,0.0,0.0,0.0,0.0,2.2542,2.2069,0.0,2.0537,2.0459,2.0213,1.9696,2.0255,2.086,2.1502,2.1667,2.1562,2.1392,2.1195,2.0637,1.9886,1.9621,1.888,1.8033,1.794,1.7669,1.7196,1.6546,1.6358,1.6264,3.8473,3.8303,0.0,0.0,3.7432,0.0,3.69,3.6821,3.662,3.6241,3.5715,3.5232,3.4816,3.4284,3.4185,3.4673,0.0,0.0,0.0,3.3282,3.2895,3.2749,3.2247,3.194,3.194,3.194,3.1868,3.1868,3.1996,3.1996,3.1868,3.1841,3.1784,3.1727,3.1539,3.1278,3.097,3.0911,3.0372,2.9602,2.954,2.8972,2.8079,2.8079,2.7868,2.7523,2.7523,2.7523,2.7456,2.7469,2.7121,2.6714,2.6577,2.5861,2.5004,2.5004,2.4599,2.42,2.42,2.42,2.42,2.42,2.42,2.42,2.42,2.3604,2.3298,2.4043,2.42,2.397,2.3224,2.3075,2.3001,2.3075,2.3001,2.3298,2.4127,0.0,0.0,0.0,0.0,0.0,0.0,2.42,2.42,0.0,0.0,0.0,0.0,0.0,2.2756,2.1983,2.1993,2.1527,2.0615,2.0615,2.0167,1.9356,2.0118,2.0695,2.1117,2.152,2.1535,2.1401,2.1401,2.1293,2.0997,2.0826,2.0175,1.9247,1.9072,1.8326,1.7483,1.739,1.739,1.7382,0.0,0.0,3.7523,3.7132,3.6781,3.6557,3.6451,3.5803,3.5249,3.5191,3.4704,3.4301,3.4219,3.4086,3.3869,3.3598,3.3511,3.3355,3.3214,3.2602,3.2247,3.2191,3.1739,3.1467,3.1467,3.1102,3.0925,3.0925,3.164,3.164,3.0925,3.1539,3.1482,3.0881,3.1043,3.0984,3.0687,3.0144,2.9789,2.954,2.9035,2.8522,2.8079,2.8079,2.7868,2.7523,2.7523,2.7523,2.7456,2.7053,2.6794,2.6577,2.5652,2.5217,2.5004,2.5004,2.4599,2.42,2.42,2.42,2.42,2.42,2.42,2.42,2.42,2.4043,2.397,2.4127,2.42,2.4116,2.397,2.3446,2.3224,2.3824,2.3372,2.3298,2.4127,2.42,0.0,0.0,2.42,2.42,2.42,2.42,2.42,0.0,0.0,0.0,0.0,2.4043,2.3824,2.3666,2.3666,2.2968,2.1527,2.1451,2.0937,1.9787,1.998,2.0429,2.1108,2.1209,2.135,2.1651,2.1482,2.1392,2.1293,2.1006,2.0727,2.0374,2.0283,2.0002,1.9538,1.8696,1.8411,1.8326,3.6939,3.7094,3.7094,3.6719,3.6451,3.6156,3.5705,3.5144,3.4721,3.448,3.3969,3.3614,3.3614,3.3423,3.3055,3.2571,3.2664,3.2664,3.2407,3.1879,3.1567,3.1567,3.1278,3.1161,3.1161,3.0911,3.0792,3.0792,3.1278,3.1394,3.1102,3.1292,3.1219,3.1029,3.0866,3.0628,3.0341,2.9974,2.9741,2.954,2.9226,2.878,2.8341,2.8341,2.8,2.7523,2.7523,2.7523,2.739,2.685,2.6508,2.6151,2.5288,2.4802,2.4599,2.4599,2.4394,2.42,2.42,2.42,2.42,2.42,2.3897,2.3751,2.4127,2.3897,2.3751,2.4116,2.42,2.42,2.42,2.3824,2.3677,2.4127,2.3824,2.3666,2.4116,2.42,0.0,2.42,2.42,2.42,2.42,2.42,2.42,2.42,0.0,0.0,2.42,2.42,2.42,2.42,2.42,2.3593,2.2381,2.1993,2.1275,2.0203,2.0382,2.0559,2.0842,2.1025,2.1337,2.1731,2.1562,2.1571,2.1482,2.1284,2.1105,2.1024,2.0744,2.0654,2.0374,1.9729,1.9446,1.9446,3.6701,3.6741,3.6661,3.6139,3.6071,3.5749,3.4816,3.4625,3.4415,3.3919,3.3407,3.3093,3.3093,3.2586,3.212,3.1739,3.2018,3.2003,3.161,3.1204,3.1029,3.1029,3.0911,3.0911,3.0911,3.0911,3.0851,3.0792,3.0911,3.1146,3.1379,3.0955,3.0955,3.119,3.0747,3.0341,2.9988,2.9988,2.9865,2.9602,2.9602,2.9226,2.8651,2.8587,2.8197,2.7603,2.7456,2.7403,2.7255,2.6645,2.6139,2.5652,2.5087,2.4539,2.42,2.42,2.42,2.42,2.42,2.42,2.42,2.42,2.3677,2.3372,2.4043,2.3666,2.3372,2.4043,2.42,2.42,2.42,2.42,2.42,2.42,2.42,2.42,2.42,0.0,2.42,2.42,2.42,2.42,2.42,2.42,2.42,2.42,2.42,2.42,0.0,2.42,2.42,2.42,2.42,2.3824,2.3001,2.2231,2.1375,2.0469,2.0819,2.0824,2.0438,2.0778,2.119,2.164,2.164,2.1676,2.1651,2.1482,2.1392,2.1392,2.0934,2.0744,2.0654,2.0473,2.0382,2.0382,3.5854,3.6114,3.6097,3.5191,3.5052,3.4816,3.4235,3.3767,3.3391,3.3355,3.2841,3.2547,3.2547,3.212,3.1796,3.1739,3.1073,3.0777,3.1087,3.1029,3.1029,3.1029,3.0613,3.0433,3.0433,3.0433,3.019,2.9851,3.0613,3.0613,2.996,3.0539,3.0493,2.9898,3.0097,2.9988,2.9665,2.9665,2.9665,2.9602,2.9602,2.9352,2.8972,2.8716,2.8327,2.7881,2.7134,2.685,2.6633,2.5652,2.5229,2.5004,2.4467,2.4261,2.42,2.42,2.42,2.42,2.42,2.42,2.42,2.42,2.4116,2.4043,2.42,2.4116,2.4043,2.42,2.42,2.42,2.42,2.42,2.42,2.42,2.42,2.42,2.42,0.0,2.42,2.42,2.42,2.42,2.42,2.42,2.42,2.42,2.42,2.42,2.42,2.42,2.42,2.42,2.42,2.3824,2.3001,2.2231,2.1375,2.0459,2.0528,2.0404,2.0026,2.009,2.0512,2.1209,2.1209,2.141,2.1741,2.1651,2.1571,2.1392,2.1302,2.1024,2.0654,2.0654,2.0654,2.0654,3.4816,3.4894,3.4925,3.4464,3.4382,3.4185,3.3665,3.3355,3.3093,3.2788,3.2547,3.2272,3.2064,3.1838,3.1495,3.097,3.0553,3.0251,3.0266,3.0266,3.0266,3.0266,3.0021,2.9898,2.9898,2.9898,2.9851,2.9602,3.0021,3.0144,2.996,3.0083,3.0068,2.996,2.9851,2.9741,2.9602,2.9602,2.9602,2.9602,2.9602,2.9415,2.9099,2.8908,2.8651,2.8262,2.7443,2.704,2.6756,2.5581,2.5087,2.4945,2.4406,2.42,2.42,2.42,2.42,2.42,2.42,2.42,2.42,2.42,2.42,2.42,2.42,2.42,2.42,2.42,2.42,2.42,2.42,2.42,2.42,2.42,2.42,0.0,0.0,2.42,2.42,2.42,2.42,2.42,2.42,2.42,2.42,2.42,2.42,2.42,2.42,2.42,2.42,2.42,2.42,2.4043,2.3677,2.3287,2.2446,2.1231,2.1231,2.0771,1.9934,1.9934,2.0246,2.0805,2.1016,2.1218,2.142,2.164,2.1651,2.1571,2.1482,2.1302,2.1024,2.0916,2.0826,2.0826,3.4086,3.3986,3.3969,3.3834,3.3818,3.3614,3.3093,3.2986,3.2895,3.2437,3.2287,3.212,3.1739,3.1495,3.1087,3.0372,3.019,2.996,2.9602,2.9602,2.9602,2.9602,2.9602,2.9602,2.9602,2.9602,2.9602,2.9602,2.9602,2.9789,3.0144,2.9789,2.9789,3.0144,2.9789,2.9602,2.9602,2.9602,2.9602,2.9602,2.9602,2.9477,2.9226,2.9099,2.883,2.8379,2.7617,2.7082,2.6688,2.5523,2.5028,2.4814,2.4334,2.42,2.42,2.42,2.42,2.42,2.42,2.42,2.42,2.42,2.42,2.42,2.42,2.42,2.42,2.42,2.42,2.42,2.42,2.42,2.42,2.42,0.0,0.0,0.0,2.42,2.42,2.42,2.42,2.42,2.42,2.42,2.42,2.42,2.42,2.42,2.42,2.42,2.42,2.42,2.42,2.42,2.42,2.42,2.3361,2.1832,2.1832,2.1103,1.9787,1.9787,1.9998,2.0402,2.0704,2.0888,2.0998,2.1319,2.1456,2.1377,2.1389,2.1282,2.1121,2.1016,2.0953,2.0962,3.4036,3.3986,3.3818,3.3355,3.3251,3.3093,3.2547,3.2437,3.2437,3.2398,3.2007,3.1739,3.1682,3.0911,3.0372,3.0312,2.9898,2.9665,2.9602,2.9602,2.9602,2.9602,2.9602,2.9602,2.9602,2.9602,2.9602,2.9602,2.9602,2.9602,2.9665,2.9602,2.9602,2.9665,2.9602,2.9602,2.9602,2.9602,2.9602,2.9602,2.9602,2.9602,2.954,2.9226,2.8675,2.792,2.7069,2.6346,2.5606,2.4838,2.4562,2.449,2.4273,2.42,2.42,2.42,2.42,2.42,2.42,2.42,2.42,2.42,2.42,2.42,2.42,2.42,2.42,2.42,2.42,2.42,2.42,2.42,2.42,2.42,0.0,0.0,2.42,2.42,2.42,2.42,2.42,2.42,2.42,2.42,2.42,2.42,2.42,2.42,2.42,2.42,2.42,2.42,2.42,2.42,2.42,2.42,2.3361,2.1832,2.1832,2.0934,1.9347,1.9347,1.9577,1.9971,2.0008,2.0228,2.0567,2.0594,2.0613,2.064,2.1007,2.0762,2.0328,2.0688,2.0824,2.0878,3.3055,3.3018,3.2949,3.2749,3.2695,3.2641,3.2437,3.2176,3.1951,3.1951,3.1552,3.1146,3.0851,3.0493,3.019,2.9898,2.9727,2.9602,2.9602,2.9602,2.9602,2.9602,2.9602,2.9602,2.9602,2.9602,2.9602,2.9602,2.9602,2.9602,2.9602,2.9602,2.9602,2.9602,2.9602,2.9602,2.9602,2.9602,2.9602,2.9602,2.9602,2.9602,2.954,2.8931,2.8583,2.8168,2.6934,2.6264,2.5791,2.5111,2.4778,2.4646,2.4418,2.4418,2.4345,2.4273,2.42,2.42,2.42,2.42,2.42,2.42,2.42,2.42,2.42,2.42,2.42,2.42,2.42,2.42,2.42,2.42,2.42,2.42,0.0,2.42,2.42,2.42,2.42,2.42,2.42,2.42,2.42,2.42,2.42,2.42,2.42,2.42,2.42,2.42,2.42,2.42,2.42,2.42,2.42,2.42,2.3361,2.1832,2.1832,2.0914,1.9301,1.9301,1.9393,1.9549,1.9815,2.0017,2.0173,2.042,2.0521,2.0539,2.0686,2.072,2.082,2.0966,2.1253,2.1717,3.2492,3.2398,3.2398,3.2398,3.2287,3.2176,3.2176,3.1781,3.1495,3.1495,3.1087,3.0673,3.0326,3.0144,2.996,2.9602,2.9602,2.9602,2.9602,2.9602,2.9602,2.9602,2.9602,2.9602,2.9602,2.9602,2.9602,2.9602,2.9602,2.9602,2.9602,2.9602,2.9602,2.9602,2.9602,2.9602,2.9602,2.9602,2.9602,2.9602,2.9602,2.9463,2.9198,2.8698,2.8233,2.771,2.6744,2.6139,2.5779,2.5253,2.4981,2.4849,2.4646,2.4574,2.4562,2.4345,2.4273,2.4273,2.42,2.42,2.42,2.42,2.42,2.42,2.42,2.42,2.42,2.42,2.42,2.42,2.42,2.42,2.42,2.42,2.42,2.42,2.42,2.42,2.42,2.42,2.42,2.42,2.42,2.42,2.42,2.42,2.42,2.42,2.42,2.42,2.42,2.42,2.42,2.42,2.42,2.42,2.3508,2.2145,2.1918,2.1068,1.9687,1.946,1.9301,1.932,1.9604,1.9732,1.9751,2.0026,2.0218,2.0347,2.0466,2.0686,2.0934,2.1062,2.1548,2.2162,3.2398,3.2398,3.2398,3.2398,3.2007,3.1682,3.1682,3.1321,3.097,3.097,3.0613,3.0312,3.0312,2.9898,2.9602,2.9602,2.9602,2.9602,2.9602,2.9602,2.9602,2.9602,2.9602,2.9602,2.9602,2.9602,2.9602,2.9602,2.9602,2.9602,2.9602,2.9602,2.9602,2.9602,2.9602,2.9602,2.9602,2.9602,2.9602,2.9602,2.9602,2.9121,2.8492,2.8492,2.7657,2.6414,2.6414,2.5931,2.5312,2.5182,2.5123,2.5052,2.4861,2.479,2.479,2.4574,2.449,2.449,2.4273,2.42,2.42,2.42,2.42,2.42,2.42,2.42,2.42,2.42,2.42,2.42,2.42,2.42,2.42,2.42,2.42,2.42,2.42,2.42,2.42,2.42,2.42,2.42,2.42,2.42,2.42,2.42,2.42,2.42,2.42,2.42,2.42,2.42,2.42,2.42,2.42,2.42,2.3824,2.3001,2.222,2.1385,2.0459,1.9687,1.9301,1.9301,1.9301,1.9301,1.9301,1.9301,1.9549,1.9971,2.0365,2.0521,2.0567,2.0961,2.1383,2.1805,3.1422,3.1422,3.1422,3.1422,3.1306,3.1204,3.1204,3.0792,3.0493,3.0493,3.0083,2.9789,2.9789,2.9665,2.9602,2.9602,2.9602,2.9602,2.9602,2.9602,2.9602,2.9602,2.9602,2.9602,2.9602,2.9602,2.9602,2.9602,2.9602,2.9602,2.9602,2.9602,2.9602,2.9602,2.9602,2.9602,2.9602,2.9602,2.9324,2.8839,2.8839,2.8376,2.7723,2.7191,2.6744,2.6346,2.5791,2.5523,2.5312,2.5241,2.5241,2.5182,2.5052,2.4921,2.4801,2.4718,2.4718,2.4718,2.4646,2.4646,2.4562,2.4273,2.42,2.42,2.42,2.42,2.42,2.42,2.42,2.42,2.42,2.42,2.42,2.42,2.42,2.42,2.42,2.42,2.42,2.42,2.42,2.42,2.42,2.42,2.42,2.42,2.42,2.42,2.42,2.42,2.42,2.42,2.42,2.42,2.42,2.42,2.3824,2.3001,2.2767,2.1918,2.0459,2.0226,1.9844,1.9301,1.9301,1.9467,1.9742,1.9742,1.998,2.0356,2.0466,2.0686,2.0943,2.1062,2.1731,2.2519,3.1029,3.1029,3.1029,3.1029,3.0851,3.0732,3.0732,3.0312,3.0021,3.0021,2.9789,2.9602,2.9602,2.9602,2.9602,2.9602,2.9602,2.9602,2.9602,2.9602,2.9602,2.9602,2.9602,2.9602,2.9602,2.9602,2.9602,2.9602,2.9602,2.9602,2.9602,2.9602,2.9602,2.9602,2.9602,2.9602,2.9602,2.9602,2.9324,2.8903,2.8634,2.8117,2.7417,2.6676,2.6208,2.5931,2.5453,2.5312,2.5312,2.5312,2.5312,2.5312,2.5182,2.5123,2.4992,2.4921,2.4921,2.4921,2.479,2.479,2.4718,2.449,2.4345,2.4273,2.42,2.42,2.42,2.42,2.42,2.42,2.42,2.42,2.42,2.42,2.4273,2.4345,2.4345,2.4345,2.4345,2.4345,2.4273,2.42,2.42,2.4273,2.4345,2.4345,2.4345,2.4273,2.42,2.42,2.42,2.42,2.42,2.42,2.42,2.4384,2.4005,2.3001,2.2692,2.1842,2.0469,2.0148,1.986,1.9549,1.9549,1.9787,2.0163,2.0163,2.0393,2.075,2.075,2.0998,2.1355,2.1355,2.1933,2.2731,3.0851,3.0851,3.0851,3.0851,3.0493,3.0266,3.0266,2.9837,2.9602,2.9602,2.9602,2.9602,2.9602,2.9602,2.9602,2.9602,2.9602,2.9602,2.9602,2.9602,2.9602,2.9602,2.9602,2.9602,2.9602,2.9602,2.9602,2.9602,2.9602,2.9602,2.9602,2.9602,2.9602,2.9602,2.9602,2.9602,2.9602,2.954,2.9477,2.9338,2.8634,2.792,2.7217,2.6552,2.5861,2.5312,2.5312,2.5312,2.5312,2.5312,2.5312,2.5312,2.5312,2.5312,2.5312,2.5182,2.5111,2.5052,2.4861,2.4861,2.4861,2.4861,2.4718,2.449,2.4273,2.42,2.42,2.42,2.42,2.42,2.42,2.42,2.42,2.4189,2.4345,2.4502,2.449,2.4502,2.4502,2.4502,2.4345,2.4261,2.4261,2.4464,2.456,2.456,2.4606,2.4545,2.4399,2.4326,2.4326,2.4326,2.4326,2.4326,2.4326,2.4763,2.4356,2.3067,2.2326,2.1497,2.0576,1.9878,1.9694,1.998,1.998,2.0209,2.0567,2.0567,2.0805,2.1163,2.1163,2.1392,2.1741,2.1741,2.1988,2.2392,2.9898,2.9898,2.9898,2.9898,2.9851,2.9727,2.9727,2.9665,2.9602,2.9602,2.9602,2.9602,2.9602,2.9602,2.9602,2.9602,2.9602,2.9602,2.9602,2.9602,2.9602,2.9602,2.9602,2.9602,2.9602,2.9602,2.9602,2.9602,2.9602,2.9602,2.9602,2.9602,2.9602,2.9602,2.9602,2.9602,2.954,2.898,2.8454,2.7881,2.7136,2.6402,2.5779,2.5581,2.5453,2.5312,2.5312,2.5312,2.5312,2.5312,2.5312,2.5312,2.5312,2.5312,2.5312,2.5241,2.5241,2.5241,2.5182,2.5182,2.5182,2.5052,2.4981,2.4909,2.449,2.4345,2.42,2.42,2.42,2.42,2.42,2.42,2.4273,2.4418,2.449,2.4574,2.4718,2.4718,2.4718,2.4718,2.4718,2.4646,2.4646,2.5081,2.5401,2.5401,2.5529,2.5663,2.5588,2.5447,2.5383,2.5383,2.5383,2.5383,2.5383,2.5486,2.481,2.3471,2.3675,2.296,2.1442,2.1279,2.0853,2.0393,2.0393,2.0613,2.0979,2.0979,2.1227,2.1603,2.1603,2.1658,2.1741,2.1741,2.1988,2.2428,2.9602,2.9602,2.9602,2.9602,2.9602,2.9602,2.9602,2.9602,2.9602,2.9602,2.9602,2.9602,2.9602,2.9602,2.9602,2.9602,2.9602,2.9602,2.9602,2.9602,2.9602,2.9602,2.9602,2.9463,2.9044,2.9401,2.9602,2.9602,2.9602,2.9602,2.9602,2.9602,2.9602,2.9602,2.9602,2.9602,2.954,2.8839,2.8298,2.7855,2.6812,2.6139,2.5791,2.5441,2.5312,2.5312,2.5312,2.5312,2.5312,2.5312,2.5312,2.5312,2.5312,2.5312,2.5312,2.5312,2.5312,2.5312,2.5312,2.5312,2.5312,2.5182,2.5182,2.5052,2.4706,2.4574,2.4502,2.4502,2.4418,2.4345,2.4345,2.4345,2.4345,2.449,2.4634,2.4849,2.4921,2.4921,2.4921,2.4921,2.4861,2.4967,2.5276,2.5772,2.6068,2.6068,2.6229,2.6218,2.5977,2.5923,2.5781,2.5716,2.5716,2.5716,2.5716,2.5957,2.5453,2.4309,2.3913,2.302,2.1816,2.132,2.1025,2.0796,2.0796,2.1025,2.141,2.141,2.1539,2.1741,2.1741,2.1741,2.1741,2.1741,2.1988,2.2392,2.9602,2.9602,2.9602,2.9602,2.9602,2.9602,2.9602,2.9602,2.9602,2.9602,2.9602,2.9602,2.9602,2.9602,2.9602,2.9602,2.9602,2.9602,2.9602,2.9602,2.9602,2.9602,2.9477,2.9121,2.8492,2.9091,2.9372,2.9401,2.954,2.9602,2.9602,2.9602,2.9596,2.9568,2.9568,2.9561,2.9453,2.8752,2.8398,2.8266,2.7023,2.6494,2.6425,2.5802,2.5588,2.5588,2.5588,2.5588,2.5588,2.5588,2.5588,2.5588,2.5588,2.5588,2.5588,2.5588,2.5588,2.5588,2.5588,2.5588,2.5564,2.5468,2.5373,2.523,2.4945,2.4861,2.479,2.479,2.4646,2.4574,2.4574,2.4574,2.4562,2.4562,2.4909,2.5111,2.5111,2.5111,2.5147,2.523,2.5206,2.537,2.5932,2.6443,2.6752,2.6752,2.6835,2.673,2.6399,2.6321,2.6178,2.6046,2.6046,2.6046,2.6046,2.6461,2.6256,2.5425,2.419,2.3023,2.206,2.1306,2.1068,2.1218,2.1218,2.141,2.1741,2.1741,2.1741,2.1741,2.1741,2.1741,2.1741,2.1741,2.1988,2.2327,2.9602,2.9602,2.9602,2.9602,2.9602,2.9602,2.9602,2.9602,2.9602,2.9602,2.9602,2.9602,2.9602,2.9602,2.9602,2.9602,2.9602,2.9602,2.9602,2.9602,2.9602,2.9602,2.898,2.8634,2.8492,2.8492,2.8505,2.8634,2.9261,2.9602,2.9602,2.9602,2.9489,2.9319,2.9319,2.9255,2.9101,2.8395,2.805,2.7978,2.714,2.6856,2.6781,2.6707,2.6719,2.6719,2.6719,2.6719,2.6719,2.6719,2.6719,2.6719,2.6719,2.6719,2.6719,2.6719,2.6719,2.6719,2.6719,2.6719,2.6598,2.6105,2.5997,2.5805,2.5349,2.4981,2.479,2.479,2.479,2.479,2.479,2.479,2.479,2.4981,2.5052,2.5111,2.5241,2.5241,2.548,2.5937,2.6356,2.6668,2.674,2.7232,2.7531,2.7531,2.7794,2.7965,2.7885,2.7554,2.7405,2.7601,2.7417,2.7232,2.7232,2.7302,2.7186,2.6871,2.5926,2.4535,2.292,2.2843,2.2358,2.1649,2.1649,2.1686,2.1741,2.1741,2.1741,2.1741,2.1741,2.1741,2.1741,2.1741,2.1988,2.2327,2.9699,2.9651,2.9602,2.9602,2.9602,2.9602,2.9602,2.9602,2.9602,2.9602,2.9602,2.9602,2.9602,2.9261,2.898,2.898,2.8661,2.8746,2.949,2.91,2.9197,2.9962,2.9255,2.8822,2.889,2.8812,2.8812,2.889,2.9188,2.9322,2.9322,2.9763,2.9686,2.9233,2.9672,2.96,2.9041,2.835,2.7986,2.7925,2.7223,2.6935,2.6935,2.6935,2.6935,2.6935,2.6935,2.6935,2.6935,2.6935,2.6935,2.6935,2.6935,2.6935,2.6935,2.6935,2.6935,2.6935,2.6935,2.6935,2.6875,2.6635,2.6562,2.6502,2.6274,2.6079,2.5777,2.5171,2.5052,2.4992,2.4992,2.4992,2.4981,2.5123,2.5421,2.5685,2.5757,2.6009,2.6298,2.6538,2.7043,2.738,2.738,2.7849,2.8162,2.8162,2.8299,2.8339,2.8179,2.8007,2.7857,2.7893,2.78,2.7708,2.7708,2.7708,2.7371,2.6622,2.6185,2.5242,2.3897,2.3536,2.2942,2.208,2.2318,2.2419,2.2419,2.2419,2.2282,2.2061,2.2061,2.1933,2.1741,2.1741,2.1851,2.1997]}]]